     2              OBSERVATION DATA    GPS                 RINEX VERSION / TYPE
teqc 2000Jul20 Karen Wendt 20030328 00:19:33UTC             PGM / RUN BY / DATE
                                                            COMMENT
L2: 1 -> 1; 150 -> 5; 250 -> 9                              COMMENT
L2: 1 -> 1; 150 -> 5; 250 -> 9                              COMMENT
L2: 1 -> 1; 150 -> 5; 250 -> 9                              COMMENT
L2: 1 -> 1; 150 -> 5; 250 -> 9                              COMMENT
L2: 1 -> 1; 150 -> 5; 250 -> 9                              COMMENT
L2: 1 -> 1; 150 -> 5; 250 -> 9                              COMMENT
L2: 1 -> 1; 150 -> 5; 250 -> 9                              COMMENT
L2: 1 -> 1; 150 -> 5; 250 -> 9                              COMMENT
L2: 1 -> 1; 150 -> 5; 250 -> 9                              COMMENT
L2: 1 -> 1; 150 -> 5; 250 -> 9                              COMMENT
L2: 1 -> 1; 150 -> 5; 250 -> 9                              COMMENT
L2: 1 -> 1; 150 -> 5; 250 -> 9                              COMMENT
L2: 1 -> 1; 150 -> 5; 250 -> 9                              COMMENT
L2: 1 -> 1; 150 -> 5; 250 -> 9                              COMMENT
Original Marker Name: go42 Gold_1942_USC&GS                 COMMENT
Campaign Name: USGS 2003                                    COMMENT
4-Character Station Name: GO42                              COMMENT
6-Character Antenna Code: DMRCHT                            COMMENT
Vertical Measurement Point: BCR                             COMMENT
Vertical Offset to Rinex Ref. Point: 0.0348                 COMMENT
Radial Measurement Point: ECF                               COMMENT
Radial Offset to Rinex Ref. Point: 0.1897                   COMMENT
Antenna Height from Field Measurement: 1.2600 m             COMMENT
Additional Antenna Identification Info.:                    COMMENT
Turborogue and Ashtech Choke Ring                           COMMENT
Original XYZ: -2616032.7372 -4467878.1684 3713267.9445      COMMENT
New XYZ position is based on association with SCEC monument COMMENT
E1F1E7F9+0011. Position of that monument is believed to be  COMMENT
valid to within 1 m horizontally; vertical accuracy         COMMENT
should be no worse than 3-times this value.                 COMMENT
                                                            COMMENT
Revised Rinex header created by UCSD GPS archive for        COMMENT
GSAC on 11-Jul-2003 (2003:192) 16:20:47 GMT                 COMMENT
For assistance contact dagnew@ucsd.edu                      COMMENT
or anderson@python.ucsd.edu                                 COMMENT
                                                            COMMENT
GOLD 1942                                                   MARKER NAME
JMS US GEOLOGICAL SURVEY                                    OBSERVER / AGENCY
LP019992803 ASHTECH Z-XII3 CD00                             REC # / TYPE / VERS
CR619992805 DORNE-MARGOL. TYPE T                            ANT # / TYPE
 -2616053.6173 -4467854.6723  3713257.5710                  APPROX POSITION XYZ
        1.2108        0.0000        0.0000                  ANTENNA: DELTA H/E/N
     1     1     0                                          WAVELENGTH FACT L1/2
     5    C1    L1    L2    P1    P2                        # / TYPES OF OBSERV
    30                                                      INTERVAL
  2003     3    25     0     1    0.000000                  TIME OF FIRST OBS
  2003     3    25    23    59   30.000000                  TIME OF LAST OBS
                                                            END OF HEADER
 03  3 25  0  1  0.0000000  0 10G16G26G23G 6G 3G17G14G 2G18G15
  24002888.691     3679542.29549   2807666.16845  24002888.526    24002895.976
  23118772.613     6455302.75549   5026526.70746  23118772.827    23118778.720
  20899126.926      802246.77449    625681.98248  20899126.496    20899132.045
  23591195.608    12081662.23249   9404259.64145  23591195.455    23591203.491
  22848723.323   -10494439.58049  -8162776.13246  22848723.128    22848729.641
  20986388.602      678623.18749    527441.13747  20986388.086    20986394.165
  23824026.652    -9639583.26649  -7255003.61045  23824025.980    23824033.908
  24783285.789    -1336387.50249  -1035724.77345  24783285.259    24783294.447
  20371436.892    -3648423.71149  -2839189.67348  20371436.548    20371440.919
  20462689.864    -6127434.78949  -4770644.21648  20462689.275    20462694.969
 03  3 25  0  1 30.0000000  0 10G16G26G23G 6G 3G17G14G 2G18G15
  24014212.729     3739050.01549   2854035.74145  24014212.506    24014219.926
  23135325.200     6542287.14549   5094306.71245  23135325.387    23135331.349
  20905311.477      834746.68749    651006.59748  20905311.054    20905316.578
  23611677.795    12189296.91649   9488130.68945  23611677.736    23611685.873
  22834197.700   -10570772.04549  -8222255.92846  22834197.514    22834203.963
  20991021.692      702970.15649    546412.79447  20991021.188    20991027.258
  23802730.621    -9751493.91049  -7342206.49645  23802729.894    23802737.803
  24787157.564    -1316041.36449  -1019870.68845  24787157.148    24787166.215
  20372401.894    -3643352.48649  -2835238.05848  20372401.540    20372405.911
  20457850.081    -6152868.01849  -4790462.29548  20457849.496    20457855.214
 03  3 25  0  2  0.0000000  0 10G16G26G23G 6G 3G17G14G 2G18G15
  24025589.027     3798832.46549   2900619.38245  24025588.841    24025596.376
  23151957.788     6629691.74249   5162414.14945  23151958.023    23151963.945
  20911545.564      867506.99749    676534.11948  20911545.148    20911550.640
  23632189.333    12297085.52549   9572121.67845  23632189.296    23632197.520
  22819742.540   -10646733.96049  -8281446.99346  22819742.371    22819748.798
  20995704.740      727579.75449    565589.09747  20995704.236    20995710.280
  23781452.115    -9863312.35749  -7429337.54245  23781451.344    23781459.223
  24791096.475    -1295343.60249  -1003742.63145  24791096.002    24791105.055
  20373436.096    -3637917.76549  -2831003.20448  20373435.764    20373440.092
  20453058.838    -6178046.26649  -4810081.68848  20453058.242    20453063.963
 03  3 25  0  2 30.0000000  0 10G16G26G23G 6G 3G17G14G 2G18G15
  24037016.787     3858885.88449   2947414.18245  24037016.709    24037024.233
  23168669.633     6717512.79149   5230846.09945  23168669.894    23168675.868
  20917828.747      900525.22149    702262.60548  20917828.299    20917833.808
  23652729.534    12405024.62849   9656229.93145  23652729.536    23652737.724
  22805358.202   -10722323.88149  -8340348.18646  22805358.040    22805364.493
  21000437.639      752451.35749    584969.55647  21000437.140    21000443.205
  23760191.240    -9975036.68349  -7516395.24445  23760190.703    23760198.526
  24795101.429    -1274297.00949   -987342.72945  24795100.998    24795110.006
  20374539.025    -3632121.82549  -2826486.88848  20374538.680    20374543.014
  20448316.143    -6202969.22749  -4829502.16348  20448315.536    20448321.302
 03  3 25  0  3  0.0000000  0 10G16G26G23G 6G 3G17G14G 2G18G15
  24048495.578     3919206.93149   2994417.51045  24048495.483    24048503.031
  23185460.096     6805746.94649   5299599.94645  23185460.300    23185466.339
  20924160.582      933799.22049    728190.40648  20924160.145    20924165.665
  23673297.929    12513111.56149   9740453.38645  23673297.936    23673306.084
  22791045.046   -10797539.80349  -8398957.95146  22791044.878    22791051.396
  21005220.493      777585.33349    604554.46647  21005219.989    21005226.058
  23738948.828   -10086664.55249  -7603377.80045  23738948.378    23738956.272
  24799172.389    -1252903.73949   -970672.70445  24799171.900    24799181.135
  20375710.391    -3625966.27949  -2821690.35148  20375710.069    20375714.385
  20443622.146    -6227636.21049  -4848723.17048  20443621.545    20443627.336
 03  3 25  0  3 30.0000000  0 10G16G26G23G 6G 3G17G14G 2G18G15
  24060024.735     3979793.17449   3041627.48245  24060024.582    24060032.233
  23202328.627     6894391.62349   5368673.68045  23202328.792    23202334.922
  20930540.923      967327.99449    754316.72748  20930540.478    20930545.968
  23693894.194    12621344.50349   9824790.61445  23693894.188    23693902.339
  22776803.745   -10872378.85649  -8457274.06546  22776803.527    22776810.010
  21010053.541      802983.05749    624344.89647  21010053.043    21010059.092
  23717725.501   -10198192.70349  -7690282.66445  23717725.121    23717732.859
  24803309.244    -1231164.93549   -953733.41345  24803308.746    24803317.917
  20376950.137    -3619451.53449  -2816613.92548  20376949.781    20376954.067
  20438977.162    -6252045.80249  -4867743.61748  20438976.561    20438982.331
 03  3 25  0  4  0.0000000  0 10G16G26G23G 6G 3G17G14G 2G18G15
  24071603.937     4040641.35849   3089041.57545  24071603.696    24071611.368
  23219274.621     6983443.44649   5438064.66545  23219274.780    23219280.944
  20936969.273     1001109.31449    780639.84348  20936968.838    20936974.343
  23714517.644    12729720.37549   9909239.20945  23714517.591    23714525.692
  22762634.368   -10946839.09749  -8515294.98846  22762634.167    22762640.661
  21014936.883      828644.79649    644341.05547  21014936.372    21014942.379
  23696521.621   -10309618.95049  -7777108.13345  23696521.300    23696528.939
  24807511.449    -1209082.73249   -936526.56345  24807510.957    24807520.258
  20378257.856    -3612579.32849  -2811258.95448  20378257.536    20378261.822
  20434381.238    -6276197.61649  -4886563.19348  20434380.623    20434386.375
 03  3 25  0  4 30.0000000  0 10G16G26G23G 6G 3G17G14G 2G18G15
  24083232.460     4101748.74549   3136657.63645  24083232.105    24083239.826
  23236297.617     7072899.70749   5507770.79745  23236297.726    23236303.941
  20943445.415     1035141.72949    807158.61748  20943444.995    20943450.482
  23735167.748    12838237.05749   9993797.53345  23735167.735    23735175.824
  22748537.497   -11020917.94049  -8573018.71246  22748537.366    22748543.809
  21019870.596      854571.39949    664543.59947  21019870.067    21019876.032
  23675337.756   -10420940.34349  -7863851.90945  23675337.415    23675344.903
  24811778.532    -1186658.68349   -919053.32045  24811778.173    24811787.512
  20379633.449    -3605350.67149  -2805626.22948  20379633.104    20379637.409
  20429834.643    -6300090.17849  -4905180.75848  20429834.020    20429839.737
 03  3 25  0  5  0.0000000  0 10G16G26G23G 6G 3G17G14G 2G18G15
  24094909.600     4163112.27149   3184473.30545  24094909.241    24094917.006
  23253397.094     7162757.37449   5577789.71845  23253397.198    23253403.303
  20949969.032     1069423.53149    833871.72248  20949968.589    20949974.104
  23755844.110    12946892.12049  10078463.68745  23755844.141    23755852.327
  22734513.716   -11094613.13349  -8630443.50246  22734513.584    22734519.968
  21024854.788      880763.34149    684952.90647  21024854.246    21024860.202
  23654174.467   -10532154.24949  -7950511.92745  23654173.886    23654181.403
  24816110.482    -1163894.59349   -901315.12745  24816110.094    24816119.376
  20381076.606    -3597766.76149  -2799716.67548  20381076.265    20381080.549
  20425337.492    -6323722.80849  -4923595.77248  20425336.874    20425342.600
 03  3 25  0  5 30.0000000  0 10G16G26G23G 6G 3G17G14G 2G18G15
  24106634.909     4224729.46949   3232486.62945  24106634.504    24106642.469
  23270572.364     7253013.98549   5648119.50145  23270572.527    23270578.599
  20956539.879     1103953.67849    860778.33048  20956539.450    20956544.975
  23776546.428    13055683.44249  10163236.01545  23776546.459    23776554.703
  22720563.544   -11167921.99549  -8687567.25646  22720563.391    22720569.734
  21029889.635      907221.66349    705569.77247  21029889.091    21029895.061
  23633032.132   -10643257.41849  -8037085.66745  23633031.593    23633038.952
  24820507.058    -1140791.51849   -883312.80345  24820506.561    24820515.744
  20382587.243    -3589828.43649  -2793530.96548  20382586.909    20382591.201
  20420890.131    -6347093.63449  -4941806.79748  20420889.512    20420895.244
 03  3 25  0  6  0.0000000  0 10G16G26G23G 6G 3G17G14G 2G18G15
  24118408.008     4286597.22749   3280695.18845  24118407.664    24118415.479
  23287822.946     7343666.33749   5718757.66145  23287823.066    23287829.247
  20963157.632     1138730.13749    887876.87948  20963157.188    20963162.714
  23797274.206    13164608.39849  10248112.46045  23797274.290    23797282.611
  22706687.107   -11240842.73449  -8744388.56146  22706686.958    22706693.406
  21034975.243      933946.90249    726394.63447  21034974.690    21034980.689
  23611911.385   -10754247.40449  -8123571.23345  23611910.805    23611918.129
  24824967.515    -1117351.75849   -865048.09645  24824966.963    24824976.356
  20384165.005    -3581537.19949  -2787070.24948  20384164.666    20384168.958
  20416492.763    -6370201.87649  -4959813.20148  20416492.137    20416497.902
 03  3 25  0  6 30.0000000  0 10G16G26G23G 6G 3G17G14G 2G18G15
  24130228.293     4348712.54849   3329096.64745  24130227.921    24130235.631
  23305148.214     7434711.42749   5789701.84145  23305148.362    23305154.546
  20969821.954     1173751.29749    915166.10048  20969821.505    20969827.035
  23818027.148    13273664.83249  10333091.35245  23818027.173    23818035.455
  22692885.146   -11313372.71349  -8800905.38546  22692884.933    22692891.386
  21040111.799      960939.93449    747428.16447  21040111.254    21040117.296
  23590812.631   -10865121.41649  -8209966.42245  23590812.051    23590819.367
  24829491.698    -1093577.18649   -846522.52145  24829491.131    24829500.511
  20385809.708    -3572894.07849  -2780335.33848  20385809.368    20385813.681
  20412145.471    -6393046.66449  -4977614.32548  20412144.866    20412150.651
 03  3 25  0  7  0.0000000  0  9G16G26G23G 6G 3G17G14G18G15
  24142095.885     4411076.67649   3377692.00945  24142095.565    24142103.234
  23322548.442     7526150.40949   5860952.95645  23322548.635    23322554.847
  20976533.298     1209019.55749    942647.86547  20976532.848    20976538.364
  23838805.504    13382854.48749  10418174.06845  23838805.328    23838813.656
  22679158.680   -11385505.52349  -8857112.72646  22679158.485    22679164.939
  21045300.205      988205.42249    768673.99347  21045299.702    21045305.722
  23569737.235   -10975872.63349  -8296265.93045  23569736.661    23569743.905
  20387521.955    -3563896.22549  -2773324.01448  20387521.612    20387525.920
  20407849.309    -6415622.98449  -4995206.25048  20407848.710    20407854.508
 03  3 25  0  7 30.0000000  0  9G16G26G23G 6G 3G17G14G18G15
  24154009.097     4473680.55049   3426474.17045  24154008.708    24154016.427
  23340022.006     7617974.17349   5932503.90445  23340022.148    23340028.339
  20983290.174     1244527.22249    970316.18247  20983289.731    20983295.228
  23859607.483    13492168.95649  10503354.03445  23859607.268    23859615.659
  22665507.031   -11457245.03849  -8913013.59246  22665506.866    22665513.356
  21050539.434     1015737.61649    790127.64747  21050538.905    21050544.950
  23548684.587   -11086504.31049  -8382472.29445  23548684.106    23548691.294
  20389300.340    -3554550.71949  -2766041.78948  20389299.991    20389304.284
  20403603.309    -6437935.83349  -5012592.87548  20403602.720    20403608.482
 03  3 25  0  8  0.0000000  0  9G16G26G23G 6G 3G17G14G18G15
  24165967.635     4536523.02349   3475442.24645  24165967.349    24165975.064
  23357568.519     7710181.53349   6004353.74645  23357568.672    23357574.928
  20990092.616     1280274.35649    998171.10047  20990092.162    20990097.657
  23880433.085    13601607.41849  10588630.60845  23880432.830    23880441.204
  22651931.142   -11528587.24749  -8968604.88946  22651930.944    22651937.349
  21055829.871     1043538.95549    811791.02347  21055829.363    21055835.405
  23527655.463   -11197012.12149  -8468582.14045  23527655.153    23527662.249
  20391144.891    -3544857.55849  -2758488.66348  20391144.544    20391148.848
  20399408.019    -6459982.22749  -5029771.87548  20399407.444    20399413.161
 03  3 25  0  8 30.0000000  0  9G16G26G23G 6G 3G17G14G18G15
  24177970.672     4599599.45649   3524592.64145  24177970.409    24177978.206
  23375187.120     7802767.74349   6076498.80145  23375187.265    23375193.534
  20996940.032     1316257.83649   1026210.17547  20996939.571    20996945.108
  23901281.566    13711165.88149  10674000.69845  23901281.327    23901289.680
  22638430.876   -11599531.48549  -9023886.07446  22638430.651    22638436.982
  21061171.340     1071608.54249    833663.42047  21061170.835    21061176.889
  23506650.250   -11307394.83949  -8554594.50445  23506649.806    23506657.084
  20393055.147    -3534819.06049  -2750666.44248  20393054.792    20393059.091
  20395263.423    -6481762.48949  -5046743.49948  20395262.823    20395268.488
 03  3 25  0  9  0.0000000  0  9G16G26G23G 6G 3G17G14G18G15
  24190018.004     4662907.97749   3573923.87645  24190017.769    24190025.463
  23392877.495     7895731.22849   6148937.83845  23392877.648    23392884.010
  21003832.323     1352477.18949   1054433.04847  21003831.890    21003837.429
  23922152.635    13820843.19949  10759463.39545  23922152.458    23922160.759
  22625007.004   -11670074.06749  -9078854.27346  22625006.814    22625013.152
  21066564.341     1099948.87149    855746.78047  21066563.841    21066569.882
  23485669.504   -11417648.53949  -8640506.34045  23485669.130    23485676.305
  20395031.102    -3524435.41049  -2742575.27348  20395030.734    20395035.027
  20391169.868    -6503274.50349  -5063506.09948  20391169.257    20391174.885
 03  3 25  0  9 30.0000000  0  9G16G26G23G 6G 3G17G14G18G15
  24202109.069     4726446.49049   3623434.32445  24202108.849    24202116.459
  23410639.214     7989069.64849   6221669.03345  23410639.422    23410645.757
  21010769.348     1388931.51749   1082839.02247  21010768.927    21010774.424
  23943046.017    13930637.74749  10845017.43645  23943045.773    23943054.175
  22611660.231   -11740211.91749  -9133507.09746  22611660.034    22611666.381
  21072009.017     1128560.77549    878041.76647  21072008.522    21072014.532
  23464713.951   -11527769.54149  -8726314.76845  23464713.647    23464720.742
  20397072.638    -3513706.94749  -2734215.41648  20397072.291    20397076.594
  20387127.683    -6524516.39349  -5080058.20948  20387127.076    20387132.701
 03  3 25  0 10  0.0000000  0  9G16G26G23G 6G 3G17G14G18G15
  24214243.318     4790212.06449   3673121.71745  24214243.058    24214250.695
  23428471.755     8082779.91249   6294689.98145  23428471.917    23428478.231
  21017750.827     1425619.29549   1111426.89847  21017750.384    21017755.897
  23963961.119    14040547.00449  10930660.85745  23963960.995    23963969.325
  22598390.890   -11809942.82549  -9187842.83146  22598390.680    22598397.044
  21077505.497     1157444.70549    900548.71247  21077505.017    21077510.961
  23443784.139   -11637755.40149  -8812017.89645  23443783.876    23443790.981
  20399179.524    -3502635.21749  -2725588.08648  20399179.152    20399183.438
  20383137.063    -6545487.11349  -5096399.02348  20383136.468    20383142.095
 03  3 25  0 10 30.0000000  0  9G16G26G23G 6G 3G17G14G18G15
  24226420.204     4854201.46049   3722983.50145  24226419.968    24226427.512
  23446374.461     8176858.76749   6367998.13945  23446374.572    23446380.900
  21024776.299     1462538.44249   1140195.06347  21024775.880    21024781.396
  23984897.458    14150568.35149  11016391.63645  23984897.471    23984905.978
  22585199.300   -11879265.16849  -9241860.20046  22585199.092    22585205.417
  21083053.753     1186601.16349    923268.02647  21083053.276    21083059.281
  23422880.538   -11747603.62249  -8897613.77245  23422880.367    23422887.452
  20401351.406    -3491221.70349  -2716694.42448  20401351.059    20401355.328
  20379198.189    -6566186.10849  -5112528.10248  20379197.575    20379203.222
 03  3 25  0 11  0.0000000  0  9G16G26G23G 6G 3G17G14G18G15
  24238639.243     4918412.17049   3773017.74745  24238638.949    24238646.554
  23464346.732     8271303.65749   6441591.51445  23464346.881    23464353.228
  21031845.625     1499687.97949   1169142.75647  21031845.187    21031850.692
  24005854.767    14260700.03449  11102208.38845  24005854.832    24005863.443
  22572085.872   -11948176.22949  -9295557.08546  22572085.651    22572091.979
  21088654.157     1216031.40549    946200.67447  21088653.669    21088659.721
  23402003.867   -11857310.80049  -8983099.75645  23402003.680    23402010.737
  20403588.227    -3479467.12649  -2707535.00148  20403587.860    20403592.151
  20375311.349    -6586611.50349  -5128443.98448  20375310.736    20375316.398
 03  3 25  0 11 30.0000000  0  9G16G26G23G 6G 3G17G14G18G15
  24250899.451     4982839.98049   3823221.16545  24250899.142    24250906.803
  23482387.974     8366110.62749   6515467.03945  23482388.110    23482394.514
  21038958.256     1537065.14349   1198267.82047  21038957.813    21038963.342
  24026832.429    14370938.34249  11188108.22145  24026832.570    24026841.243
  22559050.998   -12016674.52049  -9348932.34146  22559050.834    22559057.120
  21094306.605     1245735.26449    969346.53347  21094306.136    21094312.212
  23381154.327   -11966875.39349  -9068474.63745  23381154.134    23381161.255
  20405889.568    -3467373.53049  -2698111.40848  20405889.217    20405893.486
  20371476.503    -6606763.57249  -5144146.88448  20371475.911    20371481.576
 03  3 25  0 12  0.0000000  0  9G16G26G23G 6G 3G17G14G18G15
  24263200.715     5047483.42849   3873592.61145  24263200.476    24263208.168
  23500497.675     8461277.71049   6589623.16245  23500497.843    23500504.251
  21046114.105     1574669.46949   1227569.88847  21046113.679    21046119.215
  24047830.152    14481282.22849  11274090.31845  24047830.343    24047839.049
  22546095.413   -12084756.87449  -9401983.49246  22546095.223    22546101.442
  21100011.446     1275714.12149    992706.67247  21100010.936    21100016.998
  23360332.751   -12076293.36549  -9153735.27745  23360332.538    23360339.610
  20408255.364    -3454941.10249  -2688423.79448  20408255.019    20408259.291
  20367694.157    -6626639.99149  -5159634.98948  20367693.549    20367699.226
 03  3 25  0 12 30.0000000  0  9G16G26G23G 6G 3G17G14G18G15
  24275542.240     5112338.70049   3924129.10745  24275542.062    24275549.811
  23518675.301     8556801.17549   6664056.99545  23518675.500    23518681.729
  21053312.776     1612498.61849   1257047.14647  21053312.325    21053317.872
  24068847.512    14591728.47649  11360152.18245  24068847.604    24068856.480
  22533219.154   -12152421.84549  -9454709.41046  22533218.947    22533225.197
  21105768.576     1305967.98949   1016281.10547  21105768.071    21105774.059
  23339539.503   -12185562.78049  -9238880.16345  23339539.203    23339546.180
  20410685.264    -3442171.95549  -2678473.79948  20410684.907    20410689.167
  20363964.320    -6646240.33549  -5174907.97448  20363963.721    20363969.400
 03  3 25  0 13  0.0000000  0  9G16G26G23G 6G 3G17G14G18G15
  24287923.594     5177403.08249   3974828.52645  24287923.531    24287931.216
  23536920.173     8652678.33649   6738766.44045  23536920.289    23536926.499
  21060553.930     1650551.14349   1286698.46547  21060553.492    21060559.007
  24089883.962    14702274.94549  11446292.15145  24089884.001    24089892.931
  22520422.690   -12219666.92049  -9507108.12546  22520422.506    22520428.825
  21111578.212     1336497.76549   1040070.53447  21111577.689    21111583.658
  23318775.100   -12294680.57949  -9323906.90945  23318774.698    23318781.617
  20413179.039    -3429067.01849  -2668262.14748  20413178.690    20413182.946
  20360287.258    -6665563.45149  -5189964.93248  20360286.657    20360292.320
 03  3 25  0 13 30.0000000  0  9G16G26G23G 6G 3G17G14G18G15
  24300344.204     5242673.35449   4025688.39945  24300343.992    24300351.701
  23555231.661     8748905.96649   6813748.96845  23555231.812    23555238.083
  21067837.318     1688825.56549   1316522.68447  21067836.890    21067842.386
  24110939.084    14812919.23549  11532508.32645  24110939.054    24110948.009
  22507706.736   -12286489.83649  -9559177.90846  22507706.559    22507712.769
  21117440.556     1367304.47549   1064075.74847  21117440.040    21117445.949
  23298039.927   -12403644.22649  -9408813.55045  23298039.543    23298046.378
  20415736.467    -3415627.58349  -2657789.85948  20415736.120    20415740.387
  20356663.152    -6684608.23149  -5204805.01148  20356662.556    20356668.203
 03  3 25  0 14  0.0000000  0  9G16G26G23G 6G 3G17G14G18G15
  24312803.262     5308145.96349   4076705.92445  24312802.977    24312810.851
  23573609.155     8845480.47749   6889001.78145  23573609.320    23573615.630
  21075162.470     1727319.43549   1346517.90747  21075162.029    21075167.550
  24132012.304    14923658.31849  11618798.36145  24132012.155    24132021.069
  22495071.353   -12352889.29149  -9610917.70946  22495071.146    22495077.328
  21123355.518     1398387.63849   1088296.38747  21123355.006    21123360.890
  23277334.454   -12512451.58149  -9493598.41145  23277334.117    23277340.884
  20418357.211    -3401855.49749  -2647058.35648  20418356.856    20418361.108
  20353092.105    -6703374.14149  -5219427.78648  20353091.508    20353097.173
 03  3 25  0 14 30.0000000  0  9G16G26G23G 6G 3G17G14G18G15
  24325300.664     5373819.33249   4127879.88645  24325300.265    24325308.219
  23592052.458     8942400.04149   6964523.49345  23592052.601    23592058.800
  21082529.319     1766032.48449   1376683.91547  21082528.869    21082534.384
  24153103.384    15034491.06949  11705161.38345  24153103.264    24153111.983
  22482517.164   -12418861.51449  -9662324.60746  22482516.948    22482523.205
  21129323.414     1429748.90549   1112733.73447  21129322.884    21129328.781
  23256659.572   -12621098.56049  -9578258.30846  23256659.190    23256665.959
  20421041.234    -3387750.82249  -2636067.69148  20421040.868    20421045.133
  20349574.569    -6721858.88949  -5233831.47448  20349573.973    20349579.621
 03  3 25  0 15  0.0000000  0  9G16G26G23G 6G 3G17G14G18G15
  24337835.318     5439688.95749   4179206.77845  24337835.007    24337842.908
  23610560.538     9039660.26449   7040310.64645  23610560.669    23610566.757
  21089937.289     1804961.80249   1407018.44847  21089936.880    21089942.371
  24174211.541    15145413.68249  11791594.45145  24174211.212    24174220.035
  22470044.399   -12484405.99649  -9713398.20446  22470044.212    22470050.534
  21135344.039     1461387.85649   1137387.45747  21135343.526    21135349.493
  23236015.472   -12729583.83049  -9662792.20846  23236015.122    23236021.843
  20423788.001    -3373316.27349  -2624819.98848  20423787.676    20423791.919
  20346110.454    -6740062.79949  -5248016.33548  20346109.851    20346115.527
 03  3 25  0 15 30.0000000  0  9G16G26G23G 6G 3G17G14G18G15
  24350406.934     5505753.41149   4230685.47845  24350406.614    24350414.590
  23629133.188     9137259.88849   7116362.26345  23629133.362    23629139.320
  21097386.542     1844107.63049   1437521.68947  21097386.104    21097391.624
  24195336.562    15256425.55249  11878097.05745  24195336.207    24195345.023
  22457653.819   -12549518.71549  -9764135.35846  22457653.660    22457659.974
  21141417.947     1493306.54649   1162259.15947  21141417.451    21141423.419
  23215403.010   -12837902.95649  -9747196.65146  23215402.661    23215409.310
  20426597.750    -3358551.19049  -2613314.72048  20426597.411    20426601.644
  20342700.355    -6757983.03149  -5261980.14348  20342699.762    20342705.414
 03  3 25  0 16  0.0000000  0  9G16G26G23G 6G 3G17G14G18G15
  24363015.285     5572009.16849   4282313.24945  24363014.806    24363022.768
  23647769.598     9235195.04049   7192675.33245  23647769.770    23647775.880
  21104876.457     1883467.47949   1468191.70047  21104876.038    21104881.539
  24216477.848    15367523.53649  11964666.76945  24216477.452    24216486.431
  22445345.811   -12614198.16649  -9814534.90846  22445345.621    22445351.824
  21147545.143     1525505.07349   1187348.91547  21147544.649    21147550.627
  23194822.591   -12946053.81249  -9831469.97746  23194822.139    23194828.793
  20429469.933    -3343457.77449  -2601553.61548  20429469.583    20429473.797
  20339344.284    -6775619.26149  -5275722.65048  20339343.705    20339349.329
 03  3 25  0 16 30.0000000  0  9G16G26G23G 6G 3G17G14G18G15
  24375659.245     5638452.42349   4334087.10045  24375658.722    24375666.638
  23666469.171     9333462.02649   7269246.97345  23666469.294    23666475.447
  21112406.673     1923039.09549   1499026.73047  21112406.255    21112411.745
  24237635.044    15478704.48949  12051301.14845  24237634.664    24237643.702
  22433120.412   -12678442.96449  -9864595.75646  22433120.234    22433126.397
  21153725.617     1557983.49949   1212656.77547  21153725.131    21153731.066
  23174274.552   -13054034.50649  -9915610.71346  23174274.044    23174280.639
  20432404.225    -3328038.06749  -2589538.25148  20432403.881    20432408.062
  20336042.403    -6792970.93049  -5289243.41948  20336041.801    20336047.387
 03  3 25  0 17  0.0000000  0  9G16G26G23G 6G 3G17G14G18G15
  24388338.250     5705080.93649   4386005.31745  24388337.905    24388345.728
  23685231.634     9432058.66949   7346075.48845  23685231.725    23685237.959
  21119977.132     1962821.88949   1530026.30647  21119976.684    21119982.188
  24258807.572    15589966.92449  12137998.98745  24258807.346    24258816.410
  22420978.238   -12742250.29949  -9914315.73746  22420978.040    22420984.194
  21159959.588     1590742.98749   1238183.64147  21159959.095    21159965.021
  23153759.524   -13161841.41849  -9999616.03846  23153759.037    23153765.563
  20435400.518    -3312292.43649  -2577268.92748  20435400.157    20435404.375
  20332795.012    -6810036.11849  -5302540.96248  20332794.409    20332799.959
 03  3 25  0 17 30.0000000  0  9G16G26G23G 6G 3G17G14G18G15
  24401051.550     5771890.64449   4438064.73645  24401051.413    24401059.343
  23704055.835     9530980.61349   7423157.46845  23704056.013    23704062.243
  21127587.138     2002812.95149   1561188.16847  21127586.706    21127592.215
  24279994.736    15701307.16649  12224757.46445  24279994.639    24280003.997
  22408919.469   -12805619.40049  -9963694.22646  22408919.268    22408925.420
  21166246.891     1623782.96449   1263929.08047  21166246.392    21166252.386
  23133277.866   -13269472.82449 -10083484.59846  23133277.436    23133283.912
  20438458.361    -3296223.23749  -2564747.47248  20438458.020    20438462.209
  20329602.093    -6826814.99549  -5315615.40548  20329601.480    20329607.043
 03  3 25  0 18  0.0000000  0  9G16G26G23G 6G 3G17G14G18G15
  24413799.276     5838880.46849   4490264.48845  24413799.208    24413807.142
  23722941.716     9630226.60049   7500491.97345  23722941.839    23722948.052
  21135236.839     2043012.41849   1592512.42847  21135236.410    21135241.934
  24301196.729    15812724.46249  12311575.98545  24301196.651    24301206.072
  22396944.854   -12868546.30749 -10012728.15046  22396944.657    22396950.825
  21172588.018     1657105.91049   1289895.01147  21172587.513    21172593.546
  23112830.435   -13376924.31449 -10167212.97646  23112830.081    23112836.548
  20441577.929    -3279830.13649  -2551973.61748  20441577.550    20441581.735
  20326464.156    -6843304.94949  -5328464.71348  20326463.552    20326469.142
 03  3 25  0 18 30.0000000  0  9G16G26G23G 6G 3G17G14G18G15
  24426580.688     5906046.61949   4542601.64245  24426580.540    24426588.559
  23741888.631     9729793.06549   7578076.20745  23741888.743    23741894.970
  21142925.856     2083418.19049   1623997.44547  21142925.417    21142930.928
  24322412.882    15924216.06349  12398452.41545  24322412.924    24322422.209
  22385054.769   -12931029.28949 -10061416.14846  22385054.529    22385060.752
  21178983.156     1690712.27849   1316081.78747  21178982.645    21178988.665
  23092417.578   -13484193.88049 -10250799.58446  23092417.262    23092423.746
  20444758.693    -3263114.87649  -2538948.73448  20444758.348    20444762.535
  20323381.293    -6859505.39449  -5341088.42848  20323380.696    20323386.272
 03  3 25  0 19  0.0000000  0  9G16G26G23G 6G 3G17G14G18G15
  24439395.008     5973385.22749   4595073.16145  24439394.789    24439402.840
  23760895.649     9829675.88049   7655906.94345  23760895.764    23760902.130
  21150653.604     2124027.84849   1655641.32747  21150653.168    21150658.695
  24343642.586    16035778.57649  12485384.09145  24343642.677    24343652.073
  22373249.278   -12993067.31549 -10109757.44046  22373249.062    22373255.271
  21185432.022     1724601.30649   1342488.81647  21185431.531    21185437.528
  23072039.832   -13591279.66049 -10334242.99746  23072039.489    23072045.939
  20448000.349    -3246079.75049  -2525674.60748  20448000.014    20448004.198
  20320353.599    -6875415.91849  -5353486.23348  20320353.022    20320358.648
 03  3 25  0 19 30.0000000  0  9G16G26G23G 6G 3G17G14G18G15
  24452241.785     6040894.17749   4647677.41245  24452241.485    24452249.507
  23779962.601     9929873.17449   7733982.71145  23779962.845    23779969.234
  21158420.026     2164840.66049   1687443.51347  21158419.571    21158425.082
  24364885.511    16147410.48949  12572369.84745  24364885.610    24364895.068
  22361529.065   -13054657.40449 -10157749.68446  22361528.836    22361535.018
  21191934.970     1758774.38849   1369117.18847  21191934.439    21191940.468
  23051697.739   -13698178.02949 -10417540.36446  23051697.332    23051703.768
  20451302.771    -3228725.28149  -2512151.64048  20451302.448    20451306.606
  20317381.488    -6891034.42149  -5365656.49048  20317380.920    20317386.544
 03  3 25  0 20  0.0000000  0  9G16G26G23G 6G 3G17G14G18G15
  24465120.134     6108569.83249   4700411.57145  24465119.830    24465127.913
  23799088.575    10030381.11749   7812300.54445  23799088.764    23799095.281
  21166224.672     2205854.39149   1719402.26447  21166224.238    21166229.747
  24386141.137    16259108.78449  12659407.33345  24386141.096    24386150.481
  22349894.382   -13115798.13849 -10205391.78446  22349894.150    22349900.303
  21198491.902     1793231.51349   1395966.89047  21198491.380    21198497.429
  23031391.724   -13804886.94449 -10500690.10646  23031391.259    23031397.668
  20454665.688    -3211053.19249  -2498381.17748  20454665.350    20454669.483
  20314464.987    -6906360.70349  -5377599.03948  20314464.399    20314470.032
 03  3 25  0 20 30.0000000  0  9G16G26G23G 6G 3G17G14G18G15
  24478029.478     6176408.83849   4753273.02645  24478029.174    24478037.338
  23818273.042    10131196.36849   7890857.83645  23818273.342    23818279.688
  21174067.230     2247067.22249   1751516.15347  21174066.779    21174072.320
  24407408.890    16370870.76649  12746494.43745  24407408.782    24407418.143
  22338345.450   -13176487.84949 -10252682.43046  22338345.246    22338351.427
  21205102.999     1827973.03349   1423038.19347  21205102.473    21205108.514
  23011122.227   -13911403.76849 -10583690.14746  23011121.752    23011128.134
  20458088.678    -3193065.08849  -2484364.47048  20458088.340    20458092.500
  20311604.241    -6921393.96349  -5389313.25748  20311603.649    20311609.277
 03  3 25  0 21  0.0000000  0  9G16G26G23G 6G 3G17G14G18G15
  24490969.546     6244409.74449   4806260.61045  24490969.365    24490977.529
  23837515.802    10232317.47149   7969653.46645  23837515.951    23837522.396
  21181947.654     2288479.32449   1783785.31547  21181947.233    21181952.724
  24428688.742    16482695.59649  12833630.51045  24428688.500    24428697.745
  22326883.047   -13236722.75149 -10299618.68546  22326882.871    22326889.096
  21211768.606     1863001.18249   1450332.83547  21211768.098    21211774.098
  22990889.975   -14017724.21549 -10666537.19746  22990889.588    22990895.942
  20461571.908    -3174760.67049  -2470101.29048  20461571.559    20461575.696
  20308799.819    -6936131.37949  -5400796.95648  20308799.231    20308804.855
 03  3 25  0 21 30.0000000  0  9G16G26G23G 6G 3G17G14G18G15
  24503939.844     6312568.00549   4859370.81145  24503939.625    24503947.643
  23856815.867    10333739.56749   8048683.63645  23856816.060    23856822.390
  21189865.436     2330087.38149   1816207.17247  21189865.012    21189870.491
  24449979.733    16594579.12149  12920812.34145  24449979.441    24449988.574
  22315507.261   -13296502.75149 -10346200.47047  22315507.116    22315513.326
  21218488.629     1898314.96949   1477850.05947  21218488.096    21218494.116
  22970695.316   -14123847.50449 -10749230.59146  22970694.949    22970701.290
  20465114.704    -3156143.05149  -2455594.05148  20465114.366    20465118.512
  20306051.526    -6950573.68249  -5412050.69148  20306050.943    20306056.562
 03  3 25  0 22  0.0000000  0 10G16G31G26G23G 6G 3G17G14G18G15
  24516938.913     6380877.63549   4912598.97645  24516938.607    24516946.683
  24406829.191    -2756643.05549  -1914970.33445  24406828.844    24406836.572
  23876172.053    10435456.87549   8127943.82945  23876172.309    23876178.672
  21197819.689     2371887.16149   1848778.42347  21197819.255    21197824.735
  24471280.924    16706516.22149  13008035.88645  24471280.484    24471289.725
  22304217.999   -13355828.54549 -10392428.32147  22304217.821    22304223.936
  21225262.505     1933911.90149   1505587.91847  21225261.977    21225268.003
  22950538.203   -14229773.40549 -10831770.17446  22950537.884    22950544.196
  20468716.350    -3137216.32549  -2440845.95148  20468716.013    20468720.175
  20303359.067    -6964722.59549  -5423075.80948  20303358.487    20303364.100
 03  3 25  0 22 30.0000000  0 11G16G31G26G23G 6G 3G17G14G18G15G 9
  24529966.912     6449340.29649   4965946.36545  24529966.568    24529974.910
  24388810.633    -2851331.20149  -1988753.24145  24388810.318    24388817.835
  23895584.865    10537471.16249   8207435.43945  23895584.971    23895591.408
  21205810.922     2413881.52149   1881501.29347  21205810.483    21205815.967
  24492592.777    16818509.32049  13095303.07245  24492592.310    24492601.396
  22293016.385   -13414693.52049 -10438297.10247  22293016.176    22293022.239
  21232091.200     1969797.04249   1533550.34347  21232090.679    21232096.718
  22930420.104   -14335494.48349 -10914150.15446  22930419.771    22930426.096
  20472377.452    -3117977.18749  -2425854.41648  20472377.108    20472381.257
  20300723.598    -6978572.24949  -5433867.74148  20300723.002    20300728.611
  24427356.667    -4364740.66649  -3385193.48245  24427356.443    24427364.922
 03  3 25  0 23  0.0000000  0 11G16G31G26G23G 6G 3G17G14G18G15G 9
  24543023.581     6517953.13949   5019410.79445  24543023.378    24543031.559
  24370843.265    -2945750.22049  -2062326.43745  24370842.926    24370850.209
  23915053.453    10639779.00049   8287155.79345  23915053.603    23915060.055
  21213838.951     2456068.98249   1914374.63247  21213838.515    21213843.999
  24513914.696    16930555.75649  13182611.81645  24513914.280    24513923.340
  22281902.710   -13473095.83549 -10483805.36847  22281902.540    22281908.630
  21238974.885     2005971.29949   1561738.06447  21238974.384    21238980.483
  22910341.454   -14441008.30249 -10996368.63646  22910341.121    22910347.437
  20476097.749    -3098426.76749  -2410620.32148  20476097.413    20476101.549
  20298145.261    -6992121.63349  -5444425.69648  20298144.667    20298150.241
  24415153.874    -4428866.05449  -3435161.20545  24415153.651    24415162.049
 03  3 25  0 23 30.0000000  0 11G16G31G26G23G 6G 3G17G14G18G15G 9
  24556108.125     6586712.54249   5072989.42145  24556108.040    24556116.247
  24352927.551    -3039897.96149  -2135688.24945  24352927.239    24352934.273
  23934577.235    10742377.11449   8367102.33145  23934577.377    23934583.904
  21221903.384     2498447.67449   1947396.98347  21221902.932    21221908.435
  24535246.155    17042652.74049  13269959.94945  24535245.723    24535254.930
  22270877.443   -13531033.76949 -10528951.77447  22270877.283    22270883.372
  21245913.681     2042434.80649   1590151.16947  21245913.171    21245919.300
  22890302.649   -14546312.43749 -11078423.70946  22890302.354    22890308.688
  20479876.995    -3078566.78049  -2395145.00648  20479876.656    20479880.813
  20295624.206    -7005369.83149  -5454748.95948  20295623.602    20295629.185
  24403000.915    -4492730.21749  -3484925.37545  24403000.644    24403009.063
 03  3 25  0 24  0.0000000  0 10G16G31G26G23G 3G17G14G18G15G 9
  24569220.106     6655616.98249   5126681.06645  24569220.012    24569228.385
  24335064.159    -3133770.18149  -2208835.36145  24335063.837    24335070.924
  23954155.973    10845263.90249   8447273.81345  23954156.152    23954162.624
  21230004.151     2541017.48349   1980568.25347  21230003.714    21230009.226
  22259941.221   -13588503.83549 -10573733.61247  22259941.064    22259947.099
  21252907.888     2079189.45149   1618791.13547  21252907.378    21252913.472
  22870304.533   -14651402.57249 -11160312.02746  22870304.238    22870310.664
  20483715.178    -3058397.05849  -2379428.33848  20483714.810    20483718.963
  20293160.947    -7018314.26949  -5464835.52948  20293160.338    20293165.920
  24390898.585    -4556328.60749  -3534482.46145  24390898.362    24390906.608
 03  3 25  0 24 30.0000000  0 10G16G31G26G23G 3G17G14G18G15G 9
  24582358.884     6724660.92949   5180481.39645  24582358.797    24582367.050
  24317253.109    -3227367.05149  -2281767.92645  24317252.717    24317259.928
  23973788.574    10948433.77449   8527665.88245  23973788.731    23973795.269
  21238140.484     2583774.29049   2013885.23647  21238140.052    21238145.529
  22249093.882   -13645506.88549 -10618151.55047  22249093.713    22249099.794
  21259957.089     2116233.06249   1647656.26347  21259956.578    21259962.609
  22850347.096   -14756278.93849 -11242033.78546  22850346.914    22850353.307
  20487611.453    -3037921.86349  -2363473.64448  20487611.122    20487615.271
  20290755.147    -7030956.75549  -5474686.81448  20290754.533    20290760.097
  24378846.829    -4619661.03748  -3583832.30245  24378846.646    24378854.794
 03  3 25  0 25  0.0000000  0 10G16G31G26G23G 3G17G14G18G15G 9
  24595523.737     6793841.09349   5234387.88345  24595523.463    24595531.805
  24299494.806    -3320686.07549  -2354483.98445  24299494.361    24299501.779
  23993474.496    11051883.43749   8608275.98545  23993474.613    23993481.066
  21246312.097     2626716.32749   2047346.56047  21246311.654    21246317.139
  22238335.857   -13702041.06849 -10662204.13447  22238335.671    22238341.739
  21267061.322     2153566.11749   1676746.93847  21267060.820    21267066.803
  22830430.886   -14860939.05349 -11323587.02546  22830430.722    22830437.051
  20491565.671    -3017142.39149  -2347281.84248  20491565.315    20491569.444
  20288407.005    -7043296.22449  -5484301.97948  20288406.399    20288411.942
  24366845.932    -4682724.37249  -3632972.46645  24366845.785    24366854.261
 03  3 25  0 25 30.0000000  0 10G16G31G26G23G 3G17G14G18G15G 9
  24608713.871     6863155.53849   5288399.02245  24608713.612    24608722.110
  24281790.130    -3413723.72049  -2426980.76845  24281789.747    24281797.315
  24013213.146    11155610.68649   8689102.36445  24013213.299    24013219.731
  21254518.860     2669843.12149   2080951.84747  21254518.413    21254523.926
  22227667.481   -13758103.89449 -10705889.43047  22227667.286    22227673.270
  21274220.852     2191189.55549   1706063.87847  21274220.354    21274226.341
  22810556.636   -14965379.10849 -11404968.78846  22810556.400    22810562.703
  20495577.683    -2996059.03149  -2330853.25348  20495577.347    20495581.501
  20286116.941    -7055330.65149  -5493679.45148  20286116.334    20286121.863
  24354897.333    -4745514.40349  -3681899.67445  24354897.166    24354905.598
 03  3 25  0 26  0.0000000  0 10G16G31G26G23G 3G17G14G18G15G 9
  24621928.909     6932600.25749   5342511.64645  24621928.503    24621936.995
  24264139.577    -3506478.07849  -2499256.81745  24264139.176    24264146.781
  24033003.925    11259611.80349   8770142.17245  24033004.078    24033010.488
  21262760.322     2713152.32149   2114699.27347  21262759.897    21262765.392
  22217089.010   -13813693.95849 -10749206.33847  22217088.810    22217094.798
  21281435.738     2229103.85449   1735607.46747  21281435.249    21281441.233
  22790724.524   -15069597.22249 -11486177.60546  22790724.250    22790730.536
  20499647.137    -2974674.06249  -2314189.63448  20499646.790    20499650.933
  20283884.951    -7067059.87149  -5502819.09348  20283884.359    20283889.868
  24343001.245    -4808028.90949  -3730612.15145  24343001.081    24343009.393
 03  3 25  0 26 30.0000000  0 10G16G31G26G23G 3G17G14G18G15G 9
  24635168.493     7002173.19749   5396724.18245  24635168.098    24635176.258
  24246543.725    -3598945.57649  -2571309.33045  24246543.288    24246550.894
  24052846.344    11363884.63049   8851393.68945  24052846.560    24052852.988
  21271036.429     2756643.44349   2148588.45747  21271035.988    21271041.456
  22206600.987   -13868808.48349 -10792152.69247  22206600.780    22206606.874
  21288706.205     2267310.39349   1765378.77947  21288705.706    21288711.702
  22770935.394   -15173589.54849 -11567210.49146  22770935.100    22770941.343
  20503773.913    -2952987.75649  -2297291.21148  20503773.563    20503777.685
  20281711.471    -7078481.60449  -5511719.14048  20281710.884    20281716.382
  24331158.046    -4870263.58449  -3779106.62045  24331157.880    24331166.399
 03  3 25  0 27  0.0000000  0 10G16G31G26G23G 3G17G14G18G15G 9
  24648431.720     7071871.26649   5451034.22745  24648431.226    24648439.503
  24229002.684    -3691123.91049  -2643136.53245  24229002.101    24229009.795
  24072739.911    11468425.90949   8932854.39845  24072739.999    24072746.464
  21279346.785     2800314.66149   2182617.97947  21279346.345    21279351.842
  22196203.871   -13923445.73849 -10834727.15747  22196203.678    22196209.727
  21296032.371     2305809.32949   1795377.93147  21296031.854    21296037.874
  22751189.570   -15277353.95149 -11648065.77446  22751189.290    22751195.532
  20507957.704    -2931001.91149  -2280159.38048  20507957.337    20507961.487
  20279596.662    -7089595.12949  -5520379.02748  20279596.068    20279601.550
  24319369.016    -4932215.60049  -3827380.81745  24319368.791    24319377.184
 03  3 25  0 27 30.0000000  0 10G16G31G26G23G 3G17G14G18G15G 9
  24661718.105     7141691.82349   5505439.72945  24661717.588    24661726.155
  24211517.433    -3783009.80649  -2714735.86745  24211516.836    24211524.242
  24092684.028    11573233.00549   9014522.22745  24092684.092    24092690.625
  21287691.261     2844165.18449   2216787.21947  21287690.828    21287696.330
  22185897.987   -13977603.60549 -10876928.07247  22185897.763    22185903.767
  21303414.318     2344601.62349   1825605.67947  21303413.803    21303419.813
  22731487.772   -15380887.02549 -11728740.79946  22731487.489    22731493.689
  20512198.311    -2908717.09349  -2262794.58348  20512197.981    20512202.135
  20277540.721    -7100398.99449  -5528797.61148  20277540.111    20277545.608
  24307634.482    -4993881.32949  -3875431.92045  24307634.246    24307642.396
 03  3 25  0 28  0.0000000  0 10G16G31G26G23G 3G17G14G18G15G 9
  24675026.796     7211629.77649   5559936.70945  24675026.285    24675035.086
  24194087.720    -3874602.93649  -2786107.06145  24194087.222    24194094.702
  24112677.859    11678300.74949   9096393.17445  24112677.891    24112684.329
  21296069.165     2888191.27949   2251093.26447  21296068.738    21296074.221
  22175683.213   -14031282.07549 -10918755.43147  22175683.024    22175689.044
  21310851.866     2383686.07549   1856061.07647  21310851.345    21310857.357
  22711830.186   -15484188.41549 -11809235.29346  22711829.838    22711836.015
  20516495.282    -2886136.62349  -2245199.40448  20516494.936    20516499.040
  20275543.567    -7110894.05049  -5536975.57448  20275542.964    20275548.479
  24295954.355    -5055259.78249  -3923259.17645  24295954.121    24295962.399
 03  3 25  0 28 30.0000000  0 10G16G31G26G23G 3G17G14G18G15G 9
  24688357.660     7281683.16749   5614523.65345  24688357.225    24688365.757
  24176714.516    -3965899.73949  -2857247.37545  24176714.029    24176721.416
  24132720.788    11783627.10649   9178465.61845  24132720.895    24132727.312
  21304480.363     2932392.34649   2285535.65747  21304479.915    21304485.351
  22165560.172   -14084478.80449 -10960207.40647  22165560.002    22165565.989
  21318345.196     2423063.78049   1886744.98847  21318344.687    21318350.734
  22692217.399   -15587254.22349 -11889546.21646  22692217.015    22692223.194
  20520848.308    -2863261.12449  -2227374.34048  20520847.953    20520852.106
  20273605.588    -7121078.26149  -5544911.31448  20273604.985    20273610.487
  24284329.874    -5116346.88949  -3970859.39845  24284329.678    24284337.865
 03  3 25  0 29  0.0000000  0  9G31G26G23G 3G17G14G18G15G 9
  24159399.533    -4056890.13949  -2928148.93045  24159399.047    24159406.537
  24152813.784    11889216.44349   9260742.98945  24152813.935    24152820.425
  21312925.964     2976774.28749   2320118.98847  21312925.509    21312930.952
  22155530.686   -14137184.22649 -11001276.54647  22155530.495    22155536.439
  21325895.826     2462742.56449   1917663.49847  21325895.300    21325901.380
  22672651.250   -15690074.53949 -11969665.85346  22672650.871    22672657.072
  20525258.692    -2840084.36449  -2209314.52448  20525258.379    20525262.512
  20271728.323    -7130943.24249  -5552598.30748  20271727.715    20271733.204
  24272762.572    -5177132.32549  -4018224.57045  24272762.447    24272770.684
 03  3 25  0 29 30.0000000  0  9G31G26G23G 3G17G14G18G15G 9
  24142141.305    -4147582.45149  -2998818.20345  24142140.824    24142148.363
  24172954.212    11995054.81649   9343214.42445  24172954.382    24172960.855
  21321403.648     3021324.84749   2354833.70847  21321403.210    21321408.659
  22145592.944   -14189407.42749 -11041969.93047  22145592.735    22145598.656
  21333501.718     2502711.86149   1948808.39347  21333501.204    21333507.285
  22653130.184   -15792657.76649 -12049600.74346  22653129.844    22653136.007
  20529724.118    -2816618.74349  -2191029.62048  20529723.758    20529727.862
  20269909.932    -7140498.75949  -5560044.15848  20269909.354    20269914.832
  24261251.369    -5237624.01749  -4065360.84645  24261251.325    24261259.317
 03  3 25  0 30  0.0000000  0  9G31G26G23G 3G17G14G18G15G 9
  24124940.850    -4237970.35549  -3069250.28545  24124940.351    24124948.011
  24193142.047    12101142.60249   9425880.19845  24193142.226    24193148.765
  21329913.835     3066046.08549   2389681.42747  21329913.408    21329918.869
  22135747.910   -14241143.05949 -11082283.38947  22135747.721    22135753.665
  21341163.747     2542975.86349   1980182.92847  21341163.220    21341169.258
  22633655.573   -15894997.31149 -12129345.75646  22633655.207    22633661.357
  20534244.795    -2792862.04449  -2172517.90648  20534244.458    20534248.606
  20268151.347    -7149740.11849  -5567245.20848  20268150.761    20268156.231
  24249797.610    -5297814.85949  -4112262.68945  24249797.455    24249805.233
 03  3 25  0 30 30.0000000  0  9G31G26G23G 3G17G14G18G15G 9
  24107798.957    -4328051.57449  -3139443.38745  24107798.538    24107806.166
  24213376.826    12207476.79249   9508737.98145  24213377.078    24213383.505
  21338456.121     3110936.28449   2424660.80147  21338455.685    21338461.178
  22125995.960   -14292389.85549 -11122215.93247  22125995.782    22126001.701
  21348881.964     2583535.00649   2011787.44047  21348881.447    21348887.400
  22614227.700   -15997090.97549 -12208899.17046  22614227.316    22614233.439
  20538820.740    -2768815.50549  -2153780.33848  20538820.410    20538824.524
  20266452.773    -7158666.25349  -5574200.62848  20266452.187    20266457.637
  24238401.139    -5357702.14049  -4158928.01745  24238401.045    24238409.119
 03  3 25  0 31  0.0000000  0  9G31G26G23G 3G17G14G18G15G 9
  24090716.102    -4417823.31049  -3209395.34645  24090715.565    24090723.070
  24233658.022    12314054.51949   9591785.54245  24233658.237    24233664.511
  21347030.338     3155994.17049   2459770.83647  21347029.929    21347035.394
  22116337.424   -14343145.97649 -11161766.14047  22116337.258    22116343.094
  21356656.426     2624389.94049   2043622.43447  21356655.895    21356661.828
  22594847.137   -16098935.86649 -12288258.74546  22594846.803    22594852.943
  20543451.578    -2744480.37549  -2134817.89748  20543451.215    20543455.340
  20264814.423    -7167275.89649  -5580909.43648  20264813.831    20264819.276
  24227063.310    -5417282.60149  -4205354.26345  24227063.233    24227071.252
 03  3 25  0 31 30.0000000  0  9G31G26G23G 3G17G14G18G15G 9
  24073692.508    -4507283.28549  -3279104.38645  24073692.030    24073699.343
  24253984.841    12420872.19249   9675020.05745  24253985.006    24253991.150
  21355636.190     3201218.01349   2495010.18547  21355635.751    21355641.257
  22106772.575   -14393409.86649 -11200932.78747  22106772.390    22106778.154
  21364487.128     2665540.79849   2075688.02947  21364486.594    21364492.613
  22575514.385   -16200529.50149 -12367422.52046  22575514.087    22575520.227
  20548136.959    -2719858.35349  -2115631.90148  20548136.621    20548140.737
  20263236.385    -7175568.49149  -5587371.19148  20263235.784    20263241.261
  24215784.375    -5476553.48749  -4251539.27745  24215784.362    24215792.123
 03  3 25  0 32  0.0000000  0  9G31G26G23G 3G17G14G18G15G 9
  24056728.833    -4596427.44549  -3348567.30945  24056728.424    24056735.685
  24274357.009    12527928.43849   9758440.48045  24274357.192    24274363.432
  21364273.559     3246607.80849   2530378.84147  21364273.141    21364278.653
  22097301.875   -14443178.35549 -11239713.40547  22097301.687    22097307.550
  21372374.507     2706989.56349   2107985.75147  21372374.003    21372380.100
  22556230.299   -16301867.97749 -12446387.47646  22556229.947    22556236.084
  20552876.996    -2694949.48549  -2096222.38948  20552876.659    20552880.756
  20261719.137    -7183541.63049  -5593584.02048  20261718.534    20261724.029
  24204565.069    -5535510.18449  -4297479.49845  24204565.088    24204572.914
 03  3 25  0 32 30.0000000  0  9G31G26G23G 3G17G14G18G15G 9
  24039825.598    -4685254.47649  -3417783.11145  24039825.196    24039832.523
  24294773.532    12635218.97449   9842043.45045  24294773.818    24294780.273
  21372941.998     3292160.76149   2565874.63747  21372941.580    21372947.040
  22087925.526   -14492451.10049 -11278107.73647  22087925.358    22087931.280
  21380318.537     2748735.22649   2140514.82047  21380318.024    21380324.115
  22536995.074   -16402949.79349 -12525152.44446  22536994.663    22537000.728
  20557671.133    -2669756.02749  -2076591.12348  20557670.801    20557674.891
  20260262.664    -7191195.31049  -5599547.92148  20260262.062    20260267.574
  24193406.128    -5594150.97049  -4343173.53045  24193405.935    24193413.830
 03  3 25  0 33  0.0000000  0  9G31G26G23G 3G17G14G18G15G 9
  24022983.533    -4773759.71849  -3486748.17245  24022983.175    24022990.464
  24315234.583    12742742.59649   9925828.04545  24315234.873    24315241.428
  21381641.669     3337877.56849   2601498.11247  21381641.228    21381646.700
  22078644.337   -14541224.13349 -11316112.68047  22078644.163    22078650.061
  21388319.351     2790779.95749   2173276.94147  21388318.845    21388324.971
  22517809.572   -16503770.15149 -12603713.67646  22517809.135    22517815.163
  20562519.539    -2644277.55449  -2056737.76248  20562519.194    20562523.292
  20258867.579    -7198526.55049  -5605260.57048  20258866.988    20258872.491
  24182308.133    -5652470.66949  -4388617.36445  24182307.917    24182315.630
 03  3 25  0 33 30.0000000  0  9G31G26G23G 3G17G14G18G15G 9
  24006202.471    -4861944.13149  -3555463.22545  24006202.062    24006209.476
  24335738.868    12850493.06149  10009789.42944  24335739.009    24335745.365
  21390371.530     3383753.37849   2637245.47747  21390371.114    21390376.594
  22069457.921   -14589499.34749 -11353729.71647  22069457.692    22069463.567
  21396376.575     2833121.12849   2206270.04847  21396376.067    21396382.245
  22498673.627   -16604330.10149 -12682071.99446  22498673.192    22498679.152
  20567421.296    -2618518.79049  -2036665.99448  20567420.951    20567425.033
  20257533.413    -7205537.71549  -5610723.80948  20257532.812    20257538.318
  24171271.208    -5710469.90949  -4433811.46745  24171271.056    24171278.627
 03  3 25  0 34  0.0000000  0  9G31G26G23G 3G17G14G18G15G 9
  23989483.335    -4949803.36449  -3623924.88245  23989482.957    23989490.338
  24356285.902    12958468.85649  10093926.36744  24356286.153    24356292.513
  21399131.740     3429788.53449   2673117.01547  21399131.320    21399136.813
  22060366.724   -14637273.46449 -11390956.28347  22060366.526    22060372.397
  21404490.664     2875760.96549   2239495.88347  21404490.180    21404496.355
  22479588.021   -16704625.33549 -12760224.03546  22479587.586    22479593.562
  20572376.401    -2592479.34649  -2016375.51248  20572376.060    20572380.170
  20256260.654    -7212226.10049  -5615935.52848  20256260.083    20256265.594
  24160296.045    -5768144.12149  -4478752.34245  24160295.976    24160303.686
 03  3 25  0 34 30.0000000  0  9G31G26G23G 3G17G14G18G15G 9
  23972827.119    -5037332.39449  -3692129.25145  23972826.738    23972834.015
  24376875.878    13066669.56949  10178238.58844  24376876.069    24376882.283
  21407922.488     3475984.05249   2709113.50647  21407922.054    21407927.537
  22051371.726   -14684542.39949 -11427789.20547  22051371.543    22051377.420
  21412662.167     2918702.18049   2272956.54747  21412661.673    21412667.823
  22460553.718   -16804650.80649 -12838165.87846  22460553.283    22460559.235
  20577385.135    -2566158.21449  -1995865.54048  20577384.823    20577388.928
  20255050.028    -7218587.99949  -5620892.84948  20255049.441    20255054.950
  24149383.803    -5825487.60049  -4523435.47945  24149383.739    24149391.611
 03  3 25  0 35  0.0000000  0  9G31G26G23G 3G17G14G18G15G 9
  23956233.449    -5124531.76749  -3760076.73245  23956233.045    23956240.380
  24397507.429    13175089.14849  10262721.36444  24397507.348    24397514.115
  21416742.880     3522335.48949   2745231.49247  21416742.438    21416747.959
  22042472.557   -14731307.62549 -11464229.62747  22042472.384    22042478.274
  21420890.519     2961942.34549   2306650.16847  21420890.006    21420896.157
  22441570.679   -16904406.78649 -12915897.72246  22441570.274    22441576.247
  20582446.709    -2539559.58449  -1975139.33048  20582446.349    20582450.462
  20253901.150    -7224625.47249  -5625597.36748  20253900.556    20253906.078
  24138534.659    -5882500.37249  -4567860.91945  24138534.641    24138542.130
 03  3 25  0 35 30.0000000  0  9G31G26G23G 3G17G14G18G15G 9
  23939703.331    -5211397.93649  -3827764.58245  23939702.948    23939710.136
  24418180.265    13283725.26549  10347372.85144  24418180.256    24418187.038
  21425592.786     3568842.15549   2781470.44147  21425592.361    21425597.907
  22033669.781   -14777566.64949 -11500275.60347  22033669.598    22033675.457
  21429175.897     3005482.35149   2340577.43547  21429175.390    21429181.531
  22422639.592   -17003889.82849 -12993416.88846  22422639.190    22422645.146
  20587560.934    -2512684.05649  -1954197.35648  20587560.598    20587564.721
  20252814.328    -7230336.79749  -5630047.74448  20252813.719    20252819.240
  24127749.040    -5939178.61249  -4612025.65645  24127749.087    24127756.395
 03  3 25  0 36  0.0000000  0  8G31G23G 3G17G14G18G15G 9
  23923237.026    -5297929.00149  -3895191.31545  23923236.678    23923243.875
  21434471.915     3615502.07349   2817828.80547  21434471.474    21434476.968
  22024963.466   -14823318.61149 -11535926.46647  22024963.275    22024969.127
  21437518.385     3049322.60249   2374738.65147  21437517.885    21437524.072
  22403760.763   -17103098.13949 -13070721.99046  22403760.379    22403766.313
  20592727.533    -2485533.43449  -1933041.03248  20592727.182    20592731.313
  20251789.699    -7235721.19949  -5634243.38148  20251789.088    20251794.622
  24117027.476    -5995519.95749  -4655927.89745  24117027.570    24117035.067
 03  3 25  0 36 30.0000000  0  8G31G23G 3G17G14G18G15G 9
  23906835.168    -5384121.54749  -3962354.26545  23906834.793    23906841.864
  21443380.035     3662314.68049   2854306.15847  21443379.607    21443385.112
  22016354.082   -14868561.08549 -11571180.32147  22016353.935    22016359.762
  21445918.184     3093463.83149   2409134.40147  21445917.710    21445923.887
  22384934.938   -17202027.92249 -13147810.04246  22384934.622    22384940.499
  20597946.378    -2458108.20149  -1911670.72248  20597946.039    20597950.159
  20250827.622    -7240776.90549  -5638182.89048  20250827.024    20250832.557
  24106370.794    -6051520.32649  -4699564.46345  24106370.857    24106378.504
 03  3 25  0 37  0.0000000  0  8G31G23G 3G17G14G18G15G 9
  23890498.289    -5469972.03349  -4029250.68445  23890497.932    23890505.018
  21452317.146     3709279.52049   2890902.12747  21452316.710    21452322.278
  22007842.180   -14913291.46749 -11606035.14347  22007842.008    22007847.852
  21454375.608     3137907.70049   2443765.96647  21454375.105    21454381.332
  22366162.812   -17300675.69549 -13224678.36246  22366162.548    22366168.416
  20603217.403    -2430408.76649  -1890086.74948  20603217.060    20603221.172
  20249928.552    -7245501.68749  -5641864.54248  20249927.957    20249933.454
  24095779.887    -6107175.74849  -4742932.21245  24095779.829    24095787.477
 03  3 25  0 37 30.0000000  0  8G31G23G 3G17G14G18G15G 9
  23874226.489    -5555479.83249  -4095880.06145  23874226.188    23874233.300
  21461282.616     3756393.45749   2927614.28247  21461282.193    21461287.792
  21999427.632   -14957510.18249 -11640491.26647  21999427.444    21999433.316
  21462890.312     3182652.76649   2478632.23447  21462889.811    21462896.057
  22347444.556   -17399040.78949 -13301326.40646  22347444.226    22347450.087
  20608540.027    -2402438.16849  -1868291.48348  20608539.685    20608543.773
  20249092.250    -7249896.50149  -5645289.07348  20249091.646    20249097.158
  24085254.891    -6162485.35349  -4786030.47045  24085254.805    24085262.102
 03  3 25  0 38  0.0000000  0  8G31G23G 3G17G14G18G15G 9
  23858020.693    -5640641.24349  -4162239.54645  23858020.496    23858027.580
  21470276.437     3803656.11749   2964442.32547  21470275.997    21470281.588
  21991110.862   -15001214.69549 -11674546.70847  21991110.691    21991116.639
  21471462.490     3227700.04749   2513733.99547  21471461.996    21471468.257
  22328780.695   -17497119.68849 -13377751.44146  22328780.357    22328786.233
  20613914.165    -2374196.85149  -1846285.26748  20613913.844    20613917.927
  20248319.095    -7253959.38349  -5648454.95748  20248318.501    20248324.010
  24074796.325    -6217444.97449  -4828856.04545  24074796.206    24074803.663
 03  3 25  0 38 30.0000000  0  8G31G23G 3G17G14G18G15G 9
  23841881.555    -5725453.21849  -4228326.73245  23841881.239    23841888.275
  21479298.387     3851066.82449   3001385.73447  21479297.932    21479303.513
  21982892.449   -15044402.76049 -11708199.72547  21982892.290    21982898.231
  21480092.501     3273051.05549   2549072.42747  21480092.022    21480098.268
  22310171.895   -17594909.13749 -13453950.93446  22310171.590    22310177.456
  20619339.710    -2345685.50549  -1824068.63948  20619339.368    20619343.470
  20247609.430    -7257688.62149  -5651360.85748  20247608.842    20247614.352
  24064405.067    -6272051.08649  -4871406.15545  24064404.890    24064412.455
 03  3 25  0 39  0.0000000  0  8G31G23G 3G17G14G18G15G 9
  23825809.202    -5809914.81749  -4294140.92345  23825808.736    23825815.785
  21488347.946     3898622.56049   3038442.14947  21488347.487    21488353.086
  21974772.240   -15087074.77949 -11741450.63547  21974772.072    21974777.967
  21488780.107     3318704.44349   2584646.47747  21488779.597    21488785.852
  22291618.380   -17692408.09049 -13529924.07946  22291618.134    22291623.958
  20624816.069    -2316907.00849  -1801643.84148  20624815.737    20624819.842
  20246963.184    -7261084.66949  -5654007.13148  20246962.599    20246968.119
  24054081.284    -6326302.33049  -4913679.76645  24054081.077    24054088.862
 03  3 25  0 39 30.0000000  0  8G31G23G 3G17G14G18G15G 9
  23809803.890    -5894022.70649  -4359679.47645  23809803.536    23809810.503
  21497425.020     3946322.89649   3075611.24447  21497424.593    21497430.166
  21966750.725   -15129228.15049 -11774297.39147  21966750.565    21966756.458
  21497525.472     3364661.55249   2620457.19447  21497524.983    21497531.215
  22273120.866   -17789613.19249 -13605668.23346  22273120.570    22273126.339
  20630343.183    -2287861.87849  -1779011.27648  20630342.841    20630346.939
  20246380.679    -7264145.74649  -5656392.38448  20246380.083    20246385.602
  24043825.693    -6380195.11249  -4955674.03345  24043825.556    24043833.226
 03  3 25  0 40  0.0000000  0  8G31G23G 3G17G14G18G15G 9
  23793866.518    -5977773.81649  -4424940.02845  23793866.129    23793873.026
  21506529.445     3994166.97549   3112892.34447  21506529.020    21506534.556
  21958828.233   -15170861.11849 -11806738.64647  21958828.070    21958833.968
  21506328.671     3410922.20049   2656504.43147  21506328.159    21506334.344
  22254679.834   -17886521.36849 -13681181.02246  22254679.506    22254685.257
  20635920.910    -2258550.91549  -1756171.57448  20635920.569    20635924.679
  20245862.230    -7266870.25249  -5658515.37848  20245861.632    20245867.172
  24033639.181    -6433725.68249  -4997386.05945  24033639.048    24033646.630
 03  3 25  0 40 30.0000000  0  8G31G23G 3G17G14G18G15G 9
  23777997.302    -6061166.77449  -4489921.49245  23777997.006    23778003.888
  21515660.744     4042152.17049   3150283.40147  21515660.328    21515665.864
  21951004.790   -15211973.52949 -11838774.26747  21951004.636    21951010.534
  21515189.554     3457486.71249   2692788.45047  21515189.065    21515195.278
  22236295.429   -17983131.39749 -13756461.49146  22236295.163    22236300.920
  20641548.666    -2228976.71249  -1733126.74448  20641548.323    20641552.414
  20245407.798    -7269258.26649  -5660376.16648  20245407.216    20245412.752
  24023521.724    -6486892.47049  -5038814.63645  24023521.762    24023529.124
 03  3 25  0 41  0.0000000  0  8G31G23G 3G17G14G18G15G 9
  23762196.932    -6144197.71249  -4554620.85945  23762196.614    23762203.628
  21524818.880     4090278.51049   3187784.43947  21524818.468    21524824.023
  21943280.931   -15252562.52449 -11870402.03147  21943280.763    21943286.679
  21524108.612     3504356.81049   2729310.58847  21524108.120    21524114.348
  22217968.586   -18079439.14949 -13831506.42746  22217968.321    22217974.089
  20647226.569    -2199139.17149  -1709876.71448  20647226.233    20647230.306
  20245017.859    -7271307.51949  -5661972.98248  20245017.266    20245022.792
  24013474.488    -6539691.14449  -5079956.34745  24013474.468    24013481.958
 03  3 25  0 41 30.0000000  0  8G31G23G 3G17G14G18G15G 9
  23746465.726    -6226865.08949  -4619036.92945  23746465.504    23746472.387
  21534003.492     4138543.90949   3225393.83747  21534003.050    21534008.613
  21935656.789   -15292627.70049 -11901621.63047  21935656.621    21935662.472
  21533085.730     3551531.51049   2766070.07047  21533085.235    21533091.438
  22199699.597   -18175442.97149 -13906314.52246  22199699.348    22199705.090
  20652954.184    -2169040.30549  -1686423.05848  20652953.838    20652957.946
  20244692.439    -7273017.66949  -5663305.56548  20244691.841    20244697.375
  24003497.594    -6592119.58249  -5120809.58245  24003497.445    24003505.162
 03  3 25  0 42  0.0000000  0  8G31G23G 3G17G14G18G15G 9
  23730804.325    -6309166.19649  -4683167.59545  23730804.076    23730810.937
  21543214.294     4186947.05349   3263110.56247  21543213.863    21543219.418
  21928132.595   -15332167.50449 -11932431.84647  21928132.400    21928138.266
  21542120.877     3599011.23249   2803067.23647  21542120.380    21542126.586
  22181488.961   -18271140.49849 -13980883.95946  22181488.645    22181494.326
  20658731.273    -2138681.56449  -1662766.90148  20658730.948    20658735.054
  20244431.695    -7274387.87849  -5664373.26048  20244431.102    20244436.667
  23993591.758    -6644174.85549  -5161372.04945  23993591.572    23993599.231
 03  3 25  0 42 30.0000000  0  8G31G23G 3G17G14G18G15G 9
  23715212.955    -6391099.82849  -4747011.92645  23715212.690    23715219.396
  21552450.878     4235485.52549   3300932.73947  21552450.419    21552455.975
  21920708.391   -15371181.73149 -11962832.52247  21920708.210    21920714.105
  21551213.913     3646795.09749   2840301.39547  21551213.405    21551219.614
  22163336.844   -18366530.18949 -14055213.52346  22163336.522    22163342.205
  20664557.400    -2108065.19349  -1638909.98948  20664557.045    20664561.154
  20244235.599    -7275418.09949  -5665176.02948  20244235.008    20244240.625
  23983757.131    -6695855.60749  -5201642.65045  23983757.090    23983764.513
 03  3 25  0 43  0.0000000  0  8G31G23G 3G17G14G18G15G 9
  23699692.274    -6472661.27649  -4810566.22845  23699691.965    23699698.693
  21561713.343     4284160.09449   3338860.97047  21561712.887    21561718.443
  21913384.862   -15409667.07649 -11992821.07647  21913384.689    21913390.546
  21560365.283     3694885.60649   2877774.50047  21560364.760    21560371.013
  22145244.202   -18461607.37349 -14129299.56646  22145243.897    22145249.576
  20670432.619    -2077190.53149  -1614851.80848  20670432.278    20670436.412
  20244104.812    -7276105.21249  -5665711.43548  20244104.218    20244109.847
  23973994.789    -6747156.51349  -5241617.28845  23973994.759    23974002.206
 03  3 25  0 43 30.0000000  0  8G31G23G 3G17G14G18G15G 9
  23684242.688    -6553848.94749  -4873829.28445  23684242.291    23684249.065
  21571001.275     4332968.55149   3376893.52347  21571000.837    21571006.400
  21906162.044   -15447622.93049 -12022397.04347  21906161.880    21906167.760
  21569574.860     3743282.68649   2915486.49947  21569574.374    21569580.650
  22127211.352   -18556370.47849 -14203140.87546  22127211.041    22127216.659
  20676356.622    -2046059.73749  -1590594.04848  20676356.276    20676360.388
  20244039.312    -7276449.25049  -5665979.51348  20244038.724    20244044.358
  23964305.194    -6798075.49349  -5281294.32845  23964305.207    23964312.664
 03  3 25  0 44  0.0000000  0  8G31G23G 3G17G14G18G15G 9
  23668864.919    -6634659.09349  -4936798.15845  23668864.507    23668871.405
  21580314.731     4381910.94649   3415030.44347  21580314.289    21580319.813
  21899040.415   -15485047.10249 -12051558.71347  21899040.290    21899046.182
  21578843.106     3791987.40649   2953438.20447  21578842.588    21578848.860
  22109239.081   -18650815.73549 -14276734.51346  22109238.693    22109244.255
  20682329.397    -2014672.74649  -1566136.65448  20682329.051    20682333.155
  20244039.627    -7276447.83549  -5665978.40848  20244039.023    20244044.632
  23954688.988    -6848608.55349  -5320670.67645  23954688.934    23954696.601
 03  3 25  0 44 30.0000000  0  8G31G23G 3G17G14G18G15G 9
  23653558.790    -6715092.98449  -4999473.84645  23653558.422    23653565.347
  21589652.662     4430982.16149   3453267.74747  21589652.215    21589657.741
  21892019.576   -15521941.87649 -12080307.86747  21892019.430    21892025.319
  21588169.298     3840996.74449   2991627.27847  21588168.772    21588175.004
  22091327.053   -18744944.19549 -14350081.28846  22091326.583    22091332.136
  20688349.927    -1983034.57849  -1541483.53448  20688349.564    20688353.678
  20244105.148    -7276103.56649  -5665710.14148  20244104.568    20244110.129
  23945146.168    -6898756.73049  -5359747.07345  23945146.140    23945153.523
 03  3 25  0 45  0.0000000  0  8G31G23G 3G17G14G18G15G 9
  23638325.421    -6795145.53549  -5061852.39745  23638324.968    23638331.686
  21599015.422     4480183.78649   3491606.66347  21599015.013    21599020.543
  21885100.231   -15558303.25549 -12108641.39047  21885100.090    21885105.924
  21597553.868     3890313.08449   3030055.58847  21597553.375    21597559.589
  22073476.057   -18838751.07349 -14423177.48646  22073475.631    22073481.226
  20694418.494    -1951143.90949  -1516633.66248  20694418.142    20694422.289
  20244236.641    -7275412.66249  -5665171.77048  20244236.047    20244241.585
  23935677.387    -6948514.61449  -5398519.36945  23935677.396    23935684.826
 03  3 25  0 45 30.0000000  0  8G31G23G 3G17G14G18G15G 9
  23623165.174    -6874813.03649  -5123930.90045  23623164.784    23623171.456
  21608403.018     4529515.72049   3530047.12547  21608402.584    21608408.113
  21878282.882   -15594128.85649 -12136557.42347  21878282.690    21878288.459
  21606997.222     3939938.20649   3068724.50147  21606996.687    21607002.970
  22055687.050   -18932232.28049 -14496019.91247  22055686.686    22055692.284
  20700535.126    -1919000.97349  -1491587.21848  20700534.778    20700538.897
  20244434.474    -7274373.06449  -5664361.69048  20244433.880    20244439.387
  23926283.750    -6997877.88049  -5436984.19445  23926283.838    23926291.196
 03  3 25  0 46  0.0000000  0  8G31G23G 3G17G14G18G15G 9
  23608078.172    -6954095.50949  -5185709.38645  23608077.818    23608084.440
  21617814.697     4578974.22749   3568586.21947  21617814.229    21617819.785
  21871567.223   -15629419.97949 -12164056.97247  21871567.009    21871572.791
  21616498.916     3989870.01449   3107632.39047  21616498.420    21616504.716
  22037960.056   -19025387.93049 -14568608.66047  22037959.728    22037965.270
  20706699.038    -1886609.47449  -1466347.08448  20706698.681    20706702.776
  20244698.427    -7272986.07849  -5663280.91348  20244697.827    20244703.322
  23916965.439    -7046846.27749  -5475141.29045  23916965.430    23916972.646
 03  3 25  0 46 30.0000000  0  8G31G23G 3G17G14G18G15G 9
  23593065.148    -7032989.22749  -5247184.93845  23593064.811    23593071.437
  21627250.444     4628559.43749   3607224.04147  21627249.996    21627255.526
  21864953.707   -15664174.07949 -12191138.06547  21864953.498    21864959.319
  21626059.254     4040109.96949   3146780.39147  21626058.751    21626065.072
  22020295.762   -19118214.23549 -14640940.76747  22020295.397    22020300.894
  20712910.256    -1853969.23549  -1440913.12948  20712909.881    20712914.017
  20245028.900    -7271249.39649  -5661927.64348  20245028.309    20245033.784
  23907722.924    -7095415.62049  -5512987.45645  23907722.818    23907730.086
 03  3 25  0 47  0.0000000  0  8G31G23G 3G17G14G18G15G 9
  23578126.549    -7111491.52449  -5308355.48845  23578126.213    23578132.885
  21636710.088     4678270.28249   3645959.75447  21636709.638    21636715.206
  21858442.592   -15698389.90149 -12217799.72947  21858442.415    21858448.239
  21635678.298     4090658.44649   3186168.79847  21635677.812    21635684.136
  22002694.628   -19210708.61949 -14713014.24147  22002694.252    22002699.716
  20719168.594    -1821081.32649  -1415286.18948  20719168.248    20719172.377
  20245426.130    -7269161.90649  -5660301.02148  20245425.524    20245431.007
  23898556.958    -7143582.99149  -5550520.41145  23898556.853    23898564.174
 03  3 25  0 47 30.0000000  0  8G31G23G 3G17G14G18G15G 9
  23563262.988    -7189599.72049  -5369218.95445  23563262.673    23563269.362
  21646193.434     4728105.64649   3684792.49547  21646193.032    21646198.598
  21852034.139   -15732066.03649 -12244040.85447  21852034.012    21852039.841
  21645356.228     4141516.18649   3225798.18147  21645355.732    21645362.025
  21985157.094   -19302868.43849 -14784827.01847  21985156.773    21985162.193
  20725473.867    -1787946.82949  -1389467.10248  20725473.513    20725477.649
  20245890.337    -7266722.41149  -5658400.11648  20245889.732    20245895.197
  23889467.943    -7191345.70749  -5587738.03245  23889467.926    23889475.265
 03  3 25  0 48  0.0000000  0  8G31G23G 3G17G14G18G15G 9
  23548474.591    -7267313.06249  -5429774.73845  23548474.270    23548480.991
  21655700.025     4778062.80549   3723720.15047  21655699.601    21655705.135
  21845728.443   -15765202.99249 -12269861.84347  21845728.287    21845734.084
  21655092.751     4192681.71349   3265667.40947  21655092.232    21655098.543
  21967683.446   -19394692.73649 -14856378.34147  21967683.140    21967688.542
  20731825.545    -1754568.62949  -1363458.11048  20731825.196    20731829.313
  20246421.449    -7263931.52249  -5656225.38548  20246420.854    20246426.266
  23880456.103    -7238702.33149  -5624639.22345  23880456.084    23880463.481
 03  3 25  0 48 30.0000000  0  8G31G23G 3G17G14G18G15G 9
  23533761.957    -7344627.91649  -5490020.00045  23533761.606    23533768.393
  21665229.780     4828141.80949   3762742.74347  21665229.314    21665234.826
  21839525.770   -15797798.20149 -12295260.69347  21839525.591    21839531.400
  21664888.139     4244156.57649   3305777.67347  21664887.630    21664893.855
  21950274.335   -19486178.05249 -14927665.53447  21950274.002    21950279.433
  20738223.565    -1720946.79149  -1337259.27848  20738223.207    20738227.346
  20247019.859    -7260786.94749  -5653775.06348  20247019.250    20247024.633
  23871522.504    -7285648.78449  -5661220.79545  23871522.479    23871529.850
 03  3 25  0 49  0.0000000  0  8G31G23G 3G17G14G18G15G 9
  23519125.529    -7421542.42249  -5549953.32245  23519125.218    23519131.948
  21674782.315     4878340.74149   3801858.78247  21674781.861    21674787.363
  21833426.292   -15829851.17449 -12320237.02247  21833426.124    21833431.928
  21674742.330     4295940.27149   3346128.57847  21674741.808    21674748.013
  21932930.114   -19577322.29649 -14998686.95047  21932929.799    21932935.196
  20744667.530    -1687083.27149  -1310872.11848  20744667.196    20744671.338
  20247685.641    -7257288.40749  -5651048.92448  20247685.049    20247690.417
  23862667.345    -7332183.27649  -5697481.37545  23862667.189    23862674.482
 03  3 25  0 49 30.0000000  0  8G31G23G 3G17G14G18G15G 9
  23504565.944    -7498053.44649  -5609572.23745  23504565.548    23504572.288
  21684357.612     4928659.21649   3841067.98247  21684357.192    21684362.679
  21827430.319   -15861360.13849 -12344789.44747  21827430.125    21827435.932
  21684655.374     4348033.88549   3386720.98647  21684654.826    21684661.135
  21915651.431   -19668122.27849 -15069440.11847  21915651.120    21915656.457
  20751157.535    -1652978.34149  -1284296.84848  20751157.183    20751161.311
  20248419.055    -7253434.29349  -5648045.71548  20248418.442    20248423.832
  23853891.225    -7378302.03849  -5733417.98345  23853890.995    23853898.255
 03  3 25  0 50  0.0000000  0  8G31G23G 3G17G14G18G15G 9
  23490083.236    -7574159.98149  -5668875.95545  23490082.844    23490089.693
  21693955.182     4979094.69649   3880368.34947  21693954.748    21693960.229
  21821537.771   -15892325.55049 -12368918.32947  21821537.594    21821543.401
  21694627.100     4400436.14349   3427553.90747  21694626.602    21694632.970
  21898438.450   -19758576.99749 -15139924.24247  21898438.117    21898443.432
  20757692.904    -1618634.80049  -1257535.64748  20757692.539    20757696.672
  20249220.049    -7249224.99049  -5644765.73848  20249219.447    20249224.849
  23845194.412    -7424003.81749  -5769029.68445  23845194.146    23845201.440
 03  3 25  0 50 30.0000000  0  8G31G23G 3G17G14G18G15G 9
  23475678.386    -7649857.54349  -5727861.00945  23475678.026    23475684.789
  21703575.124     5029647.86349   3919760.41747  21703574.698    21703580.156
  21815749.297   -15922744.32049 -12392621.25447  21815749.121    21815754.893
  21704658.194     4453149.50949   3468629.23147  21704657.698    21704664.013
  21881291.894   -19848682.14049 -15210135.97047  21881291.617    21881296.954
  20764273.774    -1584051.85849  -1230587.90048  20764273.423    20764277.555
  20250089.226    -7244657.35249  -5641206.53748  20250088.625    20250094.047
  23836577.782    -7469283.93549  -5804312.82245  23836577.561    23836584.886
 03  3 25  0 51  0.0000000  0  8G31G23G 3G17G14G18G15G 9
  23461351.539    -7725145.75649  -5786527.09045  23461351.164    23461357.914
  21713216.941     5080315.83149   3959241.94747  21713216.523    21713221.963
  21810064.605   -15952617.37849 -12415898.94647  21810064.427    21810070.231
  21714748.178     4506172.02049   3509945.45447  21714747.643    21714753.921
  21864211.989   -19938437.04549 -15280074.78647  21864211.771    21864217.111
  20770899.682    -1549232.70249  -1203456.08848  20770899.346    20770903.440
  20251026.454    -7239732.14949  -5637368.71548  20251025.856    20251031.274
  23828041.667    -7514141.45049  -5839266.64945  23828041.480    23828048.627
 03  3 25  0 51 30.0000000  0  8G31G23G 3G17G14G18G15G 9
  23447103.230    -7800020.95849  -5844871.33746  23447102.868    23447109.545
  21722880.562     5131098.65849   3998812.97247  21722880.143    21722885.593
  21804484.185   -15981942.61249 -12438749.76947  21804484.020    21804489.822
  21724897.120     4559505.43349   3551503.93847  21724896.607    21724902.977
  21847199.514   -20027838.23549 -15349737.98647  21847199.259    21847204.584
  20777570.550    -1514177.05149  -1176140.00148  20777570.198    20777574.338
  20252032.094    -7234447.37549  -5633250.71448  20252031.500    20252036.915
  23819586.632    -7558572.69849  -5873888.31545  23819586.484    23819593.589
 03  3 25  0 52  0.0000000  0  8G31G23G 3G17G14G18G15G 9
  23432933.737    -7874482.00649  -5902892.86446  23432933.387    23432940.059
  21732565.607     5181993.98049   4038471.66347  21732565.178    21732570.658
  21799008.080   -16010720.01549 -12461173.71347  21799007.891    21799013.635
  21735105.013     4613148.41549   3593303.64947  21735104.510    21735110.880
  21830254.550   -20116884.56249 -15419124.66047  21830254.249    21830259.545
  20784285.875    -1478887.67649  -1148641.78748  20784285.519    20784289.662
  20253106.103    -7228803.29149  -5628852.72648  20253105.527    20253110.946
  23811212.778    -7602576.13349  -5908176.62745  23811212.671    23811219.922
 03  3 25  0 52 30.0000000  0  8G31G23G 3G17G14G18G15G 9
  23418843.730    -7948525.29149  -5960588.86246  23418843.412    23418850.067
  21742272.094     5233001.84249   4078218.04647  21742271.659    21742277.124
  21793636.513   -16038947.60149 -12483169.22347  21793636.320    21793642.057
  21745372.307     4667103.03849   3635346.19247  21745371.762    21745378.075
  21813377.836   -20205572.14749 -15488231.80447  21813377.533    21813382.809
  20791045.695    -1443364.37749  -1120961.29648  20791045.349    20791049.497
  20254248.914    -7222797.71049  -5624173.04848  20254248.326    20254253.778
  23802921.403    -7646147.76349  -5942128.48345  23802921.301    23802928.465
 03  3 25  0 53  0.0000000  0  8G31G23G 3G17G14G18G15G 9
  23404833.645    -8022148.63749  -6017957.65246  23404833.361    23404839.926
  21751999.778     5284120.99149   4118051.14247  21751999.344    21752004.795
  21788369.792   -16066624.28749 -12504735.46447  21788369.606    21788375.350
  21755698.723     4721368.84849   3677631.21147  21755698.184    21755704.516
  21796569.780   -20293898.94149 -15557057.81047  21796569.449    21796574.703
  20797849.857    -1407608.48249  -1093099.56648  20797849.518    20797853.649
  20255460.662    -7216429.77849  -5619211.02348  20255460.087    20255465.555
  23794712.549    -7689285.38049  -5975742.11745  23794712.464    23794719.581
 03  3 25  0 53 30.0000000  0  8G31G23G 3G17G14G18G15G 9
  23390903.612    -8095351.34849  -6074998.68546  23390903.324    23390909.809
  21761748.105     5335348.65449   4157968.79747  21761747.646    21761753.155
  21783207.747   -16093751.01649 -12525873.16647  21783207.569    21783213.321
  21766084.033     4775944.26049   3720157.49647  21766083.544    21766089.880
  21779830.557   -20381864.17749 -15625602.07647  21779830.177    21779835.413
  20804697.729    -1371622.77449  -1065058.75748  20804697.388    20804701.537
  20256741.315    -7209700.05249  -5613967.08248  20256740.740    20256746.194
  23786586.514    -7731987.65349  -6009016.54545  23786586.409    23786593.429
 03  3 25  0 54  0.0000000  0  8G31G23G 3G17G14G18G15G 9
  23377054.305    -8168129.65149  -6131708.99146  23377054.082    23377060.486
  21771517.060     5386685.16549   4197971.26647  21771516.623    21771522.180
  21778150.802   -16120325.32549 -12546580.41447  21778150.610    21778156.374
  21776528.800     4830831.44549   3762926.70047  21776528.283    21776534.523
  21763160.780   -20469464.06749 -15693861.66847  21763160.427    21763165.615
  20811589.295    -1335407.21749  -1036838.84848  20811588.967    20811593.086
  20258091.269    -7202606.17849  -5608439.38848  20258090.676    20258096.100
  23778544.113    -7774250.79249  -6041948.78645  23778543.867    23778550.953
 03  3 25  0 54 30.0000000  0  8G31G23G 3G17G14G18G15G 9
  23363286.386    -8240480.96649  -6188086.59146  23363286.084    23363292.465
  21781306.637     5438129.78249   4238057.97747  21781306.225    21781311.731
  21773199.203   -16146346.19949 -12566856.41347  21773199.028    21773204.765
  21787032.859     4886030.34349   3805938.80547  21787032.341    21787038.517
  21746561.013   -20556696.07149 -15761834.59247  21746560.669    21746565.844
  20818524.488    -1298962.68049  -1008440.51048  20818524.146    20818528.233
  20259510.727    -7195147.03049  -5602627.06448  20259510.123    20259515.513
  23770585.707    -7816071.81149  -6074536.55545  23770585.526    23770592.602
 03  3 25  0 55  0.0000000  0  8G31G23G 3G17G14G18G15G 9
  23349599.560    -8312405.56749  -6244131.69046  23349599.239    23349605.564
  21791116.147     5489678.81349   4278226.05047  21791115.724    21791121.182
  21768352.558   -16171815.42849 -12586702.56747  21768352.363    21768358.122
  21797595.752     4941538.72049   3849192.06247  21797595.259    21797601.479
  21730031.270   -20643560.35249 -15829520.97947  21730030.893    21730036.071
  20825502.461    -1262293.00049   -979866.74448  20825502.135    20825506.253
  20260999.327    -7187324.32349  -5596531.45148  20260998.732    20261004.109
  23762711.501    -7857450.93149  -6106779.93045  23762711.387    23762718.226
 03  3 25  0 55 30.0000000  0  8G31G23G 3G17G14G18G15G 9
  23335995.068    -8383897.31349  -6299839.49646  23335994.747    23336001.020
  21800945.997     5541334.94749   4318477.57747  21800945.550    21800951.051
  21763611.811   -16196728.29549 -12606115.18847  21763611.625    21763617.358
  21808218.279     4997360.46849   3892689.51147  21808217.755    21808224.062
  21713572.569   -20730050.75849 -15896916.04147  21713572.257    21713577.453
  20832523.811    -1225395.62849   -951115.54948  20832523.474    20832527.614
  20262558.027    -7179133.26649  -5590148.80348  20262557.413    20262562.827
  23754922.547    -7898381.64849  -6138673.94145  23754922.480    23754929.335
 03  3 25  0 56  0.0000000  0  8G31G23G 3G17G14G18G15G 9
  23322472.994    -8454956.34349  -6355210.12546  23322472.598    23322478.868
  21810795.518     5593094.62849   4358809.78847  21810795.101    21810800.635
  21758976.644   -16221086.24849 -12625095.41047  21758976.474    21758982.172
  21818900.046     5053493.43549   3936429.46447  21818899.530    21818905.848
  21697185.048   -20816167.33349 -15964019.80947  21697184.772    21697189.934
  20839587.856    -1188274.04649   -922189.64348  20839587.504    20839591.614
  20264186.570    -7170575.19549  -5583480.16948  20264185.956    20264191.405
  23747218.909    -7938863.70049  -6170218.35945  23747218.813    23747225.810
 03  3 25  0 56 30.0000000  0  8G31G23G 3G17G14G18G15G 9
  23309033.708    -8525580.33949  -6410241.77746  23309033.272    23309039.449
  21820664.635     5644956.95049   4399221.97647  21820664.218    21820669.733
  21754447.181   -16244888.63449 -12643642.72147  21754447.000    21754452.731
  21829641.104     5109938.00749   3980412.22246  21829640.604    21829646.924
  21680869.158   -20901907.91549 -16030830.59747  21680868.847    21680873.967
  20846694.270    -1150929.34449   -893089.87748  20846693.934    20846698.064
  20265885.090    -7161649.27249  -5576524.90048  20265884.490    20265889.967
  23739601.364    -7978894.50049  -6201411.11545  23739601.286    23739608.027
 03  3 25  0 57  0.0000000  0  8G31G23G 3G17G14G18G15G 9
  23295677.589    -8595766.90349  -6464932.56546  23295677.178    23295683.332
  21830553.104     5696921.09749   4439713.51347  21830552.673    21830558.123
  21750023.623   -16268134.36349 -12661756.27747  21750023.472    21750029.226
  21840441.542     5166694.35449   4024637.92646  21840441.027    21840447.342
  21664625.254   -20987269.85949 -16097346.33947  21664624.922    21664630.042
  20853843.035    -1113362.46149   -863816.98348  20853842.705    20853846.835
  20267653.913    -7152354.26249  -5569282.03148  20267653.306    20267658.747
  23732070.086    -8018471.56449  -6232250.32945  23732069.970    23732076.687
 03  3 25  0 57 30.0000000  0  8G31G23G 3G17G14G18G15G 9
  23282405.318    -8665512.53549  -6519279.77446  23282404.987    23282411.169
  21840460.921     5748987.20749   4480284.50647  21840460.504    21840465.954
  21745706.429   -16290821.73749 -12679434.75547  21745706.261    21745711.941
  21851301.428     5223763.27149   4069107.18746  21851300.919    21851307.205
  21648454.056   -21072249.89749 -16163564.49947  21648453.727    21648458.827
  20861033.994    -1075573.70749   -834371.20148  20861033.657    20861037.793
  20269493.317    -7142688.19749  -5561750.02948  20269492.712    20269498.139
  23724625.840    -8057591.03149  -6262732.97245  23724625.683    23724632.494
 03  3 25  0 58  0.0000000  0  8G31G23G 3G17G14G18G15G 9
  23269217.079    -8734817.27449  -6573283.42746  23269216.737    23269222.867
  21850387.511     5801151.93549   4520932.33747  21850387.122    21850392.611
  21741495.079   -16312952.22449 -12696679.29047  21741494.907    21741500.628
  21862220.464     5281143.25449   4113818.83446  21862219.930    21862226.292
  21632355.620   -21156847.79949 -16229484.89147  21632355.262    21632360.346
  20868266.554    -1037566.45449   -804755.15748  20868266.230    20868270.325
  20271403.083    -7132652.36249  -5553929.89748  20271402.470    20271407.890
  23717268.588    -8096252.81649  -6292858.99045  23717268.497    23717275.396
 03  3 25  0 58 30.0000000  0  8G31G23G 3G17G14G18G15G 9
  23256113.428    -8803677.54449  -6626940.75146  23256113.078    23256119.160
  21860332.967     5853415.54249   4561657.22047  21860332.547    21860338.084
  21737390.099   -16334523.92049 -12713488.40347  21737389.948    21737395.679
  21873198.950     5338835.59849   4158773.88946  21873198.430    21873204.844
  21616330.569   -21241059.90249 -16295104.66147  21616330.196    21616335.280
  20875540.822     -999340.09449   -774968.37748  20875540.484    20875544.568
  20273383.550    -7122244.67349  -5545820.00148  20273382.949    20273388.364
  23709999.441    -8134452.98949  -6322625.29245  23709999.199    23710005.933
 03  3 25  0 59  0.0000000  0  8G31G23G 3G17G14G18G15G 9
  23243094.680    -8872090.81349  -6680249.76646  23243094.371    23243100.457
  21870297.104     5905777.27849   4602458.56947  21870296.689    21870302.205
  21733391.743   -16355535.68249 -12729861.20847  21733391.576    21733397.262
  21884236.963     5396840.36549   4203972.38746  21884236.458    21884242.819
  21600379.293   -21324884.00149 -16360422.09247  21600378.949    21600384.015
  20882856.476     -960895.95949   -745011.90748  20882856.130    20882860.247
  20275435.056    -7111463.90549  -5537419.40048  20275434.449    20275439.871
  23702818.423    -8172188.76849  -6352029.71945  23702818.210    23702824.985
 03  3 25  0 59 30.0000000  0  8G31G23G 3G17G14G18G15G 9
  23230161.393    -8940055.56249  -6733209.26746  23230161.074    23230167.284
  21880279.616     5958235.77249   4643335.31447  21880279.198    21880284.673
  21729499.948   -16375987.21449 -12745797.46347  21729499.771    21729505.493
  21895334.394     5455157.47849   4249414.27246  21895333.866    21895340.190
  21584502.255   -21408318.34549 -16425435.81647  21584501.900    21584506.948
  20890213.330     -922235.54549   -714886.89848  20890212.986    20890217.091
  20277557.649    -7100309.54349  -5528727.68748  20277557.039    20277562.445
  23695726.050    -8209458.40949  -6381070.91945  23695726.090    23695732.659
 03  3 25  1  0  0.0000000  0  8G31G23G 3G17G14G18G15G 9
  23217313.798    -9007570.08749  -6785817.96446  23217313.448    23217319.689
  21890280.188     6010789.21049   4684286.03347  21890279.785    21890285.270
  21725714.651   -16395878.98749 -12761297.54847  21725714.491    21725720.268
  21906490.985     5513786.03949   4295098.83846  21906490.482    21906496.847
  21568699.711   -21491361.31449 -16490144.58247  21568699.300    21568704.357
  20897610.958     -883360.69949   -684594.81248  20897610.605    20897614.737
  20279751.364    -7088781.50449  -5519744.79848  20279750.751    20279756.153
  23688722.993    -8246260.21349  -6409747.57245  23688722.958    23688729.428
 03  3 25  1  0 30.0000000  0  8G31G23G 3G17G14G18G15G 9
  23204552.455    -9074630.96749  -6838073.15946  23204552.073    23204558.334
  21900298.876     6063437.81949   4725310.91547  21900298.479    21900304.011
  21722036.331   -16415208.68449 -12776359.65247  21722036.157    21722041.927
  21917707.266     5572727.79849   4341027.45746  21917706.787    21917713.122
  21552972.203   -21574009.42549 -16554545.65847  21552971.828    21552976.881
  20905049.401     -844271.17949   -654135.44348  20905049.076    20905053.193
  20282016.591    -7076877.58849  -5510469.01348  20282015.983    20282021.415
  23681809.436    -8282590.46249  -6438056.75845  23681809.445    23681816.011
 03  3 25  1  1  0.0000000  0  8G31G23G 3G17G14G18G15G 9
  23191877.642    -9141237.48549  -6889974.31046  23191877.287    23191883.510
  21910335.217     6116179.12749   4766408.03047  21910334.801    21910340.314
  21718464.802   -16433977.30649 -12790984.56147  21718464.620    21718470.317
  21928982.797     5631980.69549   4387198.51446  21928982.301    21928988.662
  21537320.082   -21656261.68549 -16618638.28447  21537319.754    21537324.791
  20912528.205     -804969.93749   -623511.09548  20912527.868    20912531.978
  20284353.234    -7064598.49549  -5500900.88548  20284352.645    20284358.048
  23674985.917    -8318448.22049  -6465997.80545  23674985.879    23674992.498
 03  3 25  1  1 30.0000000  0  8G31G23G 3G17G14G18G15G 9
  23179289.935    -9207386.08549  -6941518.63646  23179289.592    23179295.758
  21920389.306     6169013.61049   4807577.75747  21920388.901    21920394.376
  21715000.358   -16452182.99349 -12805170.80447  21715000.168    21715005.915
  21940317.786     5691546.66949   4433613.54146  21940317.284    21940323.699
  21521743.976   -21738114.69249 -16682419.79747  21521743.617    21521748.611
  20920047.395     -765456.49049   -592721.39348  20920047.023    20920051.151
  20286761.733    -7051941.80249  -5491038.52048  20286761.127    20286766.527
  23668253.074    -8353829.70149  -6493567.71345  23668252.910    23668259.636
 03  3 25  1  2  0.0000000  0  8G31G23G 3G17G14G18G15G 9
  23166789.539    -9273075.79749  -6992705.38846  23166789.206    23166795.416
  21930460.792     6221939.18649   4848818.45647  21930460.358    21930465.831
  21711642.935   -16469826.50149 -12818918.99347  21711642.752    21711648.539
  21951712.243     5751424.95749   4480271.92946  21951711.736    21951718.144
  21506243.990   -21819567.34149 -16745889.34847  21506243.638    21506248.636
  20927606.467     -725732.97749   -561768.00648  20927606.110    20927610.224
  20289242.004    -7038907.91449  -5480882.23948  20289241.400    20289246.793
  23661611.000    -8388733.84349  -6520765.66145  23661610.828    23661617.478
 03  3 25  1  2 30.0000000  0  8G31G23G 3G17G14G18G15G 9
  23154377.160    -9338302.88949  -7043531.65146  23154376.848    23154383.128
  21940549.629     6274956.38149   4890130.55347  21940549.194    21940554.695
  21708392.884   -16486905.54849 -12832227.33647  21708392.702    21708398.518
  21963166.418     5811616.75249   4527174.58746  21963165.887    21963172.238
  21490820.869   -21900616.03949 -16809044.13047  21490820.525    21490825.503
  20935205.631     -685798.99849   -530650.62248  20935205.309    20935209.436
  20291794.468    -7025494.60149  -5470430.30448  20291793.873    20291799.277
  23655060.417    -8423156.77149  -6547588.64745  23655060.312    23655066.945
 03  3 25  1  3  0.0000000  0  8G31G23G 3G17G14G18G15G 9
  23142052.940    -9403066.97949  -7093997.13546  23142052.660    23142058.888
  21950655.431     6328062.61549   4931512.03047  21950654.978    21950660.487
  21705250.028   -16503421.36049 -12845096.80447  21705249.858    21705255.640
  21974679.840     5872120.25249   4574320.14146  21974679.346    21974685.710
  21475474.760   -21981260.30349 -16871883.76647  21475474.399    21475479.385
  20942844.285     -645657.75049   -499371.73248  20942843.961    20942848.117
  20294419.010    -7011702.55949  -5459683.25348  20294418.397    20294423.802
  23648601.629    -8457097.82149  -6574036.15445  23648601.533    23648608.061
 03  3 25  1  3 30.0000000  0  8G31G23G 3G17G14G18G15G 9
  23129817.242    -9467365.95749  -7144100.19746  23129816.932    23129823.141
  21960778.016     6381257.02749   4972962.21347  21960777.540    21960783.048
  21702214.400   -16519373.53649 -12857527.06547  21702214.240    21702220.050
  21986252.678     5932935.87649   4621708.91546  21986252.184    21986258.570
  21460205.976   -22061497.73849 -16934406.39947  21460205.679    21460210.670
  20950522.191     -605310.09049   -467932.00448  20950521.846    20950525.988
  20297115.823    -6997530.83649  -5448640.35848  20297115.219    20297120.607
  23642234.836    -8490554.74149  -6600106.42045  23642234.891    23642241.294
 03  3 25  1  4  0.0000000  0  8G31G23G 3G17G14G18G15G 9
  23117670.492    -9531197.10149  -7193838.70746  23117670.190    23117676.436
  21970917.272     6434539.27749   5014480.84547  21970916.791    21970922.310
  21699286.293   -16534760.98349 -12869517.28047  21699286.097    21699291.959
  21997885.095     5994064.04249   4669341.21946  21997884.552    21997890.871
  21445015.158   -22141325.81649 -16996610.04647  21445014.885    21445019.826
  20958239.275     -564756.56149   -436331.85247  20958238.953    20958243.040
  20299885.086    -6982978.17149  -5437300.62048  20299884.472    20299889.878
  23635960.888    -8523524.67249  -6625797.21645  23635960.875    23635967.243
 03  3 25  1  4 30.0000000  0  8G31G23G 3G17G14G18G15G 9
  23105613.133    -9594559.02149  -7243211.59746  23105612.828    23105619.123
  21981072.944     6487907.64349   5056066.57847  21981072.450    21981077.980
  21696465.596   -16549583.92549 -12881067.62047  21696465.380    21696471.226
  22009576.602     6055503.89549   4717216.41046  22009576.087    22009582.490
  21429902.537   -22220742.90949 -17058493.44647  21429902.267    21429907.216
  20965995.198     -523998.77649   -404572.54547  20965994.884    20965998.959
  20302726.868    -6968044.42549  -5425663.93848  20302726.265    20302731.689
  23629779.904    -8556005.91049  -6651107.21645  23629779.765    23629786.231
 03  3 25  1  5  0.0000000  0  8G31G23G 3G17G14G18G15G 9
  23093645.718    -9657447.83349  -7292215.82046  23093645.402    23093651.763
  21991245.132     6541362.88349   5097720.01447  21991244.668    21991250.175
  21693752.678   -16563840.30849 -12892176.47847  21693752.458    21693758.315
  22021327.896     6117257.44949   4765336.04146  22021327.432    22021333.898
  21414868.810   -22299745.27549 -17120053.67947  21414868.555    21414873.509
  20973790.180     -483036.03649   -372653.53347  20973789.867    20973793.949
  20305641.702    -6952726.89049  -5413728.19248  20305641.087    20305646.506
  23623692.622    -8587994.37249  -6676033.25545  23623692.518    23623698.900
 03  3 25  1  5 30.0000000  0  8G31G23G 3G17G14G18G15G 9
  23081768.393    -9719863.96749  -7340851.73846  23081768.055    23081774.271
  22001433.285     6594901.76549   5139438.62347  22001432.815    22001438.273
  21691147.241   -16577531.89549 -12902845.24847  21691147.041    21691152.893
  22033138.581     6179322.51649   4813698.39046  22033138.076    22033144.540
  21399913.960   -22378333.50149 -17181291.21247  21399913.678    21399918.639
  20981623.437     -441872.27049   -340577.88147  20981623.085    20981627.209
  20308629.280    -6937027.03249  -5401494.54148  20308628.689    20308634.089
  23617699.200    -8619490.42549  -6700575.56145  23617699.028    23617705.349
 03  3 25  1  6  0.0000000  0  8G31G23G 3G17G14G18G15G 9
  23069981.357    -9781805.46849  -7389117.81046  23069981.014    23069987.142
  22011637.137     6648523.24649   5181221.59247  22011636.651    22011642.116
  21688649.303   -16590658.62449 -12913073.86847  21688649.101    21688654.913
  22045008.293     6241698.31549   4862302.88046  22045007.779    22045014.249
  21385038.271   -22456505.27349 -17242204.23647  21385038.036    21385042.997
  20989494.674     -400508.44649   -308346.33747  20989494.325    20989498.440
  20311689.751    -6920944.24049  -5388962.49548  20311689.140    20311694.526
  23611799.753    -8650492.06649  -6724732.64345  23611799.601    23611805.894
 03  3 25  1  6 30.0000000  0  8G31G23G 3G17G14G18G15G 9
  23058285.385    -9843267.77749  -7437010.47146  23058285.062    23058291.327
  22021856.904     6702229.01749   5223070.24247  22021856.456    22021861.951
  21686259.463   -16603217.43749 -12922859.95247  21686259.275    21686265.057
  22056937.567     6304387.39749   4911151.49646  22056937.100    22056943.578
  21370242.754   -22534256.12749 -17302789.27147  21370242.489    21370247.415
  20997404.262     -358943.09649   -275957.75547  20997403.920    20997408.054
  20314823.626    -6904475.55949  -5376129.75848  20314823.021    20314828.414
  23605995.162    -8680994.46149  -6748500.69045  23605995.030    23606001.344
 03  3 25  1  7  0.0000000  0  8G31G23G 3G17G14G18G15G 9
  23046680.812    -9904250.00549  -7484529.05546  23046680.495    23046686.752
  22032092.392     6756017.15049   5264983.06547  22032091.970    22032097.505
  21683977.461   -16615209.31549 -12932204.26947  21683977.275    21683983.059
  22068926.453     6367388.82749   4960243.48546  22068925.951    22068932.410
  21355527.623   -22611584.91949 -17363045.43247  21355527.306    21355532.184
  21005351.825     -317178.27449   -243413.74447  21005351.508    21005355.633
  20318030.924    -6887620.93249  -5362996.28248  20318030.310    20318035.708
  23600285.897    -8710996.49449  -6771878.85945  23600285.733    23600292.178
 03  3 25  1  7 30.0000000  0  8G31G23G 3G17G14G18G15G 9
  23035167.871    -9964751.18449  -7531672.79246  23035167.485    23035173.721
  22042343.200     6809885.62849   5306958.49947  22042342.793    22042348.338
  21681803.183   -16626635.33249 -12941107.65547  21681803.010    21681808.735
  22080974.461     6430701.34049   5009577.88546  22080973.960    22080980.485
  21340892.909   -22688491.00749 -17422972.20647  21340892.558    21340897.423
  21013336.948     -275216.38849   -210716.16747  21013336.620    21013340.741
  20321311.589    -6870380.78749  -5349562.40148  20321310.999    20321316.417
  23594671.965    -8740497.17649  -6794866.34945  23594671.849    23594678.468
 03  3 25  1  8  0.0000000  0  8G31G23G 3G17G14G18G15G 9
  23023746.788   -10024768.83849  -7578439.75846  23023746.462    23023752.723
  22052609.310     6863834.10449   5348996.28147  22052608.887    22052614.418
  21679736.870   -16637494.45349 -12949569.30647  21679736.641    21679742.323
  22093081.685     6494325.70649   5059155.29246  22093081.228    22093087.824
  21326339.148   -22764971.61149 -17482567.43747  21326338.753    21326343.575
  21021359.468     -233057.77749   -177865.29647  21021359.146    21021363.269
  20324665.868    -6852753.95349  -5335827.20248  20324665.277    20324670.732
  23589154.202    -8769493.91349  -6817461.15145  23589154.048    23589160.566
 03  3 25  1  8 30.0000000  0  8G31G23G 3G17G14G18G15G 9
  23012418.159   -10084301.07249  -7624828.47146  23012417.825    23012424.080
  22062890.474     6917861.87949   5391095.83347  22062890.049    22062895.559
  21677778.292   -16647786.42549 -12957589.02747  21677778.097    21677783.838
  22105248.402     6558261.91549   5108975.67846  22105247.915    22105254.492
  21311866.658   -22841024.70649 -17541829.55947  21311866.272    21311871.111
  21029419.213     -190703.59749   -144862.03847  21029418.866    21029422.988
  20328093.912    -6834739.55449  -5321790.01748  20328093.314    20328098.783
  23583732.520    -8797984.55549  -6839661.59245  23583732.492    23583738.801
 03  3 25  1  9  0.0000000  0  8G31G23G 3G17G14G18G15G 9
  23001182.257   -10143345.76149  -7670837.28346  23001181.893    23001188.152
  22073186.520     6971968.00149   5433256.44647  22073186.061    22073191.632
  21675927.790   -16657510.83949 -12965166.49547  21675927.607    21675933.316
  22117474.474     6622509.93549   5159039.04946  22117473.952    22117480.475
  21297475.878   -22916648.31649 -17600757.00647  21297475.564    21297480.391
  21037515.995     -148154.71349   -111707.05847  21037515.651    21037519.781
  20331595.858    -6816336.68449  -5307450.11148  20331595.269    20331600.737
  23578407.592    -8825967.03649  -6861466.10245  23578407.488    23578413.857
 03  3 25  1  9 30.0000000  0  8G31G23G 3G17G14G18G15G 9
  22990039.470   -10201901.19649  -7716464.85246  22990039.107    22990045.336
  22083497.204     7026151.42249   5475477.29047  22083496.793    22083502.391
  21674185.326   -16666667.63949 -12972301.65947  21674185.124    21674190.853
  22129759.749     6687069.35549   5209345.07046  22129759.217    22129765.754
  21283167.274   -22991840.81549 -17659348.52047  21283166.910    21283171.699
  21045649.549     -105412.40249    -78401.35147  21045649.220    21045653.350
  20335171.814    -6797544.82849  -5292807.09848  20335171.204    20335176.688
  23573179.778    -8853439.47449  -6882873.15445  23573179.727    23573186.015
 03  3 25  1 10  0.0000000  0  8G31G23G 3G17G14G18G15G 9
  22978990.306   -10259965.34249  -7761709.61446  22978989.946    22978996.156
  22093822.542     7080411.43749   5517757.80847  22093822.145    22093827.711
  21672550.756   -16675256.88149 -12978994.57647  21672550.585    21672556.374
  22142104.356     6751940.41049   5259893.91546  22142103.810    22142110.334
  21268941.072   -23066599.81049 -17717602.24747  21268940.679    21268945.446
  21053819.773      -62477.64549    -44945.69247  21053819.434    21053823.580
  20338821.990    -6778363.11349  -5277860.30548  20338821.387    20338826.854
  23568049.422    -8880399.68049  -6903881.05445  23568049.338    23568055.513
 03  3 25  1 10 30.0000000  0  8G31G23G 3G17G14G18G15G 9
  22968034.680   -10317537.36549  -7806570.89046  22968034.301    22968040.522
  22104162.141     7134746.20049   5560096.59147  22104161.737    22104167.236
  21671024.199   -16683279.24649 -12985245.77147  21671023.992    21671029.756
  22154507.865     6817121.44649   5310684.31446  22154507.314    22154513.875
  21254797.485   -23140924.42449 -17775517.49647  21254797.150    21254801.898
  21062026.234      -19352.61149    -11341.76347  21062025.883    21062030.039
  20342546.244    -6758791.96049  -5262610.05548  20342545.639    20342551.123
  23563016.676    -8906846.75849  -6924489.09945  23563016.543    23563022.786
 03  3 25  1 11  0.0000000  0  8G31G23G 3G17G14G18G15G 9
  22957173.399   -10374613.47249  -7851045.74646  22957173.020    22957179.210
  22114516.160     7189156.83549   5602494.49047  22114515.759    22114521.218
  21669605.822   -16690732.73649 -12991053.68847  21669605.634    21669611.377
  22166970.767     6882614.41649   5361717.78146  22166970.246    22166976.823
  21240737.385   -23214810.95149 -17833091.37347  21240737.014    21240741.767
  21070269.017       23963.68949     22411.20447  21070268.677    21070272.881
  20346345.141    -6738828.81149  -5247054.35248  20346344.529    20346350.008
  23558082.134    -8932776.99649  -6944694.42545  23558082.049    23558088.435
 03  3 25  1 11 30.0000000  0  8G31G23G 3G17G14G18G15G 9
  22946406.909   -10431191.90449  -7895132.80046  22946406.493    22946412.656
  22124884.417     7243642.42949   5644950.79047  22124884.021    22124889.503
  21668295.750   -16697617.39349 -12996418.35847  21668295.561    21668301.272
  22179493.021     6948419.06949   5412994.10746  22179492.487    22179499.056
  21226760.929   -23288257.45149 -17890322.37747  21226760.540    21226765.329
  21078547.942       67470.00449     56312.23247  21078547.625    21078551.805
  20350218.694    -6718473.08849  -5231192.75148  20350218.077    20350223.560
  23553246.585    -8958188.10049  -6964495.25445  23553246.497    23553252.845
 03  3 25  1 12  0.0000000  0  8G31G23G 3G17G14G18G15G 9
  22935734.871   -10487273.51949  -7938832.71546  22935734.462    22935740.635
  22135266.214     7298199.35549   5687462.68447  22135265.824    22135271.348
  21667093.403   -16703935.92749 -13001341.88447  21667093.194    21667098.916
  22192074.017     7014532.71949   5464511.21846  22192073.457    22192080.044
  21212867.943   -23361265.03249 -17947211.35747  21212867.637    21212872.418
  21086862.438      111162.74149     90358.53047  21086862.109    21086866.229
  20354166.610    -6697726.51949  -5215026.58848  20354165.994    20354171.465
  23548509.611    -8983080.99549  -6983892.24845  23548509.497    23548515.809
 03  3 25  1 12 30.0000000  0  8G31G23G 3G17G14G18G15G 9
  22925158.086   -10542854.64349  -7982142.65546  22925157.734    22925163.865
  22145661.801     7352828.63249   5730030.94047  22145661.408    22145666.966
  21665999.092   -16709686.45149 -13005822.82047  21665998.901    21666004.634
  22204714.107     7080956.93449   5516270.32446  22204713.587    22204720.195
  21199059.353   -23433829.69949 -18003755.21847  21199059.017    21199063.739
  21095212.513      155042.63449    124550.65847  21095212.169    21095216.268
  20358189.349    -6676586.79149  -5198554.08048  20358188.749    20358194.206
  23543871.916    -9007451.97749  -7002882.58245  23543871.817    23543878.035
 03  3 25  1 13  0.0000000  0  8G31G23G 3G17G14G18G15G 9
  22914677.057   -10597932.79549  -8025060.64346  22914676.720    22914682.799
  22156071.211     7407530.32349   5772655.63147  22156070.811    22156076.405
  21665013.094   -16714868.24849 -13009860.58647  21665012.864    21665018.583
  22217413.449     7147692.49749   5568272.04646  22217412.945    22217419.589
  21185335.539   -23505948.94649 -18059951.99047  21185335.148    21185339.882
  21103598.117      199109.54149    158888.50547  21103597.793    21103601.952
  20362287.174    -6655052.51049  -5181774.12148  20362286.572    20362292.036
  23539334.027    -9031298.54849  -7021464.27945  23539333.938    23539340.158
 03  3 25  1 13 30.0000000  0  8G31G23G 3G17G14G18G15G 9
  22904291.969   -10652506.31849  -8067585.43746  22904291.599    22904297.748
  22166494.215     7462303.48949   5815336.01447  22166493.806    22166499.392
  21664135.201   -16719481.34349 -13013455.21147  21664135.021    21664140.729
  22230172.037     7214738.86649   5620515.94646  22230171.522    22230178.076
  21171696.743   -23577620.92149 -18115800.24647  21171696.370    21171701.154
  21112019.063      243361.96949    193370.91047  21112018.744    21112022.916
  20366460.202    -6633123.02849  -5164686.21748  20366459.603    20366465.067
  23534896.276    -9054618.91249  -7039635.94745  23534896.150    23534902.459
 03  3 25  1 14  0.0000000  0  8G31G23G 3G17G14G18G15G 9
  22894002.534   -10706577.67049  -8109718.92146  22894002.162    22894008.235
  22176929.883     7517143.07549   5858068.15647  22176929.461    22176935.014
  21663364.769   -16723530.17949 -13016610.14847  21663364.555    21663370.227
  22242988.936     7282091.43949   5672998.45046  22242988.349    22242994.790
  21158142.659   -23648848.05949 -18171301.87247  21158142.283    21158147.022
  21120474.393      287794.81849    227993.91347  21120474.040    21120478.187
  20370707.773    -6610802.00849  -5147293.21148  20370707.183    20370712.608
  23530558.076    -9077415.54449  -7057399.49545  23530558.024    23530564.313
 03  3 25  1 14 30.0000000  0  8G31G23G 3G17G14G18G15G 9
  22883810.365   -10760138.06049  -8151454.26346  22883809.968    22883815.978
  22187379.347     7572055.25349   5900856.86047  22187378.917    22187384.431
  21662702.967   -16727007.73349 -13019319.93847  21662702.773    21662708.520
  22255865.382     7349757.81849   5725725.47346  22255864.786    22255871.336
  21144674.833   -23719621.74149 -18226450.15247  21144674.437    21144679.167
  21128965.173      332414.04549    262762.13347  21128964.802    21128968.915
  20375031.298    -6588081.90149  -5129589.23448  20375030.700    20375036.097
  23526321.413    -9099679.65649  -7074748.12545  23526321.237    23526327.485
 03  3 25  1 15  0.0000000  0  8G31G23G 3G17G14G18G15G 9
  22873714.453   -10813192.10349  -8192795.03246  22873714.047    22873720.131
  22197841.301     7627033.01249   5943696.66947  22197840.864    22197846.368
  21662148.641   -16729920.48649 -13021589.61947  21662148.497    21662154.263
  22268800.191     7417730.93849   5778691.52646  22268799.641    22268806.286
  21131292.454   -23789946.26749 -18281248.44247  21131292.111    21131296.830
  21137490.002      377212.36049    297669.90347  21137489.660    21137493.742
  20379429.658    -6564968.27849  -5111578.62048  20379429.065    20379434.468
  23522185.123    -9121415.68549  -7091685.24245  23522184.940    23522191.131
 03  3 25  1 15 30.0000000  0  8G31G23G 3G17G14G18G15G 9
  22863716.079   -10865733.60449  -8233736.42546  22863715.739    22863721.794
  22208316.425     7682080.15649   5986590.54547  22208315.973    22208321.480
  21661702.704   -16732263.89249 -13023415.65747  21661702.535    21661708.326
  22281794.204     7486014.98949   5831899.86646  22281793.665    22281800.329
  21117996.770   -23859815.40449 -18335691.88147  21117996.405    21118001.116
  21146049.576      422193.20449    332719.90647  21146049.245    21146053.345
  20383903.877    -6541456.00749  -5093257.37248  20383903.267    20383908.723
  23518150.580    -9142617.32749  -7108205.96345  23518150.493    23518156.595
 03  3 25  1 16  0.0000000  0  8G31G23G 3G17G14G18G15G 9
  22853815.363   -10917762.58349  -8274278.45046  22853814.964    22853820.952
  22218804.265     7737194.11849   6029536.48847  22218803.832    22218809.287
  21661364.706   -16734040.07149 -13024799.69947  21661364.529    21661370.332
  22294847.034     7554608.13049   5885349.03446  22294846.519    22294853.119
  21104787.682   -23929229.33649 -18389780.61747  21104787.310    21104792.014
  21154643.390      467353.85749    367910.01747  21154643.025    21154647.127
  20388453.718    -6517546.51049  -5074626.59948  20388453.128    20388458.556
  23514217.702    -9163284.67149  -7124310.34745  23514217.636    23514223.806
 03  3 25  1 16 30.0000000  0  8G31G23G 3G17G14G18G15G 9
  22844012.263   -10969277.94249  -8314420.25946  22844011.860    22844017.809
  22229304.606     7792373.63949   6072533.51847  22229304.163    22229309.546
  21661134.565   -16735249.56249 -13025742.17047  21661134.389    21661140.165
  22307958.479     7623508.93549   5939037.95346  22307958.012    22307964.506
  21091665.477   -23998186.54649 -18443513.46847  21091665.144    21091669.864
  21163271.095      512692.78049    403239.04047  21163270.743    21163274.821
  20393079.158    -6493239.73549  -5055686.26048  20393078.546    20393083.988
  23510386.570    -9183416.67649  -7139997.61245  23510386.598    23510392.823
 03  3 25  1 17  0.0000000  0  8G31G23G 3G17G14G18G15G 9
  22834307.366   -11020277.61749  -8354160.24346  22834306.978    22834312.868
  22239817.345     7847618.27249   6115581.27947  22239816.885    22239822.275
  21661012.301   -16735892.09649 -13026242.85647  21661012.113    21661017.891
  22321128.559     7692718.16549   5992967.19446  22321128.055    22321134.642
  21078630.679   -24066685.09649 -18496888.91747  21078630.308    21078634.995
  21171932.683      558209.61449    438706.69547  21171932.326    21171936.389
  20397780.380    -6468534.54949  -5036435.46748  20397779.781    20397785.240
  23506657.970    -9203010.94249  -7155265.83245  23506657.910    23506664.097
 03  3 25  1 17 30.0000000  0  8G31G23G 3G17G14G18G15G 9
  22824700.691   -11070760.72449  -8393497.70546  22824700.319    22824706.221
  22250342.144     7902926.77349   6158678.81147  22250341.709    22250347.207
  21660997.677   -16735968.96849 -13026302.76447  21660997.493    21661003.288
  22334357.104     7762234.83249   6047136.01046  22334356.616    22334363.302
  21065683.308   -24134723.90249 -18549906.12247  21065682.901    21065687.601
  21180627.747      603902.40449    474311.46947  21180627.397    21180631.419
  20402557.418    -6443431.11449  -5016874.35248  20402556.834    20402562.245
  23503031.987    -9222066.47549  -7170114.24145  23503031.730    23503037.849
 03  3 25  1 18  0.0000000  0  8G31G23G 3G17G14G18G15G 9
  22815192.858   -11120724.51649  -8432430.50946  22815192.501    22815198.325
  22260879.129     7958299.34649   6201826.26447  22260878.704    22260884.303
  21661090.933   -16735478.99849 -13025920.98247  21661090.739    21661096.517
  22347644.433     7832059.75949   6101545.01446  22347643.938    22347650.543
  21052823.892   -24202300.21749 -18602562.94947  21052823.514    21052828.225
  21189356.297      649771.29249    510053.46147  21189355.934    21189359.953
  20407410.552    -6417927.76149  -4997001.61448  20407409.944    20407415.369
  23499508.813    -9240580.67649  -7184540.85545  23499508.629    23499514.616
 03  3 25  1 18 30.0000000  0  8G31G23G 3G17G14G18G15G 9
  22805784.082   -11170168.23049  -8470958.06446  22805783.724    22805789.428
  22271428.065     8013734.53949   6245022.51847  22271427.651    22271433.302
  21661291.831   -16734423.37449 -13025098.42647  21661291.630    21661297.381
  22360990.107     7902191.76349   6156193.31046  22360989.619    22360996.243
  21040052.641   -24269413.25849 -18654858.78047  21040052.295    21040056.991
  21198118.103      695814.66449    545931.41647  21198117.719    21198121.760
  20412339.631    -6392024.93749  -4976817.59348  20412339.022    20412344.487
  23496088.789    -9258552.71249  -7198545.00845  23496088.716    23496094.582
 03  3 25  1 19  0.0000000  0  8G31G23G 3G17G14G18G15G 9
  22796474.588   -11219089.48949  -8509078.50746  22796474.249    22796479.999
  22281988.963     8069232.52049   6288267.69247  22281988.570    22281994.266
  21661600.399   -16732801.64549 -13023834.76247  21661600.246    21661605.979
  22374394.242     7972631.18449   6211081.12746  22374393.790    22374400.489
  21027370.099   -24336060.44749 -18706791.61547  21027369.755    21027374.401
  21206912.962      742032.15449    581945.03947  21206912.610    21206916.625
  20417345.069    -6365721.11049  -4956321.11348  20417344.486    20417349.940
  23492772.200    -9275980.33949  -7212124.94445  23492772.303    23492778.213
 03  3 25  1 19 30.0000000  0  8G31G23G 3G17G14G18G15G 9
  22787265.009   -11267486.04849  -8546790.08046  22787264.655    22787270.464
  22292561.862     8124793.15149   6331561.69247  22292561.431    22292567.123
  21662016.784   -16730613.51149 -13022129.73047  21662016.598    21662022.394
  22387857.067     8043378.65149   6266208.99546  22387856.609    22387863.280
  21014776.641   -24402239.45549 -18758359.62547  21014776.273    21014780.917
  21215740.943      788423.43349    618094.09747  21215740.588    21215744.582
  20422427.061    -6339015.09949  -4935511.22848  20422426.468    20422431.951
  23489559.802    -9292861.41249  -7225278.98645  23489559.896    23489565.798
 03  3 25  1 20  0.0000000  0  8G31G23G 3G17G14G18G15G 9
  22778154.939   -11315359.67949  -8584094.20346  22778154.542    22778160.380
  22303145.940     8180412.39349   6374901.34947  22303145.464    22303151.117
  21662540.275   -16727862.45549 -13019986.07547  21662540.115    21662545.906
  22401377.834     8114430.26649   6321573.84646  22401377.329    22401383.980
  21002271.889   -24467952.13849 -18809564.27447  21002271.540    21002276.198
  21224601.179      834984.48249    654375.43647  21224600.845    21224604.884
  20427585.096    -6311909.46249  -4914389.95248  20427584.508    20427589.984
  23486451.239    -9309197.45749  -7238008.34145  23486451.268    23486457.118
 03  3 25  1 20 30.0000000  0  8G31G23G 3G17G14G18G15G 9
  22769145.405   -11362704.98749  -8620986.63246  22769145.009    22769150.855
  22313741.624     8236093.37249   6418289.12247  22313741.169    22313746.842
  21663171.608   -16724545.01349 -13017401.07947  21663171.438    21663177.189
  22414957.107     8185789.83649   6377178.67346  22414956.598    22414963.323
  20989856.964   -24533192.81549 -18860401.12547  20989856.625    20989861.266
  21233494.260      881718.00949    690791.17147  21233493.938    21233497.997
  20432819.966    -6284400.11549  -4892954.09348  20432819.393    20432824.819
  23483447.457    -9324983.06349  -7250308.78945  23483447.308    23483453.235
 03  3 25  1 21  0.0000000  0  8G31G23G 3G17G14G18G15G 9
  22760236.021   -11409524.26449  -8657469.18046  22760235.597    22760241.435
  22324348.298     8291831.82049   6461721.67247  22324347.826    22324353.495
  21663909.899   -16720665.34249 -13014377.97847  21663909.737    21663915.526
  22428594.252     8257453.39249   6433020.36646  22428593.757    22428600.477
  20977531.476   -24597963.58949 -18910871.81847  20977531.127    20977535.767
  21242419.344      928619.32049    727337.65047  21242418.979    21242423.020
  20438131.047    -6256490.33549  -4871206.22448  20438130.477    20438135.869
  23480547.692    -9340220.57949  -7262182.11245  23480547.686    23480553.642
 03  3 25  1 21 30.0000000  0  8G31G23G 3G17G14G18G15G 9
  22751427.578   -11455812.81649  -8693538.16046  22751427.175    22751433.030
  22334966.419     8347630.29749   6505201.00747  22334965.955    22334971.530
  21664755.740   -16716220.54549 -13010914.51847  21664755.582    21664761.383
  22442289.783     8329423.57049   6489100.99546  22442289.296    22442295.998
  20965296.222   -24662259.83749 -18960972.75047  20965295.928    20965300.554
  21251376.740      975690.86649    764016.78747  21251376.388    21251380.399
  20443519.026    -6228176.26749  -4849143.31748  20443518.447    20443523.868
  23477753.567    -9354905.25849  -7273624.66245  23477753.241    23477759.271
 03  3 25  1 22  0.0000000  0  8G31G23G 3G17G14G18G15G 9
  22742720.232   -11501569.83449  -8729192.96046  22742719.872    22742725.738
  22345595.658     8403487.38349   6548726.01047  22345595.196    22345600.743
  21665708.895   -16711212.05049 -13007011.81847  21665708.702    21665714.468
  22456043.315     8401699.20149   6545419.64146  22456042.835    22456049.628
  20953151.532   -24726080.73949 -19010703.27647  20953151.205    20953155.796
  21260366.196     1022930.75749    800827.09647  21260365.865    21260369.849
  20448983.881    -6199458.31549  -4826765.69048  20448983.313    20448988.765
  23475064.345    -9369036.41949  -7284635.94345  23475064.031    23475070.103
 03  3 25  1 22 30.0000000  0  8G31G23G 3G17G14G18G15G 9
  22734114.063   -11546796.39249  -8764434.43446  22734113.610    22734119.334
  22356235.504     8459399.82649   6592294.14547  22356235.021    22356240.549
  21666768.611   -16705642.79349 -13002672.15847  21666768.448    21666774.256
  22469854.491     8474277.37549   6601974.04146  22469854.014    22469860.848
  20941097.041   -24789427.24049 -19060064.14447  20941096.720    20941101.274
  21269387.066     1070335.70849    837766.02347  21269386.720    21269390.686
  20454525.198    -6170338.50549  -4804074.92948  20454524.617    20454530.073
  23472480.475    -9382615.10249  -7295216.70845  23472480.130    23472486.114
 03  3 25  1 23  0.0000000  0  8G31G23G 3G17G14G18G15G 9
  22725609.641   -11591486.54849  -8799257.91346  22725609.239    22725615.091
  22366886.571     8515371.67449   6635908.56647  22366886.107    22366891.608
  21667935.941   -16699508.51749 -12997892.22647  21667935.770    21667941.596
  22483724.139     8547162.28349   6658767.44046  22483723.672    22483730.417
  20929134.062   -24852293.02149 -19109050.42347  20929133.752    20929138.251
  21278440.056     1117909.49849    874836.51147  21278439.703    21278443.725
  20460143.933    -6140811.87749  -4781067.17448  20460143.357    20460148.797
  23470002.553    -9395635.26849  -7305362.22145  23470002.486    23470008.340
 03  3 25  1 23 30.0000000  0  8G31G23G 3G17G14G18G15G 9
  22717207.018   -11635641.99049  -8833664.72946  22717206.695    22717212.612
  22377548.242     8571399.25349   6679566.41247  22377547.786    22377553.313
  21669210.132   -16692812.99149 -12992674.95747  21669209.928    21669215.724
  22497651.329     8620350.32849   6715797.06146  22497650.840    22497657.609
  20917262.247   -24914680.07249 -19157663.67247  20917261.901    20917266.401
  21287524.369     1165647.97949    912035.32847  21287524.024    21287528.055
  20465839.597    -6110881.06049  -4757744.47548  20465839.014    20465844.423
  23467630.929    -9408098.82149  -7315074.05845  23467630.778    23467636.630
 03  3 25  1 24  0.0000000  0  8G31G23G 3G17G14G18G15G 9
  22708906.494   -11679262.47349  -8867654.70446  22708906.082    22708911.904
  22388220.174     8627480.76049   6723266.29147  22388219.768    22388225.268
  21670590.759   -16685557.74749 -12987021.53547  21670590.572    21670596.398
  22511636.019     8693840.30749   6773061.95246  22511635.568    22511642.310
  20905481.518   -24976587.81749 -19205903.42747  20905481.187    20905485.676
  21296639.625     1213548.90449    949360.73147  21296639.263    21296643.302
  20471612.030    -6080546.66649  -4734107.28148  20471611.438    20471616.881
  23465365.089    -9420005.23649  -7324351.75845  23465364.976    23465370.975
 03  3 25  1 24 30.0000000  0  8G31G23G 3G17G14G18G15G 9
  22700708.331   -11722343.55049  -8901224.34946  22700707.937    22700713.779
  22398902.932     8683618.68449   6767010.11647  22398902.492    22398907.919
  21672078.370   -16677740.35749 -12980930.08747  21672078.212    21672084.008
  22525678.799     8767634.80949   6830564.12846  22525678.307    22525685.027
  20893792.886   -25038011.66149 -19253766.12847  20893792.578    20893797.034
  21305786.172     1261614.73749    986814.62547  21305785.831    21305789.867
  20477461.945    -6049805.17849  -4710152.88148  20477461.348    20477466.774
  23463206.133    -9431350.19849  -7333191.95745  23463206.080    23463212.018
 03  3 25  1 25  0.0000000  0  8G31G23G 3G17G14G18G15G 9
  22692612.591   -11764886.51049  -8934374.68746  22692612.242    22692618.154
  22409595.766     8739809.74449   6810795.36747  22409595.330    22409600.693
  21673672.423   -16669364.14549 -12974403.19047  21673672.209    21673677.948
  22539778.744     8841730.62949   6888301.10446  22539778.236    22539785.025
  20882196.106   -25098952.82649 -19301252.71047  20882195.807    20882200.284
  21314963.531     1309842.01349   1024394.32547  21314963.188    21314967.228
  20483388.913    -6018658.89049  -4685883.04148  20483388.305    20483393.744
  23461153.981    -9442135.19449  -7341595.80845  23461153.751    23461159.545
 03  3 25  1 25 30.0000000  0  8G31G23G 3G17G14G18G15G 9
  22684619.899   -11806888.27549  -8967103.31446  22684619.584    22684625.559
  22420298.868     8796054.94349   6854622.79147  22420298.470    22420303.786
  21675372.873   -16660428.00749 -12967439.98047  21675372.672    21675378.457
  22553936.276     8916129.24749   6946274.02846  22553935.755    22553942.586
  20870691.791   -25159408.31449 -19348360.84547  20870691.481    20870695.996
  21324171.725     1358231.42049   1062100.35847  21324171.393    21324175.426
  20489393.309    -5987105.51749  -4661295.99948  20489392.718    20489398.147
  23459208.649    -9452357.43149  -7349561.12845  23459208.518    23459214.366
 03  3 25  1 26  0.0000000  0  8G31G23G 3G17G14G18G15G 9
  22676730.483   -11848347.72249  -8999409.34646  22676730.146    22676736.104
  22431012.149     8852353.55549   6898491.83547  22431011.744    22431017.107
  21677179.827   -16650932.47349 -12960040.88047  21677179.641    21677185.402
  22568151.349     8990829.78149   7004482.19946  22568150.844    22568157.592
  20859280.091   -25219376.70149 -19395089.42247  20859279.821    20859284.338
  21333410.610     1406781.97149   1099931.95447  21333410.277    21333414.361
  20495475.209    -5955144.96649  -4636391.67148  20495474.618    20495480.036
  23457370.461    -9462015.50349  -7357086.87045  23457370.571    23457376.441
 03  3 25  1 26 30.0000000  0  8G31G23G 3G17G14G18G15G 9
  22668944.335   -11889264.24449  -9031292.32446  22668943.957    22668949.913
  22441735.372     8908704.34549   6942401.54047  22441734.950    22441740.353
  21679093.032   -16640878.86149 -12952206.91247  21679092.836    21679098.576
  22582423.782     9065831.49349   7062925.05846  22582423.313    22582429.973
  20847961.313   -25278857.32549 -19441437.92247  20847961.037    20847965.495
  21342679.798     1455491.94849   1137887.77647  21342679.480    21342683.561
  20501634.521    -5922777.45349  -4611170.23048  20501633.934    20501639.389
  23455640.131    -9471108.86949  -7364172.58445  23455640.158    23455646.001
 03  3 25  1 27  0.0000000  0  8G31G23G 3G17G14G18G15G 9
  22661261.606   -11929637.16149  -9062751.71046  22661261.255    22661267.173
  22452468.240     8965106.23149   6986351.05347  22452467.850    22452473.288
  21681112.070   -16630268.37049 -12943939.01147  21681111.909    21681117.725
  22596753.256     9141133.01149   7121601.54346  22596752.723    22596759.417
  20836735.564   -25337849.20249 -19487405.58047  20836735.238    20836739.681
  21351979.050     1504359.96949   1175966.75447  21351978.723    21351982.820
  20507871.295    -5890003.02049  -4585631.71048  20507870.717    20507876.144
  23454016.977    -9479636.71949  -7370817.61245  23454017.262    23454023.163
 03  3 25  1 27 30.0000000  0  8G31G23G 3G17G14G18G15G 9
  22653682.698   -11969465.05649  -9093786.40846  22653682.262    22653688.194
  22463210.856     9021558.85249   7030340.10447  22463210.423    22463215.884
  21683237.082   -16619101.54049 -12935237.59847  21683236.897    21683242.713
  22611139.743     9216734.22949   7180511.55746  22611139.164    22611145.852
  20825602.975   -25396350.88149 -19532991.26547  20825602.665    20825607.138
  21361308.272     1553385.59149   1214168.53747  21361307.964    21361312.058
  20514185.490    -5856821.64749  -4559776.09548  20514184.885    20514190.316
  23452502.630    -9487597.66449  -7377020.93645  23452502.410    23452508.153
 03  3 25  1 28  0.0000000  0  8G31G23G 3G17G14G18G15G 9
  22646207.547   -12008746.62149  -9124395.39146  22646207.137    22646213.163
  22473962.969     9078061.73349   7074368.31947  22473962.530    22473967.982
  21685467.713   -16607379.17749 -12926103.30047  21685467.543    21685473.406
  22625583.164     9292635.05649   7239655.02646  22625582.645    22625589.279
  20814564.045   -25454360.78049 -19578193.74447  20814563.727    20814568.168
  21370667.391     1602567.94449   1252492.45047  21370667.055    21370671.138
  20520577.248    -5823232.66249  -4533602.86348  20520576.650    20520582.067
  23451095.340    -9494990.95049  -7382781.86845  23451095.485    23451101.228
 03  3 25  1 28 30.0000000  0  8G31G23G 3G17G14G18G15G 9
  22638837.173   -12047478.26449  -9154575.87446  22638836.779    22638842.689
  22484724.966     9134616.62449   7118437.06446  22484724.549    22484729.989
  21687804.504   -16595099.66349 -12916534.85847  21687804.325    21687810.151
  22640083.766     9368836.73649   7299032.93046  22640083.297    22640089.945
  20803619.378   -25511875.43849 -19623010.32247  20803619.034    20803623.477
  21380056.574     1651908.55549   1290939.67747  21380056.245    21380060.316
  20527047.084    -5789233.32649  -4507109.87648  20527046.501    20527051.938
  23449796.690    -9501812.80549  -7388097.56645  23449797.174    23449803.016
 03  3 25  1 29  0.0000000  0  8G31G23G 3G17G14G18G15G 9
  22631571.151   -12085661.61649  -9184329.11646  22631570.750    22631576.573
  22495496.312     9191220.49249   7162543.96846  22495495.872    22495501.304
  21690246.567   -16582266.63749 -12906535.11247  21690246.385    21690252.189
  22654641.166     9445336.30849   7358642.95246  22654640.728    22654647.389
  20792768.597   -25568896.35249 -19667442.16448  20792768.276    20792772.691
  21389475.220     1701403.89649   1329507.47447  21389474.885    21389478.969
  20533594.630    -5754826.09449  -4480299.04748  20533594.038    20533599.406
  23448607.584    -9508064.71249  -7392969.17045  23448607.457    23448613.367
 03  3 25  1 29 30.0000000  0  8G31G23G 3G17G14G18G15G 9
  22624409.503   -12123296.02149  -9213654.60246  22624409.158    22624415.047
  22506276.799     9247872.20749   7206688.16546  22506276.359    22506281.786
  21692793.738   -16568881.32549 -12896105.01147  21692793.522    21692799.352
  22669255.118     9522132.92749   7418484.45146  22669254.652    22669261.378
  20782012.026   -25625422.58349 -19711488.53948  20782011.663    20782016.081
  21398923.081     1751052.49149   1368194.69247  21398922.734    21398926.796
  20540219.755    -5720011.11049  -4453170.48748  20540219.132    20540224.528
  23447526.036    -9513746.34349  -7397396.37745  23447526.256    23447532.173
 03  3 25  1 30  0.0000000  0  8G31G23G 3G17G14G18G15G 9
  22617353.172   -12160377.37649  -9242549.15246  22617352.812    22617358.642
  22517066.787     9304574.11449   7250871.46846  22517066.389    22517071.816
  21695446.330   -16554941.52449 -12885242.83747  21695446.135    21695451.986
  22683925.867     9599228.38449   7478558.81146  22683925.415    22683932.222
  20771350.327   -25681449.96149 -19755146.19948  20771349.984    20771354.394
  21408400.488     1800856.48549   1407002.99847  21408400.133    21408404.149
  20546922.975    -5684785.19849  -4425721.72148  20546922.372    20546927.821
  23446554.412    -9518853.75249  -7401376.14245  23446554.378    23446560.219
 03  3 25  1 30 30.0000000  0  8G31G23G 3G17G14G18G15G 9
  22610401.545   -12196908.13349  -9271014.65546  22610401.195    22610407.055
  22527865.689     9361322.21249   7295090.76147  22527865.213    22527870.664
  21698203.750   -16540451.49449 -12873951.91847  21698203.536    21698209.392
  22698652.889     9676619.30749   7538863.39146  22698652.430    22698659.227
  20760783.177   -25736980.63949 -19798416.81748  20760782.819    20760787.231
  21417906.628     1850811.55949   1445929.02947  21417906.272    21417910.308
  20553703.856    -5649151.39149  -4397955.12148  20553703.257    20553708.725
  23445691.445    -9523389.38449  -7404910.34745  23445691.226    23445697.035
 03  3 25  1 31  0.0000000  0  8G31G23G 3G17G14G18G15G 9
  22603555.488   -12232884.17149  -9299047.91646  22603555.125    22603561.006
  22538673.752     9418118.96449   7339347.97447  22538673.291    22538678.782
  21701066.180   -16525409.37149 -12862230.79147  21701065.975    21701071.842
  22713436.562     9754307.82049   7599399.86746  22713436.116    22713442.863
  20750311.256   -25792010.56049 -19841297.23848  20750310.909    20750315.312
  21427441.926     1900919.82349   1484974.42347  21427441.581    21427445.628
  20560563.014    -5613106.46549  -4369868.17448  20560562.419    20560567.843
  23444937.778    -9527349.00749  -7407995.75845  23444937.608    23444943.491
 03  3 25  1 31 30.0000000  0  8G31G23G 3G17G14G18G15G 9
  22596814.847   -12268306.61249  -9326649.79946  22596814.451    22596820.330
  22549490.455     9474961.61749   7383640.94046  22549490.033    22549495.594
  21704033.050   -16509818.29549 -12850081.91947  21704032.831    21704038.669
  22728276.351     9832291.40949   7660166.26846  22728275.922    22728282.690
  20739934.482   -25846540.72449 -19883788.23448  20739934.152    20739938.526
  21437005.759     1951178.29949   1524136.87147  21437005.440    21437009.516
  20567500.005    -5576652.46449  -4341462.45948  20567499.396    20567504.791
  23444293.466    -9530733.97649  -7410633.35745  23444293.443    23444299.315
 03  3 25  1 32  0.0000000  0  8G31G23G 3G17G14G18G15G 9
  22590179.941   -12303172.83049  -9353818.26246  22590179.564    22590185.505
  22560316.208     9531851.33649   7427970.58546  22560315.759    22560321.345
  21707104.554   -16493677.43849 -12837504.63747  21707104.344    21707110.191
  22743172.325     9910570.61949   7721163.02046  22743171.910    22743178.761
  20729653.392   -25900568.21149 -19925887.53548  20729653.030    20729657.400
  21446598.366     2001587.83349   1563417.02847  21446598.039    21446602.166
  20574515.088    -5539787.71449  -4312736.67648  20574514.480    20574519.924
  23443759.295    -9533541.87349  -7412821.30145  23443759.193    23443764.939
 03  3 25  1 32 30.0000000  0  8G31G23G 3G17G14G18G15G 9
  22583650.981   -12337482.73649  -9380553.23746  22583650.614    22583656.509
  22571150.636     9588786.73349   7472335.82446  22571150.188    22571155.786
  21710280.294   -16476988.78149 -12824500.50147  21710280.126    21710285.990
  22758124.464     9989144.47249   7782389.35846  22758124.019    22758130.906
  20719467.883   -25954093.07049 -19967595.18048  20719467.551    20719471.911
  21456219.300     2052146.36049   1602813.28247  21456218.969    21456223.123
  20581608.250    -5502512.66349  -4283691.18048  20581607.640    20581613.129
  23443334.449    -9535772.63649  -7414559.52745  23443334.647    23443340.424
 03  3 25  1 33  0.0000000  0  8G31G23G 3G17G14G18G15G 9
  22577228.119   -12371235.14449  -9406853.79846  22577227.721    22577233.555
  22581993.675     9645767.49149   7516736.40246  22581993.232    22581998.824
  21713560.241   -16459752.97749 -12811070.02147  21713560.045    21713565.887
  22773132.587    10068012.61649   7843845.02146  22773132.118    22773139.036
  20709378.428   -26007113.59149 -20008909.83248  20709378.066    20709382.405
  21465868.587     2102853.83549   1642325.59847  21465868.269    21465872.394
  20588779.552    -5464827.01249  -4254325.73648  20588778.965    20588784.457
  23443020.070    -9537425.34949  -7415847.33845  23443020.145    23443025.937
 03  3 25  1 33 30.0000000  0  8G31G23G 3G17G14G18G15G 9
  22570911.478   -12404428.93449  -9432719.06946  22570911.094    22570916.992
  22592845.367     9702793.26749   7561172.07746  22592844.909    22592850.475
  21716944.017   -16441970.80549 -12797213.79147  21716943.833    21716949.701
  22788196.610    10147174.41849   7905529.50646  22788196.140    22788203.156
  20699385.102   -26059628.43649 -20049830.45648  20699384.774    20699389.123
  21475546.172     2153709.61949   1681953.48447  21475545.839    21475549.881
  20596029.161    -5426730.25349  -4224639.95248  20596028.576    20596034.003
  23442815.911    -9538498.85149  -7416683.81045  23442815.816    23442821.633
 03  3 25  1 34  0.0000000  0  8G31G23G 3G17G14G18G15G 9
  22564701.088   -12437064.68849  -9458149.51346  22564700.713    22564706.559
  22603705.220     9759862.17449   7605641.34446  22603704.781    22603710.265
  21720431.379   -16423644.83749 -12782933.83647  21720431.188    21720437.022
  22803316.241    10226627.90649   7967441.27446  22803315.722    22803322.680
  20689488.014   -26111637.99049 -20090357.34148  20689487.676    20689491.972
  21485251.491     2204711.34349   1721695.09247  21485251.140    21485255.149
  20603356.696    -5388223.95749  -4194635.03747  20603356.083    20603361.504
  23442721.263    -9538993.81449  -7417069.46145  23442721.572    23442727.360
 03  3 25  1 34 30.0000000  0  8G31G23G 3G17G14G18G15G 9
  22558597.670   -12469138.51749  -9483142.09146  22558597.288    22558603.098
  22614573.820     9816976.78449   7650146.23646  22614573.367    22614578.821
  21724022.580   -16404773.07649 -12768228.58347  21724022.362    21724028.211
  22818491.757    10306375.22349   8029582.00246  22818491.177    22818498.154
  20679687.769   -26163138.46049 -20130487.53848  20679687.420    20679691.716
  21494984.941     2255860.94549   1761551.93347  21494984.602    21494988.594
  20610762.682    -5349304.84449  -4164308.45247  20610762.096    20610767.551
  23442737.987    -9538906.44449  -7417001.34945  23442738.190    23442743.937
 03  3 25  1 35  0.0000000  0  8G31G23G 3G17G14G18G15G 9
  22552600.575   -12500653.13949  -9507698.92146  22552600.240    22552606.033
  22625450.242     9874132.91049   7694683.47546  22625449.797    22625455.283
  21727716.666   -16385360.29049 -12753101.75447  21727716.485    21727722.396
  22833722.301    10386412.31549   8091948.53046  22833721.753    22833728.771
  20669983.915   -26214132.29649 -20170222.95848  20669983.598    20669987.911
  21504745.716     2307154.18249   1801520.69047  21504745.365    21504749.407
  20618246.644    -5309976.36249  -4133662.88547  20618246.085    20618251.517
  23442864.535    -9538239.79149  -7416481.85745  23442864.992    23442870.784
 03  3 25  1 35 30.0000000  0  8G31G23G 3G17G14G18G15G 9
  22546710.716   -12531604.86749  -9531817.13646  22546710.387    22546716.104
  22636335.037     9931333.00449   7739254.96346  22636334.582    22636340.090
  21731514.181   -16365404.52049 -12737551.82547  21731513.986    21731519.875
  22849008.366    10466740.77249   8154542.09246  22849007.771    22849014.814
  20660377.222   -26264615.80649 -20209560.71948  20660376.909    20660381.207
  21514534.191     2358593.17649   1841603.02547  21514533.838    21514537.919
  20625809.131    -5270235.61449  -4102696.07748  20625808.550    20625813.936
  23443102.692    -9536990.06349  -7415508.01045  23443102.878    23443108.589
 03  3 25  1 36  0.0000000  0  8G31G23G 3G17G14G18G15G 9
  22540927.766   -12561994.19649  -9555497.10946  22540927.431    22540933.215
  22647227.898     9988575.25949   7783859.30246  22647227.471    22647232.934
  21735414.424   -16344908.37049 -12721580.82247  21735414.256    21735420.133
  22864349.421    10547358.78449   8217361.28146  22864348.851    22864355.971
  20650867.584   -26314589.21649 -20248501.00448  20650867.262    20650871.504
  21524350.033     2410175.78249   1881797.26147  21524349.693    21524353.768
  20633449.796    -5230083.62849  -4071408.81947  20633449.210    20633454.637
  23443451.808    -9535157.71249  -7414080.17645  23443451.516    23443457.349
 03  3 25  1 36 30.0000000  0  8G31G23G 3G17G14G18G15G 9
  22535252.078   -12591820.13049  -9578738.08946  22535251.730    22535257.461
  22658128.687    10045859.29649   7828496.21346  22658128.274    22658133.742
  21739417.343   -16323872.85549 -12705189.53547  21739417.195    21739423.053
  22879745.586    10628266.42049   8280406.16146  22879745.072    22879752.188
  20641455.215   -26364051.31949 -20287042.87048  20641454.898    20641459.133
  21534193.055     2461901.15249   1922102.75347  21534192.719    21534196.768
  20641168.689    -5189520.24649  -4039800.99247  20641168.117    20641173.591
  23443911.603    -9532742.20949  -7412197.92445  23443911.088    23443917.017
 03  3 25  1 37  0.0000000  0  8G31G23G 3G17G14G18G15G 9
  22529683.760   -12621081.56649  -9601539.18946  22529683.435    22529689.228
  22669037.449    10103185.15949   7873165.70946  22669037.012    22669042.505
  21743522.831   -16302298.85449 -12688378.65447  21743522.652    21743528.449
  22895196.836    10709462.90749   8343676.11345  22895196.325    22895203.339
  20632140.461   -26413000.68049 -20325185.19548  20632140.137    20632144.358
  21544063.231     2513769.10449   1962519.34647  21544062.886    21544066.900
  20648966.056    -5148544.90049  -4007872.15147  20648965.479    20648970.940
  23444482.390    -9529742.36349  -7409860.37346  23444481.943    23444487.894
 03  3 25  1 37 30.0000000  0  8G31G23G 3G17G14G18G15G 9
  22524223.072   -12649777.33849  -9623899.52046  22524222.745    22524228.572
  22679954.150    10160552.78449   7917867.74746  22679953.695    22679959.236
  21747730.545   -16280187.15749 -12671148.78247  21747730.350    21747736.186
  22910703.059    10790948.20949   8407171.11946  22910702.521    22910709.430
  20622923.421   -26461436.24349 -20362927.15548  20622923.107    20622927.334
  21553960.476     2565779.28749   2003046.76147  21553960.114    21553964.130
  20656841.911    -5107157.26049  -3975622.04847  20656841.326    20656846.714
  23445164.479    -9526157.30749  -7407066.80845  23445164.161    23445170.070
 03  3 25  1 38  0.0000000  0  8G31G23G 3G17G14G18G15G 9
  22518870.301   -12677906.69649  -9645818.48846  22518869.921    22518875.663
  22690878.698    10217961.79949   7962602.04046  22690878.272    22690883.848
  21752040.287   -16257538.94249 -12653500.84147  21752040.136    21752046.006
  22926264.056    10872721.55049   8470890.58246  22926263.458    22926270.424
  20613804.418   -26509356.83249 -20400267.83648  20613804.100    20613808.292
  21563884.610     2617930.98649   2043684.45347  21563884.274    21563888.271
  20664796.252    -5065357.10549  -3943050.49747  20664795.650    20664801.031
  23445958.054    -9521986.35249  -7403816.66845  23445957.811    23445963.725
 03  3 25  1 38 30.0000000  0  8G31G23G 3G17G14G18G15G 9
  22513624.829   -12705471.80249  -9667297.77946  22513624.452    22513630.172
  22701810.514    10275408.78949   8007365.91746  22701810.084    22701815.700
  21756451.470   -16234358.32849 -12635438.05747  21756451.312    21756457.154
  22941878.954    10954778.95849   8534831.40746  22941878.408    22941885.462
  20604782.999   -26556764.55849 -20437208.89048  20604782.676    20604786.845
  21573834.974     2670220.39649   2084429.44747  21573834.625    21573838.607
  20672828.530    -5023147.33549  -3910159.76847  20672827.919    20672833.282
  23446862.644    -9517232.10349  -7400112.02645  23446862.515    23446868.294
 03  3 25  1 39  0.0000000  0  8G31G23G 3G17G14G18G15G 9
  22508487.845   -12732466.32049  -9688332.44146  22508487.509    22508493.306
  22712750.572    10332899.05349   8052163.51746  22712750.150    22712755.755
  21760964.789   -16210641.09349 -12616957.11547  21760964.608    21760970.439
  22957548.964    11037125.17749   8598997.26546  22957548.440    22957555.496
  20595860.436   -26603652.95249 -20473745.26148  20595860.103    20595864.295
  21583812.491     2722652.60149   2125285.71247  21583812.138    21583816.096
  20680939.825    -4980522.22849  -3876945.40047  20680939.204    20680944.541
  23447879.167    -9511887.98849  -7395947.76145  23447879.461    23447885.206
 03  3 25  1 39 30.0000000  0  8G31G23G 3G17G14G18G15G 9
  22503459.014   -12758893.35949  -9708924.93446  22503458.670    22503464.392
  22723698.113    10390428.40349   8096991.57446  22723697.661    22723703.219
  21765579.197   -16186392.13749 -12598061.85147  21765579.023    21765584.864
  22973273.261    11119756.02449   8663384.90646  22973272.744    22973279.724
  20587036.116   -26650024.72649 -20509879.08248  20587035.812    20587039.991
  21593816.319     2775223.04649   2166249.69447  21593815.972    21593819.886
  20689129.441    -4937485.46349  -3843410.25947  20689128.814    20689134.150
  23449007.873    -9505957.36749  -7391326.46845  23449008.040    23449013.763
 03  3 25  1 40  0.0000000  0  8G31G23G 3G17G14G18G15G 9
  22498537.921   -12784753.60749  -9729075.75546  22498537.587    22498543.296
  22734652.699    10447995.11049   8141848.74746  22734652.258    22734657.826
  21770294.376   -16161613.80249 -12578754.07847  21770294.199    21770300.049
  22989051.130    11202669.79649   8727993.01945  22989050.591    22989057.654
  20578310.128   -26695880.42849 -20545610.75748  20578309.763    20578313.897
  21603846.105     2827929.81749   2207319.90447  21603845.769    21603849.676
  20697397.166    -4894038.15849  -3809555.20947  20697396.570    20697401.903
  23450248.432    -9499440.97049  -7386248.75045  23450248.031    23450253.660
 03  3 25  1 40 30.0000000  0  8G31G23G 3G17G14G18G15G 9
  22493724.900   -12810045.53849  -9748783.73046  22493724.609    22493730.347
  22745614.511    10505599.67349   8186735.41646  22745614.059    22745619.629
  21775110.106   -16136306.88249 -12559034.41947  21775109.935    21775115.793
  23004882.983    11285866.08049   8792821.25645  23004882.421    23004889.411
  20569682.507   -26741218.41649 -20580939.02748  20569682.175    20569686.295
  21613901.785     2880772.90649   2248496.33747  21613901.448    21613905.371
  20705743.143    -4850179.85349  -3775379.90647  20705742.523    20705747.901
  23451600.034    -9492337.60349  -7380713.60445  23451599.745    23451605.357
 03  3 25  1 41  0.0000000  0  8G31G23G 3G17G14G18G15G 9
  22489021.016   -12834765.37649  -9768045.93746  22489020.695    22489026.387
  22756584.032    10563244.85849   8231653.73646  22756583.585    22756589.171
  21780026.871   -16110469.55549 -12538901.46047  21780026.671    21780032.510
  23020769.003    11369347.38649   8857871.59845  23020768.374    23020775.384
  20561154.236   -26786034.64749 -20615860.73448  20561153.929    20561158.051
  21623983.876     2933754.75249   2289780.88447  21623983.508    21623987.478
  20714167.843    -4805907.30249  -3740881.81447  20714167.231    20714172.676
  23453064.267    -9484643.74349  -7374718.35745  23453063.822    23453069.439
 03  3 25  1 41 30.0000000  0  8G31G23G 3G17G14G18G15G 9
  22484425.460   -12858914.85449  -9786863.69346  22484425.127    22484430.868
  22767560.780    10620928.18949   8276601.78146  22767560.356    22767565.956
  21785043.833   -16084105.24649 -12518357.86347  21785043.618    21785049.522
  23036708.582    11453111.13149   8923142.03045  23036708.079    23036715.017
  20552725.028   -26830330.45749 -20650376.91948  20552724.695    20552728.798
  21634091.813     2986872.52049   2331171.34047  21634091.460    21634095.482
  20722671.026    -4761222.58649  -3706062.55547  20722670.434    20722675.877
  23454640.220    -9476361.17149  -7368264.37345  23454639.841    23454645.503
 03  3 25  1 42  0.0000000  0  8G31G23G 3G17G14G18G15G 9
  22479938.375   -12882494.29649  -9805237.25846  22479938.052    22479943.781
  22778544.493    10678648.28849   8321578.47446  22778544.052    22778549.690
  21790160.629   -16057216.34949 -12497405.49247  21790160.426    21790166.299
  23052701.774    11537155.33649   8988631.01045  23052701.277    23052708.136
  20544394.753   -26874106.20949 -20684487.85948  20544394.412    20544398.513
  21644225.292     3040124.48149   2372666.36947  21644224.945    21644228.978
  20731252.526    -4716126.86849  -3670923.03747  20731251.933    20731257.315
  23456328.162    -9467490.50949  -7361352.15845  23456327.872    23456333.464
 03  3 25  1 42 30.0000000  0  8G31G23G 3G17G14G18G15G 9
  22475560.029   -12905503.04349  -9823166.13746  22475559.684    22475565.348
  22789535.214    10736405.10049   8366583.78646  22789534.744    22789540.431
  21795377.046   -16029804.14949 -12476045.35147  21795376.815    21795382.715
  23068748.034    11621478.96049   9054337.72345  23068747.509    23068754.389
  20536163.561   -26917361.17349 -20718192.99148  20536163.220    20536167.352
  21654384.306     3093510.43749   2414265.81247  21654383.962    21654387.980
  20739912.242    -4670619.87849  -3635463.04047  20739911.628    20739917.047
  23458128.182    -9458031.25849  -7353981.28945  23458127.816    23458133.515
 03  3 25  1 43  0.0000000  0  8G31G23G 3G17G14G18G15G 9
  22471290.845   -12927937.52749  -9840647.54346  22471290.499    22471296.194
  22800533.450    10794201.31549   8411619.78346  22800532.970    22800538.708
  21800693.266   -16001867.24949 -12454276.35247  21800693.044    21800698.969
  23084847.772    11706084.60249   9120264.18145  23084847.343    23084854.288
  20528032.216   -26960091.37249 -20751489.22248  20528031.909    20528036.032
  21664569.250     3147032.55449   2455971.35447  21664568.901    21664572.879
  20748650.738    -4624698.47049  -3599680.12347  20748650.168    20748655.593
  23460040.731    -9447980.01149  -7346149.12345  23460040.552    23460046.257
 03  3 25  1 43 30.0000000  0  8G31G23G 3G17G14G18G15G 9
  22467130.660   -12949799.06749  -9857682.49146  22467130.349    22467136.049
  22811538.779    10852034.85749   8456684.88046  22811538.311    22811544.035
  21806108.690   -15973408.67249 -12432100.85447  21806108.475    21806114.413
  23101000.977    11790969.80349   9186408.47345  23101000.520    23101007.399
  20520000.697   -27002297.46649 -20784377.05448  20520000.340    20520004.463
  21674779.613     3200688.38649   2497781.09147  21674779.273    21674783.208
  20757467.883    -4578364.28549  -3563575.56847  20757467.294    20757472.645
  23462066.032    -9437338.17549  -7337856.74845  23462065.560    23462071.278
 03  3 25  1 44  0.0000000  0  8G31G23G 3G17G14G18G15G 9
  22463079.219   -12971089.82249  -9874272.67246  22463078.874    22463084.604
  22822550.585    10909902.54549   8501776.58346  22822550.127    22822555.861
  21811622.686   -15944432.47349 -12409522.01247  21811622.498    21811628.431
  23117206.651    11876130.79649   9252767.66145  23117206.191    23117213.056
  20512068.371   -27043981.90549 -20816858.40348  20512068.031    20512072.146
  21685014.751     3254474.39349   2539692.26747  21685014.427    21685018.314
  20766362.968    -4531620.37149  -3527151.74347  20766362.367    20766367.710
  23464202.934    -9426108.21449  -7329106.11245  23464202.591    23464208.247
 03  3 25  1 44 30.0000000  0  8G31G23G 3G17G14G18G15G 9
  22459136.916   -12991806.49449  -9890415.51846  22459136.573    22459142.308
  22833569.451    10967807.05349   8546896.95946  22833568.999    22833574.747
  21817235.486   -15914937.41449 -12386538.86347  21817235.272    21817241.209
  23133465.246    11961569.82949   9319343.50745  23133464.815    23133471.700
  20504236.028   -27085141.05549 -20848930.43748  20504235.683    20504239.784
  21695275.150     3308393.20049   2581706.91347  21695274.804    21695278.715
  20775336.503    -4484464.09249  -3490406.59447  20775335.904    20775341.290
  23466452.016    -9414286.98149  -7319894.74445  23466452.043    23466457.673
 03  3 25  1 45  0.0000000  0  8G31G23G 3G17G14G18G15G 9
  22455303.938   -13011949.00249  -9906110.96746  22455303.577    22455309.284
  22844595.216    11025747.87249   8592045.64846  22844594.746    22844600.551
  21822946.614   -15884925.10249 -12363152.65347  21822946.418    21822952.409
  23149776.428    12047285.40949   9386134.85145  23149775.974    23149782.803
  20496503.686   -27125774.48749 -20880592.81648  20496503.356    20496507.441
  21705560.581     3362443.63349   2623824.13147  21705560.233    21705564.182
  20784388.459    -4436895.52249  -3453340.17347  20784387.868    20784393.312
  23468814.035    -9401874.54049  -7310222.67845  23468813.998    23468819.588
 03  3 25  1 45 30.0000000  0  8G31G23G 3G17G14G18G15G 9
  22451580.406   -13031516.02849  -9921357.98646  22451580.045    22451585.818
  22855627.984    11083725.75849   8637223.21846  22855627.559    22855633.383
  21828756.075   -15854396.30149 -12339363.99547  21828755.887    21828761.824
  23166140.156    12133277.82449   9453141.89845  23166139.775    23166146.611
  20488871.720   -27165880.58449 -20911844.29248  20488871.400    20488875.490
  21715871.068     3416625.82749   2666044.01747  21715870.745    21715874.750
  20793519.022    -4388913.94549  -3415951.93547  20793518.427    20793523.877
  23471288.913    -9388869.56049  -7300088.89145  23471288.735    23471294.391
 03  3 25  1 46  0.0000000  0  8G31G23G 3G17G14G18G15G 9
  22447965.697   -13050511.41749  -9936159.57646  22447965.377    22447971.089
  22866666.957    11141736.04649   8682426.03146  22866666.546    22866672.425
  21834662.678   -15823356.71049 -12315177.30747  21834662.488    21834668.438
  23182555.702    12219541.85149   9520360.58445  23182555.231    23182562.227
  20481339.378   -27205463.10249 -20942687.77748  20481339.064    20481343.148
  21726205.824     3470935.29349   2708363.08847  21726205.491    21726209.510
  20802727.406    -4340523.74049  -3378245.28247  20802726.812    20802732.216
  23473875.680    -9375276.02149  -7289496.48845  23473875.494    23473881.155
 03  3 25  1 46 30.0000000  0  8G31G23G 3G17G14G18G15G 9
  22444460.642   -13068930.71449  -9950512.27346  22444460.284    22444465.959
  22877712.809    11199782.39349   8727656.94246  22877712.370    22877718.252
  21840667.080   -15791803.57049 -12290590.45547  21840666.881    21840672.843
  23199023.559    12306081.08449   9587793.71845  23199023.111    23199030.076
  20473907.590   -27244517.38749 -20973119.65648  20473907.269    20473911.336
  21736565.352     3525375.15049   2750783.75047  21736565.009    21736569.077
  20812014.253    -4291721.00749  -3340217.18247  20812013.663    20812019.045
  23476574.857    -9361089.90849  -7278442.36345  23476574.985    23476580.699
 03  3 25  1 47  0.0000000  0  8G31G23G 3G17G14G18G15G 9
  22441064.960   -13086774.51149  -9964416.51446  22441064.634    22441070.354
  22888765.364    11257863.76849   8772915.15746  22888764.948    22888770.745
  21846768.658   -15759739.63349 -12265605.57947  21846768.437    21846774.438
  23215543.450    12392893.58749   9655439.79845  23215542.955    23215549.902
  20466576.188   -27283043.73949 -21003140.16148  20466575.884    20466579.973
  21746949.417     3579944.06949   2793304.98247  21746949.120    21746953.194
  20821379.346    -4242506.72849  -3301868.39447  20821378.760    20821384.202
  23479386.800    -9346312.05649  -7266927.14445  23479387.079    23479392.842
 03  3 25  1 47 30.0000000  0  8G31G23G 3G17G14G18G15G 9
  22437778.989   -13104042.91149  -9977872.41046  22437778.639    22437784.316
  22899824.483    11315979.61149   8818200.22146  22899824.032    22899829.824
  21852966.997   -15727167.03849 -12240224.34647  21852966.816    21852972.774
  23232115.040    12479977.93549   9723297.71245  23232114.462    23232121.479
  20459345.444   -27321041.81149 -21032749.01948  20459345.130    20459349.145
  21757357.886     3634640.86849   2835925.86147  21757357.585    21757361.682
  20830822.707    -4192881.32449  -3263199.26047  20830822.152    20830827.626
  23482311.894    -9330942.85349  -7254951.11745  23482311.714    23482317.523
 03  3 25  1 48  0.0000000  0  8G31G23G 3G17G14G18G15G 9
  22434602.451   -13120735.69149  -9990879.76146  22434602.088    22434607.818
  22910890.123    11374129.62049   8863511.92046  22910889.691    22910895.430
  21859261.934   -15694087.31549 -12214447.95447  21859261.698    21859267.630
  23248738.313    12567333.61249   9791367.04045  23248737.714    23248744.914
  20452215.189   -27358511.28149 -21061945.97548  20452214.866    20452218.904
  21767790.576     3689465.16649   2878646.09347  21767790.262    21767794.425
  20840344.403    -4142845.03849  -3224209.95247  20840343.810    20840349.235
  23485348.947    -9314982.13849  -7242514.18045  23485349.061    23485354.729
 03  3 25  1 48 30.0000000  0  8G31G23G 3G17G14G18G15G 9
  22431535.552   -13136852.18749 -10003438.07146  22431535.231    22431540.939
  22921962.275    11432313.88949   8908850.30546  22921961.846    22921967.536
  21865653.052   -15660501.61049 -12188277.28747  21865652.833    21865658.806
  23265413.013    12654959.61449   9859647.01745  23265412.440    23265419.687
  20445185.730   -27395451.15249 -21090730.26248  20445185.433    20445189.463
  21778247.542     3744416.80849   2921465.55247  21778247.233    21778251.384
  20849944.275    -4092397.58349  -3184900.24947  20849943.654    20849949.056
  23488498.924    -9298429.39949  -7229615.89145  23488498.920    23488504.566
 03  3 25  1 49  0.0000000  0  8G31G23G 3G17G14G18G15G 9
  22428577.973   -13152394.18549 -10015548.71646  22428577.659    22428583.324
  22933040.442    11490529.92749   8954213.44846  22933040.057    22933045.646
  21872139.706   -15626413.73249 -12161715.31647  21872139.513    21872145.520
  23282138.649    12742853.05349   9928135.39145  23282138.032    23282145.252
  20438256.774   -27431863.24849 -21119103.29448  20438256.429    20438260.414
  21788728.184     3799492.99049   2964382.05447  21788727.847    21788732.023
  20859621.882    -4041541.27249  -3145271.96547  20859621.285    20859626.660
  23491761.152    -9281286.86749  -7216258.05745  23491761.003    23491766.698
 03  3 25  1 49 30.0000000  0  8G31G23G 3G17G14G18G15G 9
  22425730.341   -13167358.54849 -10027209.25746  22425729.990    22425735.695
  22944125.279    11548780.74649   8999603.69646  22944124.863    22944130.394
  21878722.320   -15591822.16249 -12134760.86647  21878722.116    21878728.070
  23298915.562    12831016.18049   9996833.90045  23298914.987    23298922.123
  20431428.903   -27467743.85249 -21147062.17848  20431428.546    20431432.527
  21799233.049     3854696.25549   3007397.58347  21799232.735    21799236.901
  20869377.872    -3990273.17149  -3105322.80147  20869377.271    20869382.682
  23495135.928    -9263551.49949  -7202438.27845  23495135.887    23495141.511
 03  3 25  1 50  0.0000000  0  8G31G23G 3G17G14G18G15G 9
  22422992.302   -13181747.07649 -10038421.08746  22422991.936    22422997.703
  22955216.269    11607064.15949   9045019.34146  22955215.844    22955221.396
  21885400.002   -15556730.83049 -12107416.98047  21885399.773    21885405.753
  23315743.125    12919445.90549  10065740.17145  23315742.587    23315749.676
  20424701.813   -27503094.56849 -21174608.15848  20424701.493    20424705.483
  21809761.611     3910024.10949   3050510.19947  21809761.296    21809765.421
  20879211.720    -3938595.76449  -3065054.69247  20879211.143    20879216.564
  23498623.171    -9245225.31949  -7188158.12845  23498623.211    23498628.837
 03  3 25  1 50 30.0000000  0  8G31G23G 3G17G14G18G15G 9
  22420363.904   -13195559.16849 -10049183.75246  22420363.556    22420369.335
  22966313.515    11665380.44849   9090460.60746  22966313.062    22966318.602
  21892172.504   -15521140.93249 -12079684.60847  21892172.304    21892178.349
  23332621.290    13008141.71149  10134853.76145  23332620.773    23332628.027
  20418075.810   -27537914.48149 -21201740.52848  20418075.481    20418079.446
  21820313.833     3965476.21749   3093719.62947  21820313.521    21820317.577
  20889123.584    -3886508.64649  -3024467.33347  20889123.001    20889128.416
  23502223.383    -9226307.82449  -7173417.17645  23502223.090    23502228.660
 03  3 25  1 51  0.0000000  0  8G31G23G 3G17G14G18G15G 9
  22417845.499   -13208793.06549 -10059495.87446  22417845.179    22417850.935
  22977417.276    11723730.92949   9135928.52046  22977416.835    22977422.313
  21899039.944   -15485052.45949 -12051563.73447  21899039.750    21899045.771
  23349550.363    13097104.45549  10204175.35945  23349549.863    23349557.102
  20411551.156   -27572201.57849 -21228457.71648  20411550.818    20411554.803
  21830889.909     4021053.79649   3137026.83447  21830889.590    21830893.575
  20899113.621    -3834010.61949  -2983559.77747  20899113.025    20899118.451
  23505935.935    -9206797.58749  -7158214.39045  23505935.740    23505941.327
 03  3 25  1 51 30.0000000  0  8G31G23G 3G17G14G18G15G 9
  22415436.646   -13221452.00249 -10069359.98246  22415436.306    22415442.002
  22988526.837    11782112.22849   9181420.43746  22988526.365    22988531.878
  21906001.255   -15448470.46749 -12023058.30047  21906001.061    21906007.119
  23366529.423    13186329.92649  10273701.67945  23366528.979    23366536.184
  20405127.339   -27605958.69849 -21254761.93948  20405127.015    20405130.976
  21841489.117     4076753.00649   3180428.81747  21841488.822    21841492.767
  20909181.172    -3781105.16049  -2942334.74647  20909180.586    20909186.037
  23509760.620    -9186698.03549  -7142552.36445  23509760.552    23509766.114
 03  3 25  1 52  0.0000000  0  8G31G23G 3G17G14G18G15G 9
  22413137.774   -13233532.99049 -10078773.73346  22413137.388    22413143.102
  22999642.693    11840526.85349   9226938.32646  22999642.239    22999647.846
  21913056.670   -15411393.94749 -11994167.52247  21913056.506    21913062.550
  23383558.539    13275819.45849  10343433.76945  23383558.190    23383565.450
  20398804.989   -27639182.78549 -21280650.81248  20398804.671    20398808.600
  21852111.880     4132576.02849   3223927.27247  21852111.568    21852115.502
  20919326.828    -3727789.67749  -2900790.22447  20919326.242    20919331.656
  23513698.194    -9166006.40349  -7126429.00845  23513698.025    23513703.524
 03  3 25  1 52 30.0000000  0  8G31G23G 3G17G14G18G15G 9
  22410948.496   -13245037.48049 -10087738.27346  22410948.134    22410953.817
  23010764.636    11898973.36849   9272481.07146  23010764.220    23010769.817
  21920205.658   -15373826.20749 -11964893.97747  21920205.497    21920211.412
  23400637.710    13365571.33749  10413370.28945  23400637.386    23400644.620
  20392583.886   -27671874.90049 -21306125.15848  20392583.548    20392587.455
  21862757.884     4188521.08349   3267520.81747  21862757.568    21862761.511
  20929550.173    -3674065.83649  -2858927.50047  20929549.564    20929554.929
  23517747.920    -9144724.24349  -7109845.48945  23517747.832    23517753.335
 03  3 25  1 53  0.0000000  0  8G31G23G 3G17G14G18G15G 9
  22408869.050   -13255965.19149 -10096253.37146  22408868.663    22408874.325
  23021892.697    11957451.77549   9318048.66546  23021892.276    23021897.881
  21927447.754   -15335768.88149 -11935238.92947  21927447.574    21927453.440
  23417766.736    13455584.59649  10483510.49245  23417766.367    23417773.530
  20386464.160   -27704034.22249 -21331184.34148  20386463.805    20386467.719
  21873427.006     4244587.73249   3311209.11147  21873426.672    21873430.640
  20939851.222    -3619933.59349  -2816746.53247  20939850.613    20939855.972
  23521910.046    -9122851.66749  -7092801.90845  23521910.101    23521915.493
 03  3 25  1 53 30.0000000  0  8G31G23G 3G17G14G18G15G 9
  22406899.315   -13266316.11149 -10104319.02346  22406898.957    22406904.649
  23033026.846    12015961.96449   9363641.01946  23033026.418    23033031.992
  21934782.642   -15297223.88349 -11905203.88547  21934782.446    21934788.358
  23434945.307    13545858.08449  10553853.46545  23434944.905    23434951.980
  20380445.827   -27735660.78549 -21355828.39248  20380445.491    20380449.359
  21884119.167     4300775.45749   3354991.74347  21884118.860    21884122.847
  20950229.866    -3565393.36649  -2774247.66647  20950229.278    20950234.635
  23526184.842    -9100388.80049  -7075298.34645  23526184.611    23526190.046
 03  3 25  1 54  0.0000000  0  8G31G23G 3G17G14G18G15G 9
  22405039.489   -13276089.60849 -10111934.73846  22405039.104    22405044.776
  23044167.123    12074504.35749   9409258.47746  23044166.685    23044172.260
  21942210.082   -15258192.02849 -11874789.46547  21942209.904    21942215.902
  23452173.289    13636391.56349  10624399.02345  23452172.828    23452179.947
  20374529.055   -27766753.53049 -21380056.47748  20374528.697    20374532.548
  21894834.405     4357084.32449   3398868.77747  21894834.052    21894838.020
  20960686.283    -3510444.75049  -2731430.57147  20960685.679    20960691.038
  23530571.542    -9077335.45349  -7057334.65445  23530571.434    23530576.927
 03  3 25  1 54 30.0000000  0  8G31G23G 3G17G14G18G15G 9
  22403289.178   -13285287.47449 -10119101.90246  22403288.786    22403294.474
  23055313.056    12133076.90449   9454899.43446  23055312.610    23055318.228
  21949729.515   -15218677.21449 -11843998.71747  21949729.378    21949735.316
  23469450.104    13727182.07849  10695144.88445  23469449.638    23469456.707
  20368713.592   -27797313.93649 -21403869.75848  20368713.263    20368717.084
  21905572.281     4413512.12149   3442838.48547  21905571.958    21905575.894
  20971219.924    -3455089.84049  -2688296.88647  20971219.327    20971224.677
  23535070.221    -9053693.54549  -7038912.40645  23535070.230    23535075.767
 03  3 25  1 55  0.0000000  0  8G31G23G 3G17G14G18G15G 9
  22401648.887   -13293907.13749 -10125818.52546  22401648.531    22401654.228
  23066465.266    12191682.19149   9500565.89146  23066464.869    23066470.462
  21957341.180   -15178678.44149 -11812830.86147  21957340.939    21957346.838
  23486776.206    13818231.42849  10766092.42345  23486775.733    23486782.756
  20362999.985   -27827339.11149 -21427265.97348  20362999.639    20363003.443
  21916333.222     4470061.26949   3486902.75447  21916332.878    21916336.814
  20981831.346    -3399326.42149  -2644844.87847  20981830.761    20981836.114
  23539681.541    -9029460.57749  -7020029.54045  23539681.637    23539687.096
 03  3 25  1 55 30.0000000  0  8G31G23G 3G17G14G18G15G 9
  22400117.910   -13301952.76149 -10132087.84446  22400117.511    22400123.220
  23077622.999    12250316.14549   9546254.68846  23077622.574    23077628.114
  21965043.574   -15138201.79949 -11781290.63147  21965043.377    21965049.331
  23504150.785    13909534.62949  10837237.76245  23504150.375    23504157.176
  20357387.516   -27856832.83049 -21450248.06948  20357387.164    20357390.953
  21927116.409     4526727.07849   3531057.92847  21927116.063    21927119.966
  20992519.715    -3343158.80049  -2601077.91047  20992519.111    20992524.489
  23544404.861    -9004640.83049  -7000689.44545  23544404.668    23544410.134
 03  3 25  1 56  0.0000000  0  8G31G23G 3G17G14G18G15G 9
  22398696.887   -13309420.30649 -10137906.71046  22398696.525    22398702.232
  23088786.897    12308982.77849   9591968.95446  23088786.456    23088792.034
  21972837.379   -15097245.01449 -11749376.27247  21972837.191    21972843.169
  23521574.173    14001094.63149  10908583.22045  23521573.693    23521580.503
  20351876.982   -27885790.82549 -21472812.71648  20351876.619    20351880.345
  21937922.492     4583513.22949   3575306.87847  21937922.142    21937926.030
  21003285.709    -3286583.09149  -2556992.95147  21003285.128    21003290.526
  23549240.114    -8979230.75849  -6980889.36345  23549239.990    23549245.515
 03  3 25  1 56 30.0000000  0  8G31G23G 3G17G14G18G15G 9
  22397385.564   -13316311.24649 -10143276.26746  22397385.183    22397390.880
  23099956.730    12367680.66649   9637707.56746  23099956.283    23099961.867
  21980721.951   -15055811.49049 -11717090.42847  21980721.743    21980727.718
  23539045.839    14092909.07049  10980126.93445  23539045.398    23539052.092
  20346468.123   -27914214.39349 -21494960.92648  20346467.764    20346471.489
  21948751.099     4640417.73749   3619648.05047  21948750.746    21948754.620
  21014129.012    -3229601.22049  -2512591.49547  21014128.442    21014133.824
  23554187.461    -8953232.20549  -6960630.73145  23554187.455    23554192.875
 03  3 25  1 57  0.0000000  0  8G31G23G 3G17G14G18G15G 9
  22396183.762   -13322626.62449 -10148197.34146  22396183.395    22396189.104
  23111132.337    12426408.70849   9683469.66446  23111131.866    23111137.369
  21988696.639   -15013904.11749 -11684435.35147  21988696.442    21988702.385
  23556565.594    14184976.13949  11051867.48645  23556565.129    23556571.801
  20341160.869   -27942104.07849 -21516693.12748  20341160.518    20341164.254
  21959601.994     4697439.39649   3664080.51047  21959601.614    21959605.484
  21025049.421    -3172214.34849  -2467874.46547  21025048.831    21025054.160
  23559246.632    -8926646.34049  -6939914.45145  23559246.443    23559251.995
 03  3 25  1 57 30.0000000  0  8G31G23G 3G17G14G18G15G 9
  22395091.395   -13328367.37449 -10152670.64246  22395091.021    22395096.689
  23122313.503    12485166.22349   9729254.74446  23122313.056    23122318.526
  21996761.034   -14971525.58149 -11651413.13047  21996760.859    21996766.798
  23574133.268    14277294.14249  11123803.57345  23574132.807    23574139.483
  20335955.120   -27969460.35549 -21538009.68248  20335954.752    20335958.497
  21970474.898     4754576.90649   3708603.24647  21970474.527    21970478.386
  21036046.677    -3114423.57649  -2422842.70747  21036046.078    21036051.389
  23564417.123    -8899474.29249  -6918741.40745  23564417.104    23564422.593
 03  3 25  1 58  0.0000000  0  8G31G23G 3G17G14G18G15G 9
  22394108.372   -13333533.26249 -10156696.00146  22394107.982    22394113.642
  23133500.390    12543953.49849   9775063.01546  23133499.912    23133505.305
  22004914.847   -14928677.18849 -11618024.78447  22004914.645    22004920.618
  23591748.238    14369862.20449  11195934.52245  23591747.803    23591754.673
  20330850.923   -27996282.91649 -21558910.35048  20330850.595    20330854.320
  21981369.836     4811830.33949   3753216.31347  21981369.455    21981373.343
  21047120.674    -3056228.96949  -2377496.26347  21047120.072    21047125.436
  23569699.371    -8871716.05449  -6897111.56945  23569699.247    23569704.766
 03  3 25  1 58 30.0000000  0  8G31G23G 3G17G14G18G15G 9
  22393235.235   -13338121.25649 -10160271.05346  22393234.876    22393240.564
  23144693.503    12602773.81749   9820897.03446  23144693.032    23144698.425
  22013158.275   -14885357.63049 -11584269.30347  22013158.098    22013164.057
  23609411.358    14462682.68649  11268262.15045  23609410.865    23609417.937
  20325849.029   -28022568.07649 -21579392.27348  20325848.668    20325852.404
  21992287.377     4869202.67349   3797922.03147  21992287.027    21992290.916
  21058272.204    -2997627.35849  -2331832.68547  21058271.602    21058276.954
  23575093.684    -8843368.89349  -6875022.84945  23575093.444    23575099.088
 03  3 25  1 59  0.0000000  0  8G31G23G 3G17G14G18G15G 9
  22392471.359   -13342135.98049 -10163399.40046  22392470.965    22392476.577
  23155891.996    12661622.58349   9866753.21546  23155891.520    23155896.972
  22021490.132   -14841573.40049 -11550151.73847  22021489.960    22021495.900
  23627121.497    14555749.84149  11340782.01145  23627120.915    23627128.104
  20320948.501   -28048320.23049 -21599458.86348  20320948.170    20320951.913
  22003226.608     4926688.83549   3842716.44647  22003226.274    22003230.176
  21069500.224    -2938623.70349  -2285855.82347  21069499.609    21069504.960
  23580598.999    -8814437.67349  -6852479.05645  23580598.791    23580604.557
 03  3 25  1 59 30.0000000  0  8G31G23G 3G17G14G18G15G 9
  22391816.764   -13345575.22149 -10166079.31446  22391816.418    22391822.092
  23167096.446    12720502.26649   9912633.48646  23167095.923    23167101.420
  22029910.539   -14797324.08449 -11515671.77847  22029910.331    22029916.277
  23644878.768    14649065.19949  11413495.27845  23644878.252    23644885.447
  20316149.926   -28073536.89149 -21619108.18448  20316149.572    20316153.302
  22014187.953     4984291.15349   3887601.37147  22014187.635    22014191.489
  21080805.107    -2879215.95749  -2239564.08647  21080804.513    21080809.912
  23586216.099    -8784920.17149  -6829478.36845  23586215.803    23586221.538
 03  3 25  2  0  0.0000000  0  8G31G23G 3G17G14G18G15G 9
  22391271.318   -13348441.44849 -10168312.72746  22391271.005    22391276.661
  23178306.262    12779410.69449   9958536.16146  23178305.783    23178311.366
  22038418.656   -14752613.85849 -11480832.66447  22038418.430    22038424.385
  23662682.706    14742625.39149  11486399.32945  23662682.185    23662689.353
  20311452.828   -28098220.14949 -21638341.86848  20311452.504    20311456.208
  22025170.939     5042006.84349   3932574.64047  22025170.582    22025174.423
  21092186.416    -2819406.71149  -2192959.48647  21092185.843    21092191.259
  23591944.360    -8754819.31649  -6806023.12845  23591943.937    23591949.489
 03  3 25  2  0 30.0000000  0  8G31G23G 3G17G14G18G15G 9
  22390835.286   -13350732.97849 -10170098.33046  22390834.928    22390840.568
  23189521.964    12838349.87949  10004462.79246  23189521.508    23189527.113
  22047014.410   -14707442.76949 -11445634.43447  22047014.200    22047020.189
  23680533.466    14836431.74149  11559495.19145  23680532.997    23680540.101
  20306857.638   -28122367.92849 -21657158.29048  20306857.295    20306860.982
  22036175.754     5099837.60949   3977637.57847  22036175.403    22036179.272
  21103644.480    -2759194.54449  -2146040.92547  21103643.881    21103649.245
  23597783.773    -8724133.68749  -6782112.22345  23597783.225    23597788.794
 03  3 25  2  1  0.0000000  0  8G31G23G 3G17G14G18G15G 9
  22390508.229   -13352451.35449 -10171437.31146  22390507.894    22390513.518
  23200743.289    12897318.45549  10050412.33846  23200742.830    23200748.525
  22055697.262   -14661814.13549 -11410079.67747  22055697.059    22055703.043
  23698430.640    14930481.88149  11632781.02445  23698430.178    23698437.299
  20302364.116   -28145981.50049 -21675558.45048  20302363.746    20302367.442
  22047202.150     5157781.82049   4022788.92047  22047201.810    22047205.683
  21115178.860    -2698581.00449  -2098809.60647  21115178.256    21115183.617
  23603733.638    -8692865.23149  -6757747.18145  23603733.375    23603738.869
 03  3 25  2  1 30.0000000  0  8G31G23G 3G17G14G18G15G 9
  22390290.358   -13353596.41549 -10172329.56546  22390290.004    22390295.625
  23211970.287    12956316.92249  10096385.17646  23211969.808    23211975.531
  22064466.966   -14615729.39549 -11374169.51747  22064466.728    22064472.700
  23716373.913    15024774.65349  11706255.92045  23716373.427    23716380.543
  20297972.356   -28169060.31849 -21693541.92048  20297971.986    20297975.673
  22058250.175     5215839.75149   4068028.86247  22058249.831    22058253.721
  21126789.530    -2637566.13649  -2051265.56247  21126788.939    21126794.387
  23609794.612    -8661014.09349  -6732928.08745  23609794.430    23609799.838
 03  3 25  2  2  0.0000000  0  8G31G23G 3G17G14G18G15G 9
  22390181.397   -13354168.88249 -10172775.63246  22390181.040    22390186.735
  23223202.888    13015344.87849  10142380.98546  23223202.432    23223208.195
  22073322.904   -14569190.90049 -11337905.77447  22073322.717    22073328.679
  23734363.214    15119308.96049  11779919.02145  23734362.682    23734369.676
  20293682.321   -28191604.68149 -21711108.93148  20293681.916    20293685.623
  22069319.683     5274010.54149   4113356.75147  22069319.358    22069323.248
  21138476.465    -2576150.78449  -2003409.45047  21138475.888    21138481.335
  23615966.382    -8628580.89549  -6707655.43645  23615966.227    23615971.648
 03  3 25  2  2 30.0000000  0  8G31G23G 3G17G14G18G15G 9
  22390181.541   -13354167.91049 -10172774.86746  22390181.220    22390186.931
  23234441.409    13074403.79849  10188400.92946  23234440.971    23234446.732
  22082265.038   -14522199.66049 -11301289.24347  22082264.866    22082270.839
  23752398.719    15214085.41249  11853770.81245  23752398.057    23752405.084
  20289494.157   -28213613.48949 -21728258.62948  20289493.786    20289497.447
  22080410.902     5332295.27749   4158773.42547  22080410.560    22080414.462
  21150239.764    -2514334.23849  -1955240.72647  21150239.204    21150244.632
  23622249.075    -8595565.24449  -6681928.91845  23622248.977    23622254.244
 03  3 25  2  3  0.0000000  0  8G31G23G 3G17G14G18G15G 9
  22390290.290   -13353596.81149 -10172329.84846  22390289.915    22390295.598
  23245685.289    13133490.81849  10234442.76246  23245684.857    23245690.590
  22091292.419   -14474760.60949 -11264323.76847  22091292.236    22091298.170
  23770479.452    15309099.62449  11927807.87745  23770478.720    23770485.907
  20285407.378   -28235089.50849 -21744993.16348  20285407.005    20285410.666
  22091523.144     5390690.46249   4204276.17347  22091522.807    22091526.691
  21162078.780    -2452119.87449  -1906762.00847  21162078.208    21162083.622
  23628641.949    -8561970.68349  -6655751.30645  23628641.762    23628647.109
 03  3 25  2  3 30.0000000  0  8G31G23G 3G17G14G18G15G 9
  22390507.655   -13352454.63949 -10171439.84046  22390507.304    22390512.924
  23256934.770    13192607.26149  10280507.52346  23256934.320    23256940.083
  22100404.905   -14426874.51049 -11227009.94347  22100404.708    22100410.580
  23788605.268    15404351.66349  12002030.24645  23788604.542    23788611.809
  20281422.223   -28256031.45649 -21761311.53848  20281421.884    20281425.553
  22102656.653     5449197.28649   4249865.90647  22102656.290    22102660.162
  21173993.675    -2389506.73749  -1857972.55847  21173993.100    21173998.538
  23635145.005    -8527796.54049  -6629122.08245  23635144.710    23635150.180
 03  3 25  2  4  0.0000000  0  8G31G23G 3G17G14G18G15G 9
  22390833.587   -13350741.69449 -10170105.07246  22390833.209    22390838.870
  23268189.913    13251753.44849  10326595.46046  23268189.507    23268195.266
  22109602.024   -14378543.10849 -11189349.12947  22109601.831    22109607.756
  23806776.237    15499840.72349  12076437.31545  23806775.502    23806782.714
  20277538.752   -28276439.22649 -21777213.67248  20277538.372    20277542.020
  22113811.343     5507815.45249   4295542.39947  22113810.997    22113814.849
  21185984.392    -2326495.06649  -1808872.56547  21185983.829    21185989.237
  23641758.235    -8493043.43949  -6602041.74945  23641758.051    23641763.377
 03  3 25  2  4 30.0000000  0  8G31G23G 3G17G14G18G15G 9
  22391267.937   -13348459.37949 -10168326.65546  22391267.558    22391273.160
  23279450.655    13310928.73549  10372706.07446  23279450.212    23279455.973
  22118883.277   -14329769.74249 -11151343.93047  22118883.106    22118889.070
  23824992.025    15595564.81449  12151027.51745  23824991.172    23824998.236
  20273756.665   -28296313.90649 -21792700.41148  20273756.311    20273759.952
  22124986.954     5566543.79649   4341304.74947  22124986.601    22124990.445
  21198050.721    -2263086.29449  -1759463.14147  21198050.125    21198055.529
  23648481.294    -8457712.99549  -6574511.53545  23648481.147    23648486.565
 03  3 25  2  5  0.0000000  0  8G31G23G 3G17G14G18G15G 9
  22391810.847   -13345606.57649 -10166103.68446  22391810.462    22391816.001
  23290717.140    13370134.53849  10418840.46946  23290716.702    23290722.493
  22128248.602   -14280555.01549 -11112994.82247  22128248.412    22128254.350
  23843252.467    15691524.25449  12225801.12145  23843251.760    23843258.797
  20270076.368   -28315653.96849 -21807770.56748  20270075.998    20270079.642
  22136183.806     5625383.74649   4387154.06247  22136183.469    22136187.281
  21210192.733    -2199279.65249  -1709743.68547  21210192.120    21210197.576
  23655314.464    -8421804.37949  -6546530.78245  23655314.286    23655319.743
 03  3 25  2  5 30.0000000  0  8G31G23G 3G17G14G18G15G 9
  22392461.683   -13342186.18849 -10163438.43746  22392461.292    22392466.928
  23301988.969    13429368.50049  10464996.81846  23301988.529    23301994.310
  22137697.040   -14230903.17849 -11074305.09647  22137696.861    22137702.786
  23861556.913    15787715.48449  12300755.34745  23861556.238    23861563.260
  20266497.291   -28334462.00349 -21822426.15548  20266496.946    20266500.576
  22147401.457     5684332.58849   4433088.22947  22147401.103    22147404.898
  21222409.919    -2135077.83749  -1659716.29747  21222409.332    21222414.824
  23662257.088    -8385320.66549  -6518101.88645  23662256.960    23662262.391
 03  3 25  2  6  0.0000000  0  8G31G23G 3G17G14G18G15G 9
  22393220.856   -13338196.45249 -10160329.54746  22393220.496    22393226.136
  23313266.751    13488633.16049  10511177.08546  23313266.291    23313271.945
  22147228.631   -14180814.18649 -11035274.73847  22147228.462    22147234.389
  23879905.799    15884139.69749  12375891.10645  23879905.246    23879912.317
  20263019.946   -28352735.55849 -21836665.26748  20263019.564    20263023.190
  22158640.120     5743392.43249   4479108.89447  22158639.793    22158643.618
  21234702.669    -2070479.04849  -1609379.58647  21234702.082    21234707.539
  23669309.470    -8348260.28449  -6489223.64045  23669309.278    23669314.696
 03  3 25  2  6 30.0000000  0  8G31G23G 3G17G14G18G15G 9
  22394087.875   -13333640.46949 -10156779.42646  22394087.506    22394093.138
  23324549.823    13547925.94349  10557379.25846  23324549.350    23324555.004
  22156842.552   -14130292.72949 -10995907.39247  22156842.377    22156848.317
  23898298.425    15980793.47749  12451205.75545  23898297.863    23898304.918
  20259643.713   -28370477.62049 -21850490.23448  20259643.351    20259646.980
  22169899.481     5802560.44049   4525213.83147  22169899.148    22169902.916
  21247070.411    -2005486.41249  -1558735.98247  21247069.790    21247075.223
  23676470.795    -8310626.70649  -6459898.76345  23676470.710    23676476.135
 03  3 25  2  7  0.0000000  0  8G31G23G 3G17G14G18G15G 9
  22395062.839   -13328516.83149 -10152786.97946  22395062.461    22395068.083
  23335838.567    13607248.91349  10603604.96546  23335838.095    23335843.748
  22166538.736   -14079339.03449 -10956203.23347  22166538.555    22166544.558
  23916734.866    16077677.56949  12526699.86445  23916734.330    23916741.463
  20256368.988   -28387686.26349 -21863899.54148  20256368.648    20256372.236
  22181179.601     5861838.15349   4571404.26147  22181179.259    22181183.083
  21259513.346    -1940098.41649  -1507784.29947  21259512.706    21259518.147
  23683741.507    -8272418.73049  -6430126.29445  23683741.397    23683746.911
 03  3 25  2  7 30.0000000  0  8G31G23G 3G17G14G18G15G 9
  22396145.594   -13322827.04349 -10148353.38746  22396145.201    22396150.829
  23347132.873    13666601.16449  10649853.49646  23347132.407    23347138.046
  22176316.556   -14027956.19849 -10916164.68547  22176316.356    22176322.371
  23935214.501    16174789.72349  12602371.69345  23935214.036    23935221.190
  20253195.566   -28404362.58149 -21876894.05448  20253195.205    20253198.831
  22192480.408     5921224.28149   4617679.17247  22192480.046    22192483.908
  21272031.103    -1874316.81449  -1456525.90747  21272030.500    21272036.014
  23691121.274    -8233638.05649  -6399907.59045  23691121.108    23691126.561
 03  3 25  2  8  0.0000000  0  8G31G23G 3G17G14G18G15G 9
  22397336.032   -13316571.32749 -10143478.80146  22397335.637    22397341.228
  23358432.883    13725983.38749  10696125.36946  23358432.424    23358438.104
  22186175.705   -13976146.03349 -10875793.15047  22186175.510    22186181.513
  23953737.523    16272129.44649  12678220.83945  23953737.034    23953744.396
  20250123.528   -28420506.24049 -21889473.50648  20250123.191    20250126.793
  22203801.988     5980719.47449   4664039.06347  22203801.628    22203805.502
  21284623.869    -1808141.42249  -1404960.67747  21284623.262    21284628.804
  23698609.992    -8194284.98049  -6369242.82345  23698609.814    23698615.272
 03  3 25  2  8 30.0000000  0  8G31G23G 3G17G14G18G15G 9
  22398633.570   -13309752.33549 -10138165.30046  22398633.219    22398638.811
  23369738.246    13785393.69749  10742419.13146  23369737.777    23369743.486
  22196115.446   -13923912.64449 -10835091.82847  22196115.249    22196121.200
  23972303.419    16369693.82449  12754245.03845  23972302.870    23972310.259
  20247152.412   -28436119.70649 -21901639.82148  20247152.038    20247155.593
  22215143.794     6040321.18449   4710481.96347  22215143.446    22215147.335
  21297291.038    -1741574.94149  -1353090.69847  21297290.443    21297295.967
  23706206.887    -8154362.69949  -6338134.54445  23706206.745    23706212.338
 03  3 25  2  9  0.0000000  0  8G31G23G 3G17G14G18G15G 9
  22400038.603   -13302368.93549 -10132412.00546  22400038.246    22400043.869
  23381049.388    13844834.02349  10788736.27346  23381048.867    23381054.570
  22206135.598   -13871256.53049 -10794061.11647  22206135.392    22206141.356
  23990912.161    16467482.99549  12830444.40945  23990911.587    23990918.597
  20244282.499   -28451201.16449 -21913391.58948  20244282.115    20244285.677
  22226506.195     6100031.13849   4757009.19947  22226505.870    22226509.748
  21310032.934    -1674616.00749  -1300914.91347  21310032.321    21310037.780
  23713912.309    -8113870.37749  -6306582.07145  23713912.230    23713917.661
 03  3 25  2  9 30.0000000  0  8G31G23G 3G17G14G18G15G 9
  22401550.467   -13294423.74749 -10126220.95446  22401550.120    22401555.791
  23392365.886    13904302.58249  10835075.42446  23392365.422    23392371.039
  22216235.334   -13818182.07249 -10752704.40947  22216235.140    22216241.170
  24009562.978    16565493.56049  12906816.29145  24009562.406    24009569.424
  20241513.331   -28465752.87949 -21924730.56648  20241512.972    20241516.546
  22237888.808     6159847.10949   4803619.05447  22237888.460    22237892.341
  21322849.044    -1607267.35449  -1248435.45247  21322848.399    21322853.769
  23721725.725    -8072810.98149  -6274587.70845  23721725.562    23721730.949
 03  3 25  2 10  0.0000000  0  8G31G23G 3G17G14G18G15G 9
  22403169.827   -13285914.20649 -10119590.15746  22403169.469    22403175.116
  23403688.496    13963803.09149  10881439.45646  23403688.034    23403693.553
  22226414.827   -13764687.99849 -10711020.73347  22226414.653    22226420.760
  24028256.258    16663728.43049  12983362.97745  24028255.825    24028262.904
  20238845.605   -28479771.90949 -21935654.46248  20238845.249    20238848.780
  22249292.211     6219772.25949   4850313.98247  22249291.856    22249295.675
  21335739.674    -1539526.49749  -1195650.37047  21335739.045    21335744.455
  23729647.377    -8031182.07049  -6242149.58945  23729647.217    23729652.645
 03  3 25  2 10 30.0000000  0  8G31G23G 3G17G14G18G15G 9
  22404895.424   -13276845.84749 -10112523.91346  22404895.094    22404900.774
  23415016.278    14023330.69649  10927824.61346  23415015.832    23415021.325
  22236673.037   -13710781.28149 -10669015.51947  22236672.812    22236678.904
  24046991.245    16762181.42749  13060079.61245  24046990.655    24046997.773
  20236278.212   -28493263.48249 -21946167.35648  20236277.866    20236281.402
  22260715.420     6279801.41249   4897089.95247  22260715.058    22260718.854
  21348703.921    -1471398.78949  -1142563.85447  21348703.300    21348708.746
  23737676.329    -7988989.55549  -6209272.27645  23737676.089    23737681.640
 03  3 25  2 11  0.0000000  0  8G31G23G 3G17G14G18G15G 9
  22406727.740   -13267217.52149 -10105021.34646  22406727.345    22406732.947
  23426349.581    14082887.36249  10974232.41146  23426349.126    23426354.632
  22247009.648   -13656462.37949 -10626689.12047  22247009.396    22247015.451
  24065768.038    16860853.04749  13136966.59945  24065767.446    24065774.504
  20233811.506   -28506225.93149 -21956267.94448  20233811.184    20233814.693
  22272158.650     6339936.36949   4943948.37047  22272158.296    22272162.134
  21361742.111    -1402882.88749  -1089174.84847  21361741.444    21361746.914
  23745812.562    -7946232.65149  -6175955.19945  23745812.396    23745817.936
 03  3 25  2 11 30.0000000  0  8G31G23G 3G17G14G18G15G 9
  22408666.433   -13257029.37549 -10097082.53746  22408666.053    22408671.704
  23437688.470    14142474.00149  11020663.57546  23437688.057    23437693.564
  22257424.224   -13601733.03849 -10584042.89147  22257424.016    22257430.073
  24084586.210    16959742.78249  13214023.55345  24084585.659    24084592.453
  20231445.600   -28518658.80549 -21965955.87248  20231445.252    20231448.740
  22283622.166     6400177.62849   4990889.62647  22283621.820    22283625.645
  21374853.997    -1333979.09049  -1035483.57647  21374853.367    21374858.866
  23754056.307    -7902911.32649  -6142198.32145  23754056.139    23754061.671
 03  3 25  2 12  0.0000000  0  8G31G23G 3G17G14G18G15G 9
  22410711.447   -13246282.73149 -10088708.54546  22410711.078    22410716.770
  23449033.087    14202090.33749  11067117.85146  23449032.652    23449038.197
  22267916.451   -13546596.22449 -10541079.16447  22267916.252    22267922.295
  24103445.309    17058848.88749  13291249.11145  24103444.633    24103451.414
  20229180.313   -28530563.04449 -21975231.87648  20229179.960    20229183.445
  22295105.751     6460524.43349   5037913.12547  22295105.410    22295109.220
  21388039.632    -1264688.33149   -981490.79347  21388039.019    21388044.465
  23762407.085    -7859027.22149  -6108002.88745  23762406.998    23762412.477
 03  3 25  2 12 30.0000000  0  8G31G23G 3G17G14G18G15G 9
  22412862.735   -13234977.77749 -10079899.50446  22412862.358    22412867.978
  23460383.454    14261737.26949  11113595.99246  23460383.035    23460388.583
  22278485.981   -13491053.38149 -10497799.04847  22278485.745    22278491.774
  24122345.605    17158170.87649  13368642.88645  24122344.978    24122351.896
  20227015.623   -28541938.38149 -21984095.75848  20227015.269    20227018.747
  22306609.566     6520977.24349   5085019.21147  22306609.196    22306612.996
  21401298.795    -1195010.97349   -927196.76347  21401298.170    21401303.560
  23770865.003    -7814580.90849  -6073369.37045  23770864.943    23770870.318
 03  3 25  2 13  0.0000000  0  9G25G31G23G 3G17G14G18G15G 9
  24537007.196    -3130120.75849  -2417774.45045  24537007.204    24537014.739
  22415119.392   -13223119.06249 -10070658.95946  22415119.006    22415124.558
  23471738.981    14321411.30549  11160095.25746  23471738.603    23471744.232
  22289131.499   -13435110.62649 -10454207.30347  22289131.256    22289137.325
  24141286.090    17257703.47849  13446200.78145  24141285.566    24141292.386
  20224950.798   -28552788.92949 -21992550.70548  20224950.458    20224953.908
  22318132.770     6581532.27349   5132204.96047  22318132.419    22318136.204
  21414630.772    -1124950.92149   -872604.52347  21414630.150    21414635.581
  23779428.903    -7769577.25149  -6038301.57545  23779428.814    23779434.235
 03  3 25  2 13 30.0000000  0  9G25G31G23G 3G17G14G18G15G 9
  24518355.277    -3228135.68949  -2494149.48945  24518355.336    24518362.749
  22417481.485   -13210706.27649 -10060986.66946  22417481.071    22417486.665
  23483099.998    14381113.66449  11206616.57846  23483099.608    23483105.178
  22299852.820   -13378769.00049 -10410304.75947  22299852.633    22299858.774
  24160266.470    17357446.65049  13523922.74445  24160266.166    24160272.968
  20222985.995   -28563113.99249 -22000596.19048  20222985.639    20222989.079
  22329675.616     6642190.50149   5179471.11647  22329675.277    22329679.090
  21428035.655    -1054507.84749   -817713.83147  21428035.020    21428040.462
  23788098.877    -7724016.24149  -6002799.47345  23788098.802    23788104.247
 03  3 25  2 14  0.0000000  0  9G25G31G23G 3G17G14G18G15G 9
  24499692.898    -3326206.89849  -2570568.37045  24499692.956    24499700.263
  22419949.102   -13197738.85049 -10050882.19046  22419948.673    22419954.321
  23494466.695    14440846.23949  11253161.45146  23494466.290    23494471.811
  22310650.044   -13322029.48649 -10366092.15847  22310649.838    22310655.961
  24179287.119    17457401.21849  13601809.44845  24179286.888    24179293.598
  20221121.363   -28572912.49449 -22008231.36348  20221121.039    20221124.470
  22341238.409     6702953.36549   5226818.80647  22341238.053    22341241.861
  21441513.532     -983680.95849   -762524.05247  21441512.939    21441518.384
  23796875.043    -7677897.59149  -5966862.86445  23796874.976    23796880.290
 03  3 25  2 14 30.0000000  0  9G25G31G23G 3G17G14G18G15G 9
  24481020.980    -3424328.54249  -2647026.57145  24481020.863    24481027.997
  22422522.657   -13184214.58549 -10040343.81946  22422522.251    22422527.859
  23505839.749    14500612.26449  11299732.38546  23505839.366    23505844.858
  22321523.210   -13264891.39249 -10321568.99147  22321522.931    22321528.999
  24198348.439    17557568.64049  13679862.00445  24198348.122    24198354.953
  20219357.502   -28582181.67549 -22015454.08348  20219357.140    20219360.575
  22352821.650     6763823.75349   5274250.27146  22352821.294    22352825.152
  21455064.945     -912468.00449   -707033.45547  21455064.328    21455069.721
  23805757.692    -7631219.28649  -5930490.15245  23805757.597    23805762.850
 03  3 25  2 15  0.0000000  0  9G25G31G23G 3G17G14G18G15G 9
  24462338.723    -3522504.06849  -2723526.74145  24462338.476    24462345.672
  22425200.861   -13170140.39249 -10029376.92546  22425200.477    22425206.097
  23517218.120    14560405.91749  11346324.84346  23517217.689    23517223.153
  22332470.465   -13207362.75249 -10276741.48747  22332470.242    22332476.358
  24217448.801    17657941.43949  13758074.60345  24217448.310    24217455.169
  20217693.095   -28590927.92249 -22022269.31948  20217692.763    20217696.169
  22364424.162     6824795.29849   5321760.56946  22364423.792    22364427.665
  21468688.568     -840875.67149   -651247.23547  21468687.926    21468693.317
  23814745.410    -7583988.53549  -5893686.95645  23814745.285    23814750.561
 03  3 25  2 15 30.0000000  0  9G25G31G23G 3G17G14G18G15G 9
  24443647.688    -3620725.06149  -2800062.37345  24443647.555    24443654.625
  22427984.558   -13155511.79949 -10017978.01846  22427984.200    22427989.856
  23528602.859    14620233.03849  11392943.38946  23528602.418    23528607.898
  22343492.680   -13149440.71949 -10231607.44547  22343492.442    22343498.574
  24236588.972    17758524.21349  13836450.80745  24236588.549    24236595.288
  20216129.188   -28599146.41649 -22028673.31548  20216128.835    20216132.240
  22376046.997     6885873.58749   5369354.04946  22376046.615    22376050.461
  21482385.189     -768899.38249   -595161.82247  21482384.555    21482389.969
  23823839.041    -7536200.97149  -5856449.86245  23823838.969    23823844.203
 03  3 25  2 16  0.0000000  0  9G25G31G23G 3G17G14G18G15G 9
  24424947.217    -3718995.20149  -2876636.30645  24424947.071    24424954.226
  22430872.461   -13140336.14649 -10006152.83546  22430872.080    22430877.719
  23539992.789    14680087.34449  11439583.10246  23539992.342    23539997.792
  22354588.064   -13091134.18449 -10186173.79347  22354587.821    22354593.912
  24255767.613    17859309.33849  13914984.69345  24255767.241    24255774.009
  20214664.311   -28606844.04849 -22034671.45348  20214663.979    20214667.399
  22387688.842     6947052.12149   5417025.63646  22387688.496    22387692.331
  21496153.576     -696546.14749   -538782.69647  21496152.933    21496158.331
  23833037.159    -7487864.30449  -5818784.92345  23833037.151    23833042.334
 03  3 25  2 16 30.0000000  0  9G25G31G23G 3G17G14G18G15G 9
  24406238.998    -3817306.57749  -2953242.38645  24406238.903    24406245.942
  22433865.264   -13124608.92949  -9993897.86346  22433864.869    22433870.506
  23551388.905    14739974.45349  11486248.40246  23551388.413    23551393.905
  22365757.146   -13032439.87349 -10140437.97346  22365756.959    22365763.075
  24274985.642    17960300.85349  13993679.40045  24274985.337    24274992.056
  20213299.536   -28614015.80149 -22040259.81448  20213299.214    20213302.633
  22399350.795     7008336.18149   5464779.45146  22399350.423    22399354.276
  21509994.531     -623811.14849   -482106.09047  21509993.921    21509999.346
  23842340.651    -7438974.17949  -5780688.69045  23842340.612    23842345.771
 03  3 25  2 17  0.0000000  0  8G25G31G23G 3G14G18G15G 9
  24387523.364    -3915657.52649  -3029879.30745  24387523.080    24387530.189
  22436962.475   -13108332.80449  -9981215.16046  22436962.124    22436967.732
  23562790.997    14799893.34449  11532938.46446  23562790.559    23562796.162
  22376999.252   -12973361.95149 -10094403.23846  22376999.076    22377005.220
  20212034.480   -28620663.70949 -22045439.97948  20212034.150    20212037.542
  22411032.486     7069724.09249   5512614.19046  22411032.125    22411035.966
  21523907.659     -550696.64349   -425133.75847  21523907.079    21523912.542
  23851748.817    -7389533.39149  -5742163.39945  23851748.828    23851754.018
 03  3 25  2 17 30.0000000  0  8G25G31G23G 3G14G18G15G 9
  24368799.902    -4014049.20149  -3106547.98045  24368799.681    24368806.738
  22440163.339   -13091512.36249  -9968108.31146  22440162.958    22440168.492
  23574198.479    14859840.47749  11579650.54146  23574198.103    23574203.714
  22388313.338   -12913906.29749 -10048074.15846  22388313.133    22388319.299
  20210868.308   -28626792.09249 -22050215.31448  20210867.947    20210871.348
  22422733.279     7131212.31049   5560527.10046  22422732.915    22422736.772
  21537892.341     -477207.15149   -367869.23247  21537891.728    21537897.146
  23861260.908    -7339547.02649  -5703212.98745  23861260.862    23861266.126
 03  3 25  2 18  0.0000000  0  8G25G31G23G 3G14G18G15G 9
  24350068.939    -4112479.66049  -3183246.88945  24350068.818    24350075.812
  22443467.401   -13074149.38549  -9954578.71346  22443466.961    22443472.557
  23585611.384    14919815.55049  11626384.37846  23585610.971    23585616.532
  22399698.679   -12854076.03749 -10001453.18746  22399698.421    22399704.613
  20209800.720   -28632402.15249 -22054586.77548  20209800.376    20209803.749
  22434452.886     7192799.44049   5608517.07846  22434452.512    22434456.388
  21551948.123     -403344.20049   -310313.70647  21551947.437    21551952.809
  23870876.424    -7289017.07349  -5663838.99145  23870876.347    23870881.630
 03  3 25  2 18 30.0000000  0  8G25G31G23G 3G14G18G15G 9
  24331332.450    -4210939.15149  -3259968.43145  24331332.519    24331339.145
  22446875.824   -13056238.20549  -9940621.94546  22446875.401    22446880.983
  23597030.933    14979825.64049  11673145.49046  23597030.526    23597036.040
  22411156.064   -12793866.69849  -9954536.82346  22411155.860    22411162.066
  20208833.067   -28637487.36349 -22058549.25448  20208832.686    20208836.032
  22446192.720     7254492.96949   5656589.96746  22446192.364    22446196.282
  21566075.796     -329101.89749   -252462.56847  21566075.187    21566080.662
  23880596.517    -7237938.13249  -5624037.18945  23880596.387    23880601.624
 03  3 25  2 19  0.0000000  0  8G25G31G23G 3G14G18G15G 9
  24312590.086    -4309430.37849  -3336714.70845  24312590.135    24312596.736
  22450387.324   -13037785.18949  -9926242.96546  22450386.890    22450392.458
  23608456.187    15039865.80949  11719930.05146  23608455.776    23608461.254
  22422684.274   -12733285.86049  -9907330.98946  22422684.058    22422690.214
  20207964.031   -28642053.83249 -22062107.52148  20207963.648    20207967.016
  22457951.743     7316287.23349   5704741.34946  22457951.394    22457955.341
  21580274.578     -254486.45749   -194320.67747  21580274.027    21580279.509
  23890419.738    -7186316.87149  -5583812.80245  23890419.617    23890424.855
 03  3 25  2 19 30.0000000  0  8G25G31G23G 3G14G18G15G 9
  24293841.569    -4407953.95949  -3413486.18545  24293841.514    24293848.221
  22454001.004   -13018794.76249  -9911445.21746  22454000.639    22454006.232
  23619886.586    15099932.98449  11766735.65346  23619886.163    23619891.606
  22434282.076   -12672339.30749  -9859840.17646  22434281.839    22434287.946
  20207193.036   -28646105.47249 -22065264.62448  20207192.652    20207196.012
  22469729.349     7378178.97249   5752968.69146  22469729.000    22469732.946
  21594543.806     -179501.95449   -135891.21047  21594543.199    21594548.607
  23900345.168    -7134157.85549  -5543169.39145  23900345.065    23900350.338
 03  3 25  2 20  0.0000000  0  8G25G31G23G 3G14G18G15G 9
  24275089.059    -4506498.73349  -3490274.18645  24275089.125    24275095.635
  22457718.371   -12999259.91249  -9896223.24946  22457717.965    22457723.552
  23631323.736    15160035.70049  11813568.94746  23631323.256    23631328.710
  22445950.319   -12611021.67649  -9812060.21646  22445950.152    22445956.286
  20206521.390   -28649634.75049 -22068014.69748  20206521.027    20206524.357
  22481527.064     7440176.12449   5801278.16746  22481526.683    22481530.542
  21608884.521     -104140.97249    -77168.37647  21608883.901    21608889.326
  23910374.254    -7081454.44849  -5502101.79945  23910374.122    23910379.362
 03  3 25  2 20 30.0000000  0  8G25G31G23G 3G14G18G15G 9
  24256332.172    -4605066.51649  -3567080.09045  24256332.102    24256338.561
  22461538.210   -12979186.33949  -9880581.49846  22461537.841    22461543.375
  23642766.783    15220169.63449  11860426.58946  23642766.303    23642771.750
  22457687.971   -12549339.91949  -9763996.52346  22457687.796    22457693.936
  20205948.208   -28652646.88949 -22070361.79948  20205947.843    20205951.189
  22493343.988     7502274.31149   5849666.37446  22493343.572    22493347.421
  21623295.830      -28408.89949    -18156.38047  21623295.234    21623300.624
  23920505.835    -7028212.43349  -5460614.50445  23920505.728    23920510.902
 03  3 25  2 21  0.0000000  0  8G25G31G23G 3G14G18G15G 9
  24237571.293    -4703654.87349  -3643902.03845  24237571.199    24237577.728
  22465460.315   -12958575.57849  -9864521.15746  22465459.926    22465465.438
  23654215.898    15280334.86249  11907308.59446  23654215.427    23654220.758
  22469494.478   -12487296.72849  -9715651.18346  22469494.223    22469500.376
  20205473.215   -28655142.83749 -22072306.67848  20205472.832    20205476.187
  22505180.095     7564473.02349   5898132.91046  22505179.668    22505183.430
  21637777.700       47693.17149     41143.91747  21637777.059    21637782.367
  23930739.520    -6974433.48049  -5418708.80545  23930739.394    23930744.592
 03  3 25  2 21 30.0000000  0  8G25G31G23G 3G14G18G15G 9
  24218806.804    -4802262.42349  -3720738.92445  24218806.639    24218813.154
  22469484.155   -12937430.31949  -9848044.32246  22469483.760    22469489.251
  23665670.718    15340530.22849  11954214.09646  23665670.247    23665675.546
  22481368.858   -12424896.19949  -9667027.39946  22481368.662    22481374.816
  20205096.043   -28657124.73049 -22073850.99948  20205095.693    20205099.039
  22517034.918     7626770.50049   5946676.40246  22517034.511    22517038.215
  21652329.496      124162.93649    100730.73847  21652328.795    21652334.102
  23941074.877    -6920120.74849  -5376387.17145  23941074.809    23941080.014
 03  3 25  2 22  0.0000000  0  9G25G31G11G23G 3G14G18G15G 9
  24200037.954    -4900892.18949  -3797593.12045  24200037.873    24200044.461
  22473608.371   -12915757.64049  -9831156.52046  22473607.925    22473613.365
  24663357.932    -4779168.28149  -3710747.87345  24663357.643    24663363.245
  23677130.136    15400750.10549  12001138.68546  23677129.734    23677134.972
  22493309.802   -12362146.43949  -9618131.50046  22493309.586    22493315.690
  20204815.428   -28658599.33949 -22075000.03248  20204815.058    20204818.420
  22528907.454     7689161.08549   5995292.45446  22528907.062    22528910.752
  21666949.781      200993.60049    160598.77647  21666949.143    21666954.500
  23951510.463    -6865281.41249  -5333655.21345  23951510.435    23951515.621
 03  3 25  2 22 30.0000000  0  9G25G31G11G23G 3G14G18G15G 9
  24181267.877    -4999528.13149  -3874452.13845  24181267.937    24181274.515
  22477835.174   -12893545.33449  -9813848.22246  22477834.779    22477840.211
  24644272.577    -4879461.85449  -3788898.60345  24644272.296    24644277.902
  23688596.975    15461008.33049  12048093.16046  23688596.546    23688601.717
  22505319.294   -12299036.34549  -9568954.82246  22505319.062    22505325.131
  20204633.795   -28659553.72649 -22075743.69948  20204633.433    20204636.790
  22540800.233     7751658.29749   6043991.59646  22540799.849    22540803.532
  21681641.171      278197.67949    220757.78647  21681640.562    21681645.898
  23962048.532    -6809903.78849  -5290503.79145  23962048.390    23962053.545
 03  3 25  2 23  0.0000000  0  9G25G31G11G23G 3G14G18G15G 9
  24162496.493    -5098171.98049  -3951317.30645  24162496.542    24162503.144
  22482163.546   -12870799.30049  -9796124.02646  22482163.172    22482168.613
  24625198.821    -4979694.50349  -3867001.85145  24625198.470    24625204.156
  23700070.114    15521300.49949  12095074.09446  23700069.633    23700074.964
  22517395.815   -12235573.21649  -9519503.04146  22517395.651    22517401.764
  20204550.139   -28659993.30549 -22076086.20948  20204549.791    20204553.098
  22552712.340     7814257.24549   6092770.00846  22552711.973    22552715.682
  21696402.654      355769.64649    281203.46047  21696402.014    21696407.375
  23972687.807    -6753993.88749  -5246937.63045  23972687.654    23972692.911
 03  3 25  2 23 30.0000000  0  9G25G31G11G23G 3G14G18G15G 9
  24143723.072    -5196827.27749  -4028191.41245  24143722.999    24143729.415
  22486592.266   -12847526.98749  -9777989.75446  22486591.787    22486597.232
  24606135.874    -5079870.36649  -3945060.86245  24606135.537    24606141.046
  23711548.650    15581620.86749  12142076.99846  23711548.197    23711553.576
  22529537.944   -12171765.92249  -9469783.09646  22529537.786    22529543.876
  20204563.153   -28659924.76049 -22076032.78048  20204562.792    20204566.105
  22564642.644     7876951.75949   6141622.88846  22564642.283    22564646.028
  21711232.616      433702.25449    341930.16047  21711232.027    21711237.475
  23983426.956    -6697559.16749  -5202962.50045  23983426.800    23983432.120
 03  3 25  2 24  0.0000000  0  9G25G31G11G23G 3G14G18G15G 9
  24124949.356    -5295483.69249  -4105066.38445  24124949.256    24124955.610
  22491121.923   -12823722.72349  -9759440.96346  22491121.511    22491127.060
  24587085.583    -5179979.90449  -4023068.19645  24587085.305    24587090.680
  23723034.076    15641976.93049  12189107.70345  23723033.616    23723038.883
  22541746.513   -12107609.71849  -9419791.27646  22541746.324    22541752.434
  20204674.038   -28659342.06049 -22075578.71348  20204673.676    20204676.957
  22576592.577     7939748.96349   6190555.78946  22576592.220    22576595.913
  21726132.568      512001.68949    402942.69047  21726131.952    21726137.396
  23994266.987    -6640594.30749  -5158574.30245  23994266.954    23994272.181
 03  3 25  2 24 30.0000000  0  9G25G31G11G23G 3G14G18G15G 9
  24106175.330    -5394141.27549  -4181942.28845  24106175.233    24106181.564
  22495752.148   -12799390.49149  -9740480.77446  22495751.785    22495757.272
  24568047.910    -5280023.79249  -4101024.37745  24568047.535    24568052.799
  23734525.795    15702366.30149  12236164.36445  23734525.360    23734530.453
  22554020.452   -12043109.99849  -9369531.77546  22554020.247    22554026.369
  20204882.098   -28658248.67849 -22074726.70848  20204881.721    20204885.004
  22588561.536     8002646.11349   6239566.56546  22588561.154    22588564.785
  21741101.657      590664.40749    464238.30347  21741101.009    21741106.408
  24005207.079    -6583103.79749  -5113776.49145  24005206.911    24005212.222
 03  3 25  2 25  0.0000000  0  9G25G31G11G23G 3G14G18G15G 9
  24087400.586    -5492802.14449  -4258820.75045  24087400.500    24087406.858
  22500481.841   -12774536.41149  -9721113.95546  22500481.411    22500486.800
  24549022.117    -5380004.59249  -4178931.39145  24549021.756    24549026.920
  23746023.087    15762784.57949  12283243.54645  23746022.641    23746027.568
  22566358.381   -11978274.13249  -9319010.34246  22566358.145    22566364.243
  20205186.290   -28656650.16249 -22073481.08748  20205185.921    20205189.176
  22600548.617     8065638.57349   6288651.60546  22600548.226    22600551.809
  21756138.699      669684.82449    525812.64247  21756138.079    21756143.505
  24016246.036    -6525093.83149  -5068573.92445  24016245.859    24016251.126
 03  3 25  2 25 30.0000000  0  9G25G31G11G23G 3G14G18G15G 9
  24068627.496    -5591455.09649  -4335693.06445  24068627.356    24068633.670
  22505311.940   -12749153.96549  -9701335.41546  22505311.527    22505316.917
  24530010.143    -5479912.50949  -4256781.62245  24530009.788    24530014.867
  23757527.425    15823240.23749  12330351.84645  23757526.976    23757531.830
  22578761.254   -11913096.65949  -9268222.71746  22578761.039    22578767.101
  20205587.910   -28654539.35449 -22071836.28648  20205587.533    20205590.793
  22612555.276     8128734.08849   6337816.94846  22612554.904    22612558.415
  21771245.232      749069.90249    587671.12047  21771244.601    21771249.996
  24027385.037    -6466557.88649  -5022961.49245  24027384.877    24027390.107
 03  3 25  2 26  0.0000000  0  9G25G31G11G23G 3G14G18G15G 9
  24049855.468    -5690102.39249  -4412560.97545  24049855.192    24049861.639
  22510241.341   -12723249.64549  -9681150.22646  22510240.915    22510246.328
  24511011.456    -5579750.46149  -4334577.31445  24511011.230    24511016.215
  23769037.863    15883728.28749  12377485.39545  23769037.438    23769042.310
  22591227.628   -11847585.14149  -9217174.80046  22591227.479    22591233.527
  20206085.928   -28651922.25749 -22069796.96848  20206085.568    20206088.809
  22624580.612     8191927.68549   6387058.72846  22624580.239    22624583.753
  21786419.899      828813.27349    649808.79947  21786419.246    21786424.617
  24038622.743    -6407502.87049  -4976944.59445  24038622.559    24038627.872
 03  3 25  2 26 30.0000000  0  9G25G31G11G23G 3G14G18G15G 9
  24031084.526    -5788743.94949  -4489424.42245  24031084.327    24031090.609
  22515269.250   -12696827.69849  -9660561.69846  22515268.814    22515274.241
  24492025.968    -5679518.93249  -4412318.87545  24492025.744    24492030.761
  23780554.001    15944246.47649  12424642.43545  23780553.555    23780558.566
  22603756.671   -11781744.85749  -9165870.70746  22603756.485    22603762.550
  20206679.627   -28648802.27449 -22067365.79648  20206679.247    20206682.482
  22636624.021     8255216.61649   6436374.78946  22636623.671    22636627.226
  21801662.061      908911.41849    712222.92247  21801661.424    21801666.800
  24049958.457    -6347933.23449  -4930526.70245  24049958.371    24049963.577
 03  3 25  2 27  0.0000000  0  9G25G31G11G23G 3G14G18G15G 9
  24012315.854    -5887372.99049  -4566278.12445  24012315.670    24012321.901
  22520396.268   -12669885.15449  -9639567.49946  22520395.804    22520401.257
  24473054.936    -5779211.48349  -4490001.26445  24473054.797    24473059.826
  23792076.884    16004799.55749  12471826.67245  23792076.408    23792081.474
  22616348.606   -11715574.16249  -9114309.15246  22616348.378    22616354.446
  20207369.596   -28645176.18649 -22064540.25448  20207369.229    20207372.495
  22648686.491     8318605.17549   6485768.49146  22648686.101    22648689.664
  21816972.366      989367.58349    774916.02847  21816971.735    21816977.173
  24061392.628    -6287846.17149  -4883705.62145  24061392.485    24061397.836
 03  3 25  2 27 30.0000000  0  9G25G31G11G23G 3G14G18G15G 9
  23993550.319    -5985985.48749  -4643118.93745  23993550.121    23993556.416
  22525622.142   -12642422.46249  -9618167.99746  22525621.717    22525627.213
  24454099.072    -5878824.69449  -4567621.84145  24454098.790    24454103.878
  23803606.690    16065389.00449  12519039.22645  23803606.176    23803611.299
  22629003.018   -11649074.68949  -9062491.40646  22629002.817    22629008.852
  20208156.014   -28641043.65049 -22061320.08048  20208155.635    20208158.873
  22660768.132     8382094.62649   6535240.79746  22660767.737    22660771.302
  21832350.741     1070181.70849    837888.06347  21832350.139    21832355.580
  24072925.030    -6227242.35349  -4836481.88045  24072924.871    24072930.323
 03  3 25  2 28  0.0000000  0  9G25G31G11G23G 3G14G18G15G 9
  23974787.691    -6084583.37849  -4719948.37645  23974787.520    23974793.744
  22530945.920   -12614446.02649  -9596368.17446  22530945.461    22530950.915
  24435157.862    -5978361.40649  -4645182.78745  24435157.533    24435162.604
  23815142.383    16126010.09249  12566276.44945  23815141.881    23815147.179
  22641718.659   -11582253.91349  -9010423.29446  22641718.424    22641724.418
  20209037.618   -28636410.56249 -22057709.86248  20209037.255    20209040.507
  22672868.038     8445679.98749   6584787.84746  22672867.660    22672871.237
  21847796.193     1151348.05949    901134.56147  21847795.616    21847800.984
  24084554.652    -6166128.48949  -4788860.68145  24084554.450    24084559.858
 03  3 25  2 28 30.0000000  0  9G25G31G11G23G 3G14G18G15G 9
  23956029.063    -6183160.76449  -4796761.84245  23956028.786    23956034.930
  22536367.707   -12585954.14749  -9574166.71246  22536367.247    22536372.756
  24416232.183    -6077816.39749  -4722680.08745  24416231.835    24416236.845
  23826684.839    16186666.42049  12613541.14245  23826684.310    23826689.654
  22654495.572   -11515110.89849  -8958104.08646  22654495.280    22654501.350
  20210014.942   -28631274.64649 -22053707.83248  20210014.558    20210017.841
  22684986.708     8509363.96849   6634411.73946  22684986.311    22684989.937
  21863309.101     1232868.65149    964657.08947  21863308.486    21863313.827
  24096281.590    -6104503.06649  -4740840.86745  24096281.431    24096286.788
 03  3 25  2 29  0.0000000  0  9G25G31G11G23G 3G14G18G15G 9
  23937274.515    -6281716.11649  -4873558.14045  23937274.210    23937280.375
  22541887.060   -12556949.73849  -9551565.87346  22541886.597    22541892.127
  24397322.033    -6177188.84949  -4800113.05045  24397321.686    24397326.893
  23838233.828    16247357.07849  12660832.56845  23838233.334    23838238.798
  22667332.919   -11447649.77949  -8905536.99946  22667332.682    22667338.789
  20211087.481   -28625638.29649 -22049315.85448  20211087.096    20211090.354
  22697123.933     8573145.65949   6684111.76246  22697123.578    22697127.165
  21878888.960     1314741.05949   1028453.76247  21878888.301    21878893.626
  24108105.369    -6042369.21249  -4692424.85045  24108105.206    24108110.349
 03  3 25  2 29 30.0000000  0  9G25G31G11G23G 3G14G18G15G 9
  23918524.322    -6380248.21849  -4950336.32045  23918524.060    23918530.264
  22547503.401   -12527435.94749  -9528568.12046  22547502.939    22547508.345
  24378427.696    -6276477.87649  -4877481.02045  24378427.386    24378432.768
  23849789.129    16308080.86049  12708149.81145  23849788.725    23849794.136
  22680230.003   -11379874.88149  -8852725.41946  22680229.833    22680235.932
  20212254.774   -28619503.94049 -22044535.81948  20212254.417    20212257.659
  22709279.527     8637023.61449   6733886.80546  22709279.163    22709282.783
  21894535.162     1396962.48349   1092522.39347  21894534.509    21894539.832
  24120025.093    -5979730.31149  -4643615.30745  24120024.974    24120030.156
 03  3 25  2 30  0.0000000  0  9G25G31G11G23G 3G14G18G15G 9
  23899779.498    -6478752.04949  -5027092.48445  23899779.377    23899785.525
  22553216.601   -12497412.60249  -9505173.30746  22553216.163    22553221.567
  24359550.033    -6375679.65249  -4954780.98145  24359549.785    24359555.195
  23861351.332    16368839.92049  12755494.54546  23861350.911    23861356.172
  22693186.739   -11311787.02349  -8799669.96646  22693186.564    22693192.626
  20213516.971   -28612870.93149 -22039367.22348  20213516.604    20213519.846
  22721453.707     8700999.43849   6783738.10346  22721453.305    22721456.964
  21910247.836     1479533.70149   1156863.59247  21910247.251    21910252.648
  24132041.042    -5916586.26549  -4594412.14145  24132040.876    24132046.102
 03  3 25  2 30 30.0000000  0  9G25G31G11G23G 3G14G18G15G 9
  23881040.850    -6577223.70749  -5103823.58445  23881040.820    23881046.912
  22559026.702   -12466880.11149  -9481381.76046  22559026.311    22559031.670
  24340689.714    -6474790.75549  -5032010.32745  24340689.541    24340694.789
  23872920.487    16429635.80749  12802867.96346  23872920.041    23872925.214
  22706202.720   -11243387.51049  -8746371.66446  22706202.533    22706208.629
  20214874.098   -28605739.00549 -22033809.86548  20214873.764    20214876.972
  22733646.708     8765074.42449   6833666.67846  22733646.354    22733650.000
  21926027.238     1562454.98549   1221477.56447  21926026.638    21926032.113
  24144152.904    -5852937.70949  -4544815.84745  24144152.722    24144157.954
 03  3 25  2 31  0.0000000  0  9G25G31G11G23G 3G14G18G15G 9
  23862308.346    -6675663.68649  -5180529.98745  23862308.288    23862314.307
  22564932.876   -12435843.12249  -9457197.09946  22564932.462    22564937.824
  24321846.561    -6573812.14349  -5109169.74445  24321846.357    24321851.619
  23884496.078    16490465.69049  12850267.87246  23884495.648    23884500.767
  22719276.992   -11174682.11349  -8692835.01346  22719276.791    22719282.862
  20216325.421   -28598112.30949 -22027866.97248  20216325.040    20216328.259
  22745858.078     8829245.67549   6883670.26246  22745857.680    22745861.393
  21941872.533     1645722.26949   1286361.15047  21941871.898    21941877.343
  24156359.823    -5788789.68749  -4494830.36245  24156359.600    24156364.833
 03  3 25  2 31 30.0000000  0  9G25G31G11G23G 3G14G18G15G 9
  23843582.146    -6774070.37949  -5257210.44845  23843582.062    23843588.008
  22570934.405   -12404304.91749  -9432621.87746  22570934.017    22570939.356
  24303020.498    -6672743.48249  -5186258.99045  24303020.219    24303025.439
  23896077.917    16551328.52349  12897693.46846  23896077.489    23896082.547
  22732408.718   -11105674.83949  -8639063.13746  22732408.491    22732414.523
  20217870.430   -28589993.21449 -22021540.39148  20217870.070    20217873.262
  22758087.426     8893511.51949   6933747.54846  22758087.034    22758090.724
  21957783.108     1729332.73749   1351512.14847  21957782.473    21957787.863
  24168661.225    -5724145.58749  -4444458.33745  24168660.974    24168666.220
 03  3 25  2 32  0.0000000  0  9G25G31G11G23G 3G14G18G15G 9
  23824863.564    -6872436.24649  -5333859.11045  23824863.511    23824869.515
  22577031.804   -12372262.41849  -9407653.70446  22577031.436    22577036.835
  24284213.056    -6771577.25349  -5263272.23045  24284212.739    24284217.944
  23907666.954    16612229.55249  12945148.82146  23907666.576    23907671.575
  22745598.094   -11036364.02049  -8585054.72246  22745597.900    22745603.909
  20219509.820   -28581378.24249 -22014827.40648  20219509.435    20219512.617
  22770335.635     8957876.67149   6983902.22246  22770335.276    22770338.959
  21973759.638     1813290.00849   1416933.38847  21973759.003    21973764.415
  24181057.543    -5659002.46249  -4393697.45045  24181057.292    24181062.535
 03  3 25  2 32 30.0000000  0  9G25G31G11G23G 3G14G18G15G 9
  23806152.424    -6970762.57949  -5410476.94945  23806152.504    23806158.526
  22583224.217   -12339721.33249  -9382297.01546  22583223.819    22583229.232
  24265423.768    -6870315.61049  -5340211.10245  24265423.396    24265428.505
  23919262.654    16673165.20849  12992631.17145  23919262.200    23919267.367
  22758844.037   -10966756.04149  -8530814.75846  22758843.860    22758849.928
  20221242.552   -28572272.39449 -22007731.92548  20221242.195    20221245.382
  22782601.992     9022337.00949   7034131.06746  22782601.603    22782605.332
  21989801.188     1897588.89149   1482620.81747  21989800.558    21989806.018
  24193547.643    -5593366.32349  -4342552.41545  24193547.386    24193552.664
 03  3 25  2 33  0.0000000  0  9G25G31G11G23G 3G14G18G15G 9
  23787449.891    -7069044.55849  -5487060.24345  23787450.041    23787456.078
  22589511.511   -12306681.71949  -9356551.87346  22589511.087    22589516.519
  24246653.380    -6968954.50849  -5417072.49045  24246653.131    24246657.991
  23930865.244    16734137.43149  13040141.98245  23930864.747    23930870.021
  22772146.393   -10896852.16549  -8476344.23446  22772146.171    22772152.161
  20223068.829   -28562675.25649 -22000253.62448  20223068.431    20223071.620
  22794886.792     9086894.25549   7084435.41646  22794886.409    22794890.107
  22005907.836     1982229.78349   1548574.74947  22005907.247    22005912.688
  24206131.584    -5527237.57449  -4291023.53045  24206131.364    24206136.616
 03  3 25  2 33 30.0000000  0  9G25G31G11G23G 3G14G18G15G 9
  23768756.348    -7167279.88049  -5563607.16645  23768756.482    23768762.534
  22595893.161   -12273145.86949  -9330420.05346  22595892.709    22595898.175
  24227902.267    -7067492.15749  -5493854.98545  24227902.042    24227906.783
  23942474.784    16795146.16349  13087681.25745  23942474.320    23942479.628
  22785504.330   -10826655.70449  -8421645.70946  22785504.084    22785510.102
  20224988.328   -28552588.25549 -21992393.61048  20224987.942    20224991.118
  22807190.041     9151548.19349   7134815.11046  22807189.631    22807193.348
  22022079.330     2067211.21449   1614794.03147  22022078.692    22022084.115
  24218808.675    -5460618.57549  -4239112.59845  24218808.608    24218813.648
 03  3 25  2 34  0.0000000  0  9G25G31G11G23G 3G14G18G15G 9
  23750072.395    -7265465.44349  -5640115.30045  23750072.407    23750078.382
  22602368.832   -12239115.32949  -9303902.74746  22602368.426    22602373.942
  24209170.861    -7165926.27049  -5570556.80445  24209170.670    24209175.401
  23954091.315    16856191.95049  13135249.40845  23954090.848    23954096.077
  22798917.456   -10756168.94849  -8366720.97246  22798917.258    22798923.322
  20227000.831   -28542012.44249 -21984152.70048  20227000.419    20227003.610
  22819511.631     9216298.84749   7185270.18246  22819511.211    22819514.937
  22038315.297     2152531.99449   1681277.74247  22038314.692    22038320.118
  24231578.828    -5393510.94549  -4186820.93045  24231578.698    24231583.869
 03  3 25  2 34 30.0000000  0  9G25G31G11G23G 3G14G18G15G 9
  23731398.258    -7363599.01749  -5716582.92945  23731398.115    23731404.053
  22608938.344   -12204592.27949  -9277001.68246  22608937.948    22608943.476
  24190459.448    -7264254.88149  -5647176.42245  24190459.174    24190463.889
  23965714.939    16917274.80549  13182846.44345  23965714.471    23965719.765
  22812385.313   -10685394.91049  -8311572.39146  22812385.094    22812391.198
  20229106.023   -28530949.41949 -21975532.14648  20229105.622    20229108.798
  22831851.661     9281146.09149   7235800.50846  22831851.249    22831854.991
  22054615.570     2238190.52349   1748024.62847  22054614.947    22054620.391
  24244441.490    -5325916.98149  -4134150.31245  24244441.362    24244446.627
 03  3 25  2 35  0.0000000  0  9G25G31G11G23G 3G14G18G15G 9
  23712734.206    -7461678.31449  -5793008.26845  23712734.146    23712740.031
  22615601.349   -12169578.97649  -9249718.60046  22615600.845    22615606.285
  24171768.354    -7362476.77349  -5723712.88245  24171768.123    24171772.828
  23977345.537    16978394.58749  13230472.26145  23977345.110    23977350.428
  22825907.197   -10614337.07249  -8256202.66346  22825907.013    22825913.121
  20231303.616   -28519400.80649 -21966533.21248  20231303.240    20231306.394
  22844209.890     9346089.20849   7286405.55146  22844209.513    22844213.240
  22070979.760     2324185.10749   1815033.38447  22070979.149    22070984.621
  24257396.272    -5257839.43249  -4081102.85045  24257396.203    24257401.297
 03  3 25  2 35 30.0000000  0  9G25G31G11G23G 3G14G18G15G 9
  23694081.004    -7559700.91749  -5869389.42445  23694081.029    23694086.836
  22622356.916   -12134077.86449  -9222055.40946  22622356.439    22622361.940
  24153098.004    -7460589.82349  -5800164.53145  24153097.728    24153102.544
  23988983.261    17039551.20949  13278126.77645  23988982.762    23988988.150
  22839482.573   -10542998.58949  -8200614.26946  22839482.335    22839488.377
  20233593.332   -28507368.28249 -21957157.20948  20233592.925    20233596.080
  22856586.370     9411128.05149   7337085.17046  22856585.995    22856589.647
  22087407.537     2410513.93049   1882302.58147  22087406.966    22087412.476
  24270442.546    -5189280.86249  -4027680.53845  24270442.562    24270447.555
 03  3 25  2 36  0.0000000  0  9G25G31G11G23G 3G14G18G15G 9
  23675439.614    -7657662.06649  -5945722.70545  23675439.624    23675445.311
  22629205.287   -12098089.03849  -9194012.17346  22629204.848    22629210.391
  24134449.151    -7558590.08449  -5876528.31645  24134448.869    24134453.577
  24000628.481    17100746.81949  13325811.67445  24000627.991    24000633.394
  22853111.099   -10471380.44049  -8144807.93446  22853110.831    22853116.882
  20235975.246   -28494851.17049 -21947403.60448  20235974.856    20235978.002
  22868981.366     9476264.00549   7387840.47746  22868980.984    22868984.626
  22103899.114     2497177.41549   1949832.55047  22103898.539    22103904.025
  24283580.363    -5120241.26549  -3973883.42645  24283580.407    24283585.518
 03  3 25  2 36 30.0000000  0  9G25G31G11G23G 3G14G18G15G 9
  23656810.132    -7755561.26649  -6022007.69245  23656809.931    23656815.656
  22636145.750   -12061616.86249  -9165592.30346  22636145.312    22636150.805
  24115821.712    -7656477.85949  -5952804.44745  24115821.375    24115826.063
  24012280.641    17161979.08949  13373525.13645  24012280.174    24012285.396
  22866791.775   -10399487.84649  -8088787.74446  22866791.510    22866797.616
  20238448.588   -28481853.57949 -21937275.59648  20238448.194    20238451.316
  22881394.371     9541494.63349   7438669.54346  22881393.971    22881397.573
  22120453.617     2584171.67349   2017620.27447  22120452.999    22120458.476
  24296808.811    -5050725.35449  -3919715.18745  24296808.850    24296813.835
 03  3 25  2 37  0.0000000  0  9G25G31G11G23G 3G14G18G15G 9
  23638192.999    -7853395.23449  -6098241.85246  23638192.740    23638198.451
  22643177.925   -12024662.53449  -9136796.73846  22643177.494    22643183.015
  24097216.271    -7754250.07449  -6028990.52945  24097215.885    24097220.585
  24023939.906    17223249.20049  13421268.09145  24023939.493    24023944.656
  22880524.261   -10327322.82049  -8032555.27646  22880524.003    22880530.160
  20241013.292   -28468375.90449 -21926773.50448  20241012.898    20241016.043
  22893825.530     9606820.91349   7489573.14346  22893825.145    22893828.793
  22137070.971     2671496.62849   2085665.68047  22137070.335    22137075.841
  24310127.589    -4980734.48649  -3865176.87045  24310127.399    24310132.693
 03  3 25  2 37 30.0000000  0  9G25G31G11G23G 3G14G18G15G 9
  23619588.722    -7951160.48849  -6174422.48346  23619588.549    23619594.189
  22650301.658   -11987227.40949  -9107626.51646  22650301.193    22650306.685
  24078633.299    -7851904.07849  -6105084.50445  24078632.970    24078637.510
  24035606.575    17284558.17049  13469041.32145  24035606.157    24035611.376
  22894308.260   -10254887.86249  -7976112.45746  22894307.940    22894314.102
  20243669.241   -28454418.68549 -21915897.73748  20243668.860    20243671.975
  22906275.009     9672243.27649   7540551.62046  22906274.596    22906278.264
  22153751.089     2759151.13649   2153967.87446  22153750.477    22153755.943
  24323536.425    -4910270.20149  -3810269.62545  24323536.276    24323541.611
 03  3 25  2 38  0.0000000  0  9G25G31G11G23G 3G14G18G15G 9
  23600997.979    -8048855.23049  -6250548.16146  23600997.820    23601003.406
  22657516.182   -11949314.76249  -9078084.21346  22657515.759    22657521.239
  24060072.964    -7949439.05349  -6181085.72545  24060072.649    24060077.106
  24047280.476    17345905.01249  13516844.06045  24047280.024    24047285.176
  22908142.916   -10182186.96349  -7919462.42446  22908142.483    22908148.585
  20246415.976   -28439984.55449 -21904650.34748  20246415.588    20246418.709
  22918742.452     9737760.49149   7591604.01246  22918742.055    22918745.732
  22170493.486     2847132.95949   2222525.12646  22170492.877    22170498.295
  24337034.817    -4839335.96849  -3754996.20245  24337034.611    24337039.932
 03  3 25  2 38 30.0000000  0  9G25G31G11G23G 3G14G18G15G 9
  23582421.573    -8146474.91749  -6326615.35346  23582421.340    23582426.910
  22664821.553   -11910924.87449  -9048170.01646  22664821.111    22664826.579
  24041536.088    -8046850.71049  -6256990.85645  24041535.791    24041540.220
  24058961.977    17407291.85049  13564677.97045  24058961.587    24058966.686
  22922027.872   -10109221.24949  -7862606.04546  22922027.461    22922033.527
  20249253.489   -28425073.16749 -21893031.06948  20249253.104    20249256.231
  22931228.373     9803374.28649   7642731.66046  22931227.962    22931231.599
  22187298.175     2935442.33149   2291337.61346  22187297.574    22187302.999
  24350622.604    -4767932.22949  -3699356.92745  24350622.414    24350627.642
 03  3 25  2 39  0.0000000  0  8G25G31G11G23G 3G14G18G15
  23563859.989    -8244016.19949  -6402621.47046  23563859.800    23563865.300
  22672217.557   -11872058.66349  -9017884.67346  22672217.091    22672222.545
  24023023.262    -8144135.81349  -6332797.38545  24023022.997    24023027.474
  24070651.451    17468720.07349  13612544.09645  24070651.045    24070656.113
  22935962.787   -10035992.31249  -7805544.55546  22935962.444    22935968.567
  20252181.780   -28409684.79649 -21881040.12048  20252181.387    20252184.497
  22943732.876     9869085.70249   7693935.37446  22943732.455    22943736.046
  22204165.143     3024078.85649   2360405.02046  22204164.537    22204170.040
 03  3 25  2 39 30.0000000  0  8G25G31G11G23G 3G14G18G15
  23545312.659    -8341483.34049  -6478569.80046  23545312.400    23545317.814
  22679702.360   -11832725.58749  -8987235.53346  22679701.909    22679707.372
  24004533.521    -8241299.75949  -6408509.48645  24004533.278    24004537.724
  24082347.351    17530182.68449  13660437.04545  24082346.899    24082352.112
  22949945.893    -9962510.30249  -7748285.85646  22949945.583    22949951.799
  20255199.172   -28393828.27149 -21868684.37248  20255198.778    20255201.894
  22956254.486     9934887.27549   7745209.33546  22956254.086    22956257.589
  22221092.680     3113033.59249   2429720.38846  22221092.088    22221097.632
 03  3 25  2 40  0.0000000  0  8G25G31G11G23G 3G14G18G15
  23526781.230    -8438866.04449  -6554452.33346  23526781.028    23526786.419
  22687277.006   -11792920.49149  -8956218.58646  22687276.586    22687282.051
  23986068.738    -8338332.96149  -6484119.72745  23986068.460    23986072.858
  24094051.252    17591687.30249  13708362.72745  24094050.835    24094056.021
  22963978.060    -9888770.90449  -7690826.60546  22963977.749    22963983.940
  20258306.765   -28377497.66249 -21855959.21248  20258306.346    20258309.481
  22968794.640    10000786.16249   7796559.13446  22968794.274    22968797.693
  22238081.846     3202312.41649   2499288.28046  22238081.287    22238086.897
 03  3 25  2 40 30.0000000  0  8G25G31G11G23G 3G14G18G15
  23508266.670    -8536159.40949  -6630265.26946  23508266.566    23508271.996
  22694941.446   -11752643.31749  -8924833.79146  22694941.049    22694946.542
  23967629.489    -8435231.01449  -6559624.65445  23967629.226    23967633.621
  24105763.696    17653236.39749  13756323.06245  24105763.277    24105768.494
  22978058.989    -9814774.98349  -7633167.47346  22978058.691    22978064.886
  20261504.698   -28360692.34349 -21842864.15048  20261504.312    20261507.432
  22981353.674    10066784.51949   7847986.43846  22981353.270    22981356.672
  22255132.816     3291916.12849   2569109.33346  22255132.273    22255137.911
 03  3 25  2 41  0.0000000  0  8G25G31G11G23G 3G14G18G15
  23489768.286    -8633368.57949  -6706012.58746  23489768.112    23489773.621
  22702693.821   -11711904.35149  -8893089.15946  22702693.412    22702698.922
  23949214.734    -8532000.14849  -6635029.10845  23949214.534    23949219.075
  24117483.125    17714822.07349  13804311.88945  24117482.624    24117487.874
  22992186.593    -9740533.57049  -7575317.04746  22992186.370    22992192.557
  20264791.179   -28343421.76449 -21829406.54148  20264790.787    20264793.899
  22993930.067    10132874.48649   7899485.12546  22993929.674    22993933.105
  22272243.971     3381835.21149   2639176.11946  22272243.377    22272248.892
 03  3 25  2 41 30.0000000  0  8G25G31G11G23G 3G14G18G15
  23471287.446    -8730486.07449  -6781688.47646  23471287.276    23471292.693
  22710534.666   -11670700.60049  -8860982.35646  22710534.255    22710539.737
  23930825.969    -8628632.97849  -6710327.35145  23930825.744    23930830.396
  24129210.563    17776449.82049  13852333.51245  24129210.016    24129215.312
  23006361.459    -9666044.26349  -7517273.45746  23006361.188    23006367.411
  20268166.845   -28325682.29149 -21815583.56248  20268166.440    20268169.567
  23006524.889    10199060.97749   7951059.03146  23006524.475    23006527.993
  22289415.828     3472073.35749   2709491.54946  22289415.149    22289420.633
 03  3 25  2 42  0.0000000  0  8G25G31G11G23G 3G14G18G15
  23452823.827    -8827513.11849  -6857293.87846  23452823.568    23452828.985
  22718462.776   -11629038.36349  -8828518.28446  22718462.336    22718467.806
  23912462.864    -8725131.23849  -6785520.73045  23912462.597    23912467.297
  24140945.174    17838115.87249  13900384.97745  24140944.672    24140949.874
  23020582.174    -9591314.04249  -7459042.13546  23020581.893    23020588.139
  20271630.732   -28307479.48649 -21801399.54348  20271630.342    20271633.443
  23019137.330    10265339.86149   8002704.92746  23019136.903    23019140.529
  22306647.052     3562624.77649   2780051.09346  22306646.451    22306652.015
 03  3 25  2 42 30.0000000  0  8G25G31G11G23G 3G14G18G15
  23434379.459    -8924438.96449  -6932820.42846  23434379.137    23434384.534
  22726479.150   -11586911.99749  -8795692.56346  22726478.736    22726484.179
  23894127.341    -8821484.74149  -6860601.30545  23894127.020    23894131.786
  24152688.685    17899828.46849  13948472.71745  24152688.182    24152693.353
  23034849.678    -9516337.92549  -7400619.20546  23034849.415    23034855.654
  20275183.933   -28288807.16549 -21786849.67048  20275183.523    20275186.631
  23031768.835    10331718.79649   8054428.77046  23031768.419    23031772.055
  22323939.181     3653495.82249   2850859.68846  22323938.589    22323944.224
 03  3 25  2 43  0.0000000  0  8G25G31G11G23G 3G14G18G15
  23415952.859    -9021270.91949  -7008273.81246  23415952.563    23415957.893
  22734581.375   -11544333.95749  -8762514.87146  22734581.027    22734586.556
  23875817.731    -8917701.67649  -6935575.45445  23875817.416    23875822.292
  24164439.079    17961577.64149  13996588.94945  24164438.577    24164443.682
  23049161.481    -9441128.95549  -7342014.81946  23049161.247    23049167.458
  20278824.237   -28269676.97249 -21771943.01448  20278823.852    20278826.972
  23044417.413    10398187.62549   8106222.68146  23044417.022    23044420.663
  22341290.015     3744674.84249   2921908.28246  22341289.397    22341295.032
 03  3 25  2 43 30.0000000  0  8G25G31G11G23G 3G14G18G15
  23397546.117    -9117997.92249  -7083645.41446  23397545.976    23397551.295
  22742770.991   -11501297.94149  -8728980.33246  22742770.567    22742776.069
  23857536.135    -9013771.34949  -7010434.85845  23857535.892    23857540.724
  24176198.207    18023372.27849  14044740.60745  24176197.756    24176202.801
  23063518.545    -9365681.73249  -7283224.78846  23063518.348    23063524.557
  20282553.054   -28250081.91849 -21756674.12548  20282552.671    20282555.785
  23057084.783    10464754.78249   8158093.19446  23057084.343    23057087.964
  22358700.789     3836168.95349   2993202.39246  22358700.184    22358705.797
 03  3 25  2 44  0.0000000  0  8G25G31G11G23G 3G14G18G15
  23379158.994    -9214622.49649  -7158937.21546  23379158.825    23379164.116
  22751046.225   -11457811.63949  -8695094.92446  22751045.769    22751051.221
  23839282.203    -9109696.62349  -7085181.74545  23839281.949    23839286.684
  24187964.893    18085207.18649  14092923.64045  24187964.510    24187969.599
  23077919.369    -9290004.78349  -7224255.74946  23077919.169    23077925.418
  20286368.976   -28230028.83749 -21741048.33848  20286368.609    20286371.726
  23069769.832    10531414.89849   8210036.14546  23069769.400    23069772.945
  22376170.217     3927971.37349   3064736.74146  22376169.610    22376175.195
 03  3 25  2 44 30.0000000  0  8G25G31G11G23G 3G14G18G15
  23360792.490    -9311138.69949  -7234144.56546  23360792.340    23360797.596
  22759407.167   -11413874.12749  -8660857.91346  22759406.751    22759412.231
  23821056.598    -9205472.57049  -7159812.25945  23821056.346    23821061.079
  24199740.072    18147085.94049  14141140.84745  24199739.578    24199744.699
  23092364.004    -9214097.67849  -7165107.37846  23092363.799    23092370.028
  20290272.324   -28209516.42349 -21725064.62848  20290271.957    20290275.105
  23082473.109    10598171.05049   8262053.93346  23082472.687    23082476.190
  22393698.448     4020083.29549   3136512.26646  22393697.876    22393703.493
 03  3 25  2 45  0.0000000  0  8G25G31G11G23G 3G14G18G15
  23342446.791    -9407545.70749  -7309266.82546  23342446.670    23342451.954
  22767853.212   -11369489.49549  -8626272.50446  22767852.824    22767858.349
  23802859.536    -9301098.84249  -7234326.15945  23802859.293    23802864.017
  24211523.307    18209006.99249  14189391.04045  24211522.861    24211527.938
  23106851.470    -9137965.36849  -7105783.51446  23106851.290    23106857.518
  20294262.497   -28188547.87049 -21708725.48248  20294262.145    20294265.279
  23095194.422    10665021.51649   8314145.21346  23095193.980    23095197.437
  22411285.033     4112501.38249   3208526.35146  22411284.431    22411290.046
 03  3 25  2 45 30.0000000  0  8G25G31G11G23G 3G14G18G15
  23324122.764    -9503839.13949  -7384300.58846  23324122.566    23324127.859
  22776384.331   -11324658.53249  -8591339.30546  22776383.927    22776389.425
  23784691.783    -9396571.38349  -7308720.26145  23784691.501    23784696.183
  24223314.878    18270972.17949  14237675.60345  24223314.488    24223319.583
  23121381.594    -9061609.25349  -7046285.26946  23121381.400    23121387.621
  20298339.449   -28167123.24649 -21692030.95648  20298339.082    20298342.223
  23107933.842    10731967.81849   8366311.16746  23107933.451    23107936.900
  22428929.895     4205225.56749   3280778.95646  22428929.305    22428934.896
 03  3 25  2 46  0.0000000  0  8G25G31G11G23G 3G14G18G15
  23305820.533    -9600017.48049  -7459244.66646  23305820.327    23305825.600
  22784999.692   -11279384.94549  -8556061.20246  22784999.233    22785004.686
  23766553.249    -9491889.40349  -7382993.95545  23766553.028    23766557.591
  24235114.674    18332980.53849  14285993.80445  24235114.299    24235119.341
  23135953.615    -8985033.25449  -6986615.67446  23135953.393    23135959.580
  20302502.669   -28145245.32049 -21674983.20848  20302502.320    20302505.445
  23120691.203    10799008.41349   8418550.60046  23120690.799    23120694.312
  22446632.424     4298253.11349   3353267.95246  22446631.830    22446637.406
 03  3 25  2 46 30.0000000  0  8G25G31G11G23G 3G14G18G15
  23287540.490    -9696078.96249  -7534097.68646  23287540.351    23287545.559
  22793698.480   -11233672.07649  -8520440.80046  22793698.071    22793703.597
  23748444.409    -9587051.81549  -7457146.40745  23748444.205    23748448.674
  24246922.533    18395031.18549  14334344.95745  24246922.166    24246927.213
  23150566.668    -8908241.57249  -6926778.01846  23150566.436    23150572.607
  20306751.634   -28122916.92449 -21657584.44548  20306751.249    20306754.389
  23133466.209    10866142.17349   8470862.63046  23133465.855    23133469.466
  22464392.260     4391581.29849   3425991.21446  22464391.645    22464397.169
 03  3 25  2 47  0.0000000  0  8G25G31G11G23G 3G14G18G15
  23269284.223    -9792015.55449  -7608853.38746  23269284.130    23269289.327
  22802481.525   -11187516.75249  -8484475.63046  22802481.161    22802486.687
  23730366.700    -9682050.85149  -7531171.55646  23730366.399    23730370.955
  24258739.499    18457130.08349  14382733.69745  24258739.155    24258744.202
  23165221.284    -8831231.52149  -6866770.19746  23165221.001    23165227.145
  20311086.967   -28100134.29049 -21639831.73548  20311086.597    20311089.749
  23146260.114    10933374.89449   8523251.76446  23146259.768    23146263.455
  22482210.070     4485214.30949   3498951.99846  22482209.410    22482214.956
 03  3 25  2 47 30.0000000  0  8G25G31G11G23G 3G14G18G15
  23251050.945    -9887831.20849  -7683514.85046  23251050.893    23251056.127
  22811347.063   -11140928.56849  -8448173.16646  22811346.653    22811352.135
  23712319.051    -9776891.24149  -7605073.06946  23712318.803    23712323.448
  24270564.364    18519270.27549  14431154.62045  24270563.958    24270569.164
  23179915.427    -8754013.26749  -6806600.14146  23179915.119    23179921.282
  20315507.149   -28076906.09149 -21621731.82348  20315506.767    20315509.911
  23159071.482    11000699.10249   8575712.19746  23159071.118    23159074.776
  22500084.039     4579143.08649   3572143.25146  22500083.417    22500089.025
 03  3 25  2 48  0.0000000  0  8G25G31G11G23G 3G14G18G15
  23232841.941    -9983519.39249  -7758076.99946  23232841.899    23232847.259
  22820295.122   -11093906.18149  -8411532.36446  22820294.669    22820300.228
  23694302.866    -9871567.04349  -7678846.36446  23694302.675    23694307.136
  24282398.009    18581455.94249  14479610.97745  24282397.526    24282402.771
  23194649.244    -8676586.10649  -6746267.29446  23194648.969    23194655.190
  20320012.508   -28053230.11749 -21603282.99948  20320012.128    20320015.308
  23171901.004    11068118.67949   8628246.94146  23171900.607    23171904.269
  22518014.729     4673369.76749   3645566.64346  22518014.154    22518019.785
 03  3 25  2 48 30.0000000  0  8G25G31G11G23G 3G14G18G15
  23214657.477   -10079078.49249  -7832538.57046  23214657.547    23214662.931
  22829325.251   -11046452.59749  -8374555.56446  22829324.797    22829330.388
  23676318.206    -9966076.84349  -7752490.29746  23676317.996    23676322.412
  24294239.991    18643686.56549  14528102.36245  24294239.538    24294244.873
  23209422.133    -8598953.82549  -6685774.62546  23209421.912    23209428.148
  20324602.640   -28029108.86149 -21584487.20848  20324602.261    20324605.430
  23184748.386    11135632.58849   8680855.18846  23184747.983    23184751.657
  22536001.682     4767892.06749   3719220.36846  22536001.141    22536006.794
 03  3 25  2 49  0.0000000  0  8G25G31G11G23G 3G14G18G15
  23196498.558   -10174504.56949  -7906896.48646  23196498.538    23196503.879
  22838437.114   -10998569.31349  -8337243.93846  22838436.689    22838442.208
  23658365.731   -10060417.35549  -7826002.33146  23658365.534    23658369.935
  24306090.936    18705963.72749  14576630.01645  24306090.503    24306095.801
  23224233.790    -8521118.17249  -6625123.46946  23224233.558    23224239.802
  20329277.400   -28004542.87049 -21565344.86548  20329277.004    20329280.164
  23197614.044    11203242.15649   8733537.96146  23197613.636    23197617.344
  22554044.761     4862709.46649   3793104.06246  22554044.220    22554049.930
 03  3 25  2 49 30.0000000  0  8G25G31G11G23G 3G14G18G15
  23178365.135   -10269797.10749  -7981150.33646  23178364.952    23178370.229
  22847629.874   -10950261.11749  -8299601.20446  22847629.425    22847634.985
  23640445.522   -10154588.43949  -7899382.34846  23640445.321    23640449.723
  24317950.396    18768285.26249  14625192.24345  24317949.924    24317955.281
  23239083.164    -8443084.43249  -6564317.96846  23239082.957    23239089.157
  20334035.922   -27979536.43149 -21545859.31848  20334035.550    20334038.706
  23210497.386    11270944.94149   8786293.38146  23210497.007    23210500.686
  22572143.361     4957817.85449   3867214.47446  22572142.820    22572148.423
 03  3 25  2 50  0.0000000  0  8G25G31G11G23G 3G14G18G15
  23160257.805   -10364951.48249  -8055296.54346  23160257.578    23160262.863
  22856903.343   -10901528.57449  -8261627.80746  22856902.955    22856908.526
  23622558.072   -10248586.63149  -7972627.64746  23622557.914    23622562.389
  24329818.716    18830653.33649  14673790.73745  24329818.217    24329823.596
  23253969.937    -8364853.86949  -6503359.10146  23253969.702    23253975.920
  20338878.348   -27954089.36349 -21526030.41748  20338877.968    20338881.082
  23223398.944    11338742.60049   8839122.71846  23223398.466    23223402.005
  22590297.462     5053217.39749   3941551.77146  22590296.872    22590302.396
 03  3 25  2 50 30.0000000  0  8G25G31G11G23G 3G14G18G15
  23142177.438   -10459963.81049  -8129332.06846  23142177.264    23142182.552
  22866257.446   -10852373.03949  -8223324.81146  22866257.000    22866262.545
  23604704.442   -10342408.02649  -8045735.19246  23604704.254    23604708.814
  24341696.165    18893069.50149  14722426.69845  24341695.595    24341700.940
  23268893.939    -8286428.14149  -6442248.15446  23268893.710    23268899.903
  20343804.533   -27928201.90249 -21505858.35848  20343804.157    20343807.284
  23236318.692    11406636.48449   8892027.04946  23236318.282    23236321.700
  22608506.746     5148907.57149   4016115.54046  22608506.117    22608511.593
 03  3 25  2 51  0.0000000  0  8G25G31G11G23G 3G14G18G15
  23124124.127   -10554834.20449  -8203256.99246  23124124.012    23124129.248
  22875690.899   -10802799.88349  -8184696.38446  22875690.479    22875696.031
  23586884.180   -10436053.37849  -8118705.54546  23586884.020    23586888.680
  24353582.132    18955530.86449  14771097.88645  24353581.646    24353586.890
  23283853.869    -8207813.18949  -6380989.77146  23283853.624    23283859.839
  20348813.641   -27901879.03649 -21485347.01848  20348813.250    20348816.354
  23249256.244    11474623.34149   8945003.81846  23249255.795    23249259.156
  22626770.353     5244883.88449   4090902.27646  22626769.743    22626775.277
 03  3 25  2 51 30.0000000  0  8G25G31G11G23G 3G14G18G15
  23106098.878   -10649557.71249  -8277067.45946  23106098.701    23106103.883
  22885203.758   -10752809.48049  -8145742.83346  22885203.353    22885208.906
  23569098.354   -10529518.19649  -8191535.24446  23569098.163    23569102.781
  24365477.264    19018040.07149  14819806.35545  24365476.701    24365481.976
  23298849.566    -8129009.95649  -6319584.67746  23298849.372    23298855.620
  20353905.655   -27875120.16849 -21464495.93948  20353905.265    20353908.371
  23262211.917    11542705.55049   8998054.89146  23262211.416    23262214.791
  22645088.575     5341146.84549   4165912.35446  22645087.982    22645093.486
 03  3 25  2 52  0.0000000  0  8G25G31G11G23G 3G14G18G15
  23088101.647   -10744133.23749  -8350762.61646  23088101.530    23088106.697
  22894795.217   -10702405.96549  -8106467.37646  22894794.814    22894800.305
  23551347.042   -10622801.89949  -8264223.80646  23551346.802    23551351.454
  24377381.370    19080595.70249  14868550.98745  24377380.810    24377385.932
  23313880.211    -8050023.24349  -6258036.59546  23313880.017    23313886.269
  20359079.991   -27847928.83049 -21443307.86948  20359079.603    20359082.687
  23275185.227    11610881.26749   9051178.83346  23275184.796    23275188.211
  22663460.688     5437692.69849   4241142.87146  22663460.093    22663465.639
 03  3 25  2 52 30.0000000  0  8G25G31G11G23G 3G14G18G15
  23070133.611   -10838555.76949  -8424338.56546  23070133.529    23070138.609
  22904465.364   -10651589.60049  -8066870.22246  22904464.939    22904470.393
  23533630.946   -10715899.90949  -8336767.66246  23533630.746    23533635.415
  24389294.620    19143200.50449  14917333.93945  24389294.053    24389299.208
  23328945.650    -7970853.62949  -6196345.99046  23328945.497    23328951.746
  20364336.740   -27820304.44749 -21421782.36348  20364336.353    20364339.433
  23288176.896    11679153.06449   9104377.62746  23288176.431    23288179.989
  22681886.740     5534522.42449   4316594.58846  22681886.177    22681891.817
 03  3 25  2 53  0.0000000  0  8G25G31G11G23G 3G14G18G15
  23052195.134   -10932823.04749  -8497793.53846  23052194.998    23052200.047
  22914213.186   -10600363.85549  -8026954.05246  22914212.781    22914218.407
  23515950.560   -10808810.84549  -8409165.74546  23515950.346    23515954.975
  24401217.047    19205853.93249  14966154.78545  24401216.520    24401221.794
  23344045.164    -7891504.87249  -6134515.81046  23344044.974    23344051.351
  20369675.343   -27792249.57749 -21399921.41348  20369674.957    20369678.072
  23301186.598    11747519.82249   9157650.42946  23301186.214    23301189.730
  22700366.333     5631633.19049   4392265.30246  22700365.753    22700371.347
 03  3 25  2 53 30.0000000  0  8G25G31G11G23G 3G14G18G15
  23034286.348   -11026934.47849  -8571127.05946  23034286.176    23034291.181
  22924038.152   -10548733.11049  -7986722.31446  22924037.739    22924043.450
  23498305.939   -10901534.35049  -8481417.77446  23498305.622    23498310.267
  24413148.425    19268554.23949  15015012.16845  24413147.959    24413153.346
  23359177.941    -7811981.78049  -6072549.76246  23359177.748    23359184.140
  20375095.204   -27763767.91349 -21377727.89248  20375094.815    20375097.914
  23314214.128    11815979.59749   9210995.70446  23314213.746    23314217.229
  22718898.797     5729021.30449   4468152.12946  22718898.155    22718903.669
 03  3 25  2 54  0.0000000  0  8G25G31G11G23G 3G14G18G15
  23016408.063   -11120884.99049  -8644335.20846  23016407.942    23016412.936
  22933940.317   -10496697.38049  -7946174.99346  22933939.864    22933945.482
  23480697.837   -10994065.49549  -8553519.91646  23480697.551    23480702.039
  24425089.439    19331304.48149  15063908.46445  24425089.003    24425094.408
  23374343.783    -7732284.74749  -6010448.19146  23374343.619    23374349.951
  20380596.420   -27734858.68449 -21355201.21248  20380596.027    20380599.128
  23327259.835    11884535.18449   9264415.63646  23327259.444    23327262.796
  22737484.083     5826687.86849   4544255.93346  22737483.438    22737489.030
 03  3 25  2 54 30.0000000  0  8G25G31G11G23G 3G14G18G15
  22998560.816   -11214672.62149  -8717416.43546  22998560.687    22998565.670
  22943918.676   -10444260.41949  -7905315.02846  22943918.306    22943923.934
  23463126.516   -11086403.12049  -8625471.23346  23463126.256    23463130.654
  24437039.807    19394103.99149  15112843.14545  24437039.400    24437044.780
  23389542.027    -7652417.82749  -5948214.24046  23389541.797    23389548.168
  20386178.475   -27705524.77849 -21332343.60848  20386178.073    20386181.181
  23340323.578    11953185.37549   9317909.28146  23340323.170    23340326.422
  22756121.744     5924629.82349   4620574.33746  22756121.155    22756126.777
 03  3 25  2 55  0.0000000  0  8G25G31G11G23G 3G14G18G15
  22980745.016   -11308295.06349  -8790368.94246  22980744.872    22980749.834
  22953973.041   -10391425.07449  -7864144.64846  22953972.575    22953978.169
  23445592.281   -11178545.95849  -8697270.78346  23445592.014    23445596.407
  24448999.500    19456952.69649  15161816.14845  24448999.160    24449004.350
  23404771.893    -7572384.57649  -5885850.69146  23404771.633    23404778.018
  20391840.833   -27675768.72349 -21309157.06748  20391840.453    20391843.575
  23353405.070    12021929.15749   9371475.86446  23353404.674    23353407.909
  22774811.540     6022845.04749   4697105.67146  22774810.926    22774816.478
 03  3 25  2 55 30.0000000  0  8G25G31G11G23G 3G14G18G15
  22962961.365   -11401748.70749  -8863189.90646  22962961.222    22962966.209
  22964102.657   -10338193.47649  -7822665.48246  22964102.193    22964107.820
  23428095.862   -11270490.01249  -8768915.43446  23428095.568    23428099.979
  24460968.834    19519851.53949  15210828.23145  24460968.344    24460973.552
  23420032.932    -7492187.29549  -5823359.32946  23420032.659    23420039.055
  20397583.415   -27645591.10249 -21285642.02548  20397583.047    20397586.144
  23366504.692    12090768.26749   9425116.73246  23366504.355    23366507.600
  22793553.164     6121332.48949   4773849.14246  22793552.502    22793558.030
 03  3 25  2 56  0.0000000  0  8G25G31G11G23G 3G14G18G15
  22945210.360   -11495030.51249  -8935876.98846  22945210.232    22945215.211
  22974307.202   -10284567.60549  -7780879.09746  22974306.778    22974312.468
  23410637.720   -11362232.77349  -8840403.21446  23410637.443    23410641.856
  24472947.837    19582801.20349  15259879.91945  24472947.301    24472952.513
  23435324.656    -7411828.26249  -5760741.91346  23435324.432    23435330.833
  20403405.970   -27614993.50249 -21261799.72648  20403405.586    20403408.676
  23379622.557    12159702.68249   9478831.85246  23379622.154    23379625.458
  22812346.224     6220090.88649   4850803.73846  22812345.592    22812351.107
 03  3 25  2 56 30.0000000  0  8G25G31G11G23G 3G14G18G15
  22927492.328   -11588139.04549  -9008429.04746  22927492.228    22927497.137
  22984586.111   -10230551.51049  -7738788.64446  22984585.692    22984591.392
  23393218.015   -11453773.73949  -8911733.76846  23393217.762    23393222.067
  24484936.146    19645800.50849  15308970.28245  24484935.641    24484940.994
  23450646.281    -7331312.08849  -5698002.03346  23450646.115    23450652.515
  20409307.771   -27583979.15049 -21237632.69048  20409307.400    20409310.537
  23392758.178    12228730.62949   9532619.85646  23392757.791    23392761.108
  22831190.263     6319117.01549   4927966.94746  22831189.627    22831195.097
 03  3 25  2 57  0.0000000  0  8G25G31G11G23G 3G14G18G15
  22909807.989   -11681070.63349  -9080843.22346  22909807.920    22909812.730
  22994939.017   -10176146.75749  -7696395.35146  22994938.576    22994944.239
  23375837.455   -11545109.32049  -8982904.28646  23375837.135    23375841.417
  24496934.233    19708850.95949  15358100.51145  24496933.786    24496939.073
  23465997.621    -7250640.69849  -5635141.21646  23465997.428    23466003.759
  20415288.760   -27552548.78249 -21213141.48048  20415288.370    20415291.464
  23405911.877    12297853.77449   9586482.04846  23405911.434    23405914.846
  22850085.183     6418410.35149   5005338.39246  22850084.535    22850089.978
 03  3 25  2 57 30.0000000  0  8G25G31G11G23G 3G14G18G15
  22892157.976   -11773822.23849  -9153117.14846  22892157.869    22892162.610
  23005365.316   -10121356.06949  -7653701.31946  23005364.917    23005370.604
  23358496.277   -11636237.28949  -9053913.01546  23358496.020    23358500.291
  24508942.228    19771952.96049  15407270.86745  24508941.703    24508946.959
  23481377.877    -7169816.92849  -5572161.66446  23481377.710    23481384.045
  20421348.513   -27520704.37649 -21188327.64548  20421348.135    20421351.252
  23419083.624    12367071.83649   9640418.20446  23419083.206    23419086.658
  22869030.519     6517968.89249   5082916.48646  22869029.900    22869035.332
 03  3 25  2 58  0.0000000  0  8G25G31G11G23G 3G14G18G15
  22874542.819   -11866390.66249  -9225248.33146  22874542.683    22874547.379
  23015864.700   -10066181.68649  -7610708.30546  23015864.259    23015869.939
  23341195.208   -11727154.96249  -9124757.88846  23341194.927    23341199.155
  24520959.938    19835107.15249  15456481.93745  24520959.373    24520964.719
  23496786.700    -7088843.31149  -5509065.35846  23496786.453    23496792.824
  20427486.806   -27488447.29049 -21163192.24348  20427486.445    20427489.571
  23432273.537    12436385.30949   9694428.67346  23432273.155    23432276.600
  22888026.025     6617790.90649   5160699.88246  22888025.419    22888030.828
 03  3 25  2 58 30.0000000  0  8G25G31G11G23G 3G14G18G15
  22856962.622   -11958774.76449  -9297235.88946  22856962.505    22856967.267
  23026436.202   -10010627.69549  -7567419.49046  23026435.780    23026441.505
  23323934.223   -11817861.45649  -9195438.19746  23323933.946    23323938.223
  24532987.438    19898312.74349  15505733.02245  24532987.156    24532992.295
  23512223.085    -7007724.35549  -5445855.80246  23512222.837    23512229.226
  20433703.063   -27455780.82449 -21137737.83948  20433702.682    20433705.797
  23445481.321    12505792.74849   9748512.39046  23445480.931    23445484.406
  22907071.063     6717873.61349   5238686.41546  22907070.505    22907075.909
 03  3 25  2 59  0.0000000  0  8G25G31G11G23G 3G14G18G15
  22839418.513   -12050969.65349  -9369076.01046  22839418.340    22839423.108
  23037079.894    -9954694.44449  -7523835.14946  23037079.542    23037085.228
  23306714.275   -11908352.06349  -9265950.29346  23306714.098    23306718.364
  24545025.355    19961572.09049  15555026.00045  24545025.162    24545030.076
  23527686.967    -6926460.87449  -5382533.62046  23527686.692    23527693.150
  20439997.258   -27422704.49749 -21111964.07348  20439996.875    20440000.014
  23458707.408    12575296.20949   9802670.92845  23458706.995    23458710.444
  22926165.880     6818217.60249   5316876.54346  22926165.336    22926170.696
 03  3 25  2 59 30.0000000  0  8G25G31G11G23G 3G14G18G15
  22821910.494   -12142974.70049  -9440768.19546  22821910.281    22821915.080
  23047794.948    -9898386.92749  -7479959.17746  23047794.543    23047800.204
  23289535.471   -11998626.64649  -9336294.05546  23289535.311    23289539.619
  24557073.211    20024883.40849  15604359.47745  24557072.912    24557077.750
  23543177.464    -6845057.85949  -5319102.70446  23543177.217    23543183.700
  20446368.669   -27389222.37249 -21085874.08748  20446368.284    20446371.429
  23471951.340    12644893.68749   9856902.72645  23471950.937    23471954.306
  22945309.594     6918818.69649   5395267.01946  22945309.064    22945314.463
 03  3 25  3  0  0.0000000  0  8G25G31G11G23G 3G14G18G15
  22804439.298   -12234785.84749  -9512309.29946  22804439.125    22804443.921
  23058580.901    -9841706.72849  -7435792.80246  23058580.497    23058586.132
  23272398.524   -12088681.75749  -9406466.81246  23272398.334    23272402.669
  24569131.008    20088248.01149  15653734.49445  24569130.655    24569135.595
  23558694.179    -6763517.36749  -5255564.66546  23558693.916    23558700.378
  20452817.111   -27355335.52449 -21059468.74048  20452816.720    20452819.871
  23485213.382    12714586.15949   9911208.51745  23485212.925    23485216.405
  22964502.099     7019676.09249   5473857.20446  22964501.546    22964507.022
 03  3 25  3  0 30.0000000  0  8G25G31G11G23G 3G14G18G15
  22787005.410   -12326401.31349  -9583697.92746  22787005.275    22787010.042
  23069436.941    -9784657.40049  -7391338.78346  23069436.602    23069442.228
  23255303.485   -12178516.20349  -9476467.61746  23255303.279    23255307.690
  24581198.825    20151665.55749  15703150.77445  24581198.500    24581203.543
  23574236.388    -6681843.08749  -5191922.37646  23574236.076    23574242.397
  20459342.112   -27321046.39549 -21032749.92548  20459341.703    20459344.916
  23498493.278    12784372.87149   9965587.78246  23498492.802    23498496.439
  22983742.870     7120787.21649   5552645.10446  22983742.297    22983747.789
 03  3 25  3  1  0.0000000  0  8G25G31G11G23G 3G14G18G15
  22769609.868   -12417815.70249  -9654929.86346  22769609.677    22769614.435
  23080363.325    -9727239.05849  -7346597.22846  23080362.947    23080368.509
  23238251.357   -12268124.78249  -9546292.40946  23238251.154    23238255.687
  24593277.504    20215138.86049  15752610.46345  24593277.188    24593282.145
  23589803.887    -6600035.41149  -5128176.13346  23589803.619    23589809.869
  20465943.773   -27286354.55649 -21005717.30848  20465943.352    20465946.517
  23511791.704    12854256.49849  10020042.55346  23511791.265    23511794.909
  23003032.140     7222152.76349   5631631.25146  23003031.572    23003037.071
 03  3 25  3  1 30.0000000  0  8G25G31G11G23G 3G14G18G15
  22752252.064   -12509031.35249  -9726006.94446  22752251.874    22752256.646
  23091358.429    -9669459.66049  -7301574.33846  23091358.016    23091363.552
  23221241.782   -12357510.35149  -9615943.45146  23221241.599    23221246.079
  24605365.770    20278663.16849  15802109.90445  24605365.619    24605370.421
  23605395.197    -6518102.15749  -5064332.05046  23605394.965    23605401.217
  20472620.744   -27251266.69449 -20978376.10548  20472620.320    20472623.494
  23525107.596    12924231.93749  10074568.86846  23525107.167    23525110.825
  23022368.512     7323765.71349   5710810.17146  23022367.896    23022373.410
 03  3 25  3  2  0.0000000  0  8G25G31G11G23G 3G14G18G15
  22734933.566   -12600040.25749  -9796922.93146  22734933.413    22734938.181
  23102422.619    -9611316.49349  -7256267.99646  23102422.216    23102427.819
  23204276.231   -12446665.34049  -9685414.80946  23204276.034    23204280.391
  24617464.738    20342244.08449  15851653.47445  24617464.513    24617469.202
  23621010.835    -6436041.37349  -5000388.59346  23621010.604    23621016.852
  20479373.717   -27215779.42449 -20950723.67548  20479373.305    20479376.502
  23538441.912    12994304.24349  10129170.64246  23538441.596    23538445.127
  23041752.647     7425629.56749   5790184.60546  23041751.937    23041757.500
 03  3 25  3  2 30.0000000  0  8G25G31G11G23G 3G14G18G15
  22717654.231   -12690843.63649  -9867678.77246  22717654.075    22717658.794
  23113554.886    -9552816.29849  -7210683.44646  23113554.469    23113559.980
  23187354.300   -12535591.18449  -9754707.60946  23187354.029    23187358.290
  24629573.825    20405878.04049  15901238.37445  24629573.580    24629578.489
  23636649.458    -6353859.82849  -4936351.01846  23636649.198    23636655.518
  20486201.581   -27179898.61849 -20922764.59248  20486201.158    20486204.336
  23551794.006    13064469.77349  10183845.07245  23551793.663    23551797.123
  23061183.358     7527738.56349   5869750.06246  23061182.596    23061188.160
 03  3 25  3  3  0.0000000  0  8G25G31G11G23G 3G14G18G15
  22700415.275   -12781434.90349  -9938269.33646  22700415.130    22700419.763
  23124755.382    -9493957.88249  -7164819.77946  23124754.915    23124760.386
  23170477.083   -12624281.77049  -9823817.10946  23170476.813    23170480.935
  24641693.961    20469569.27849  15950867.90345  24641693.620    24641698.707
  23652311.267    -6271556.57149  -4872218.62946  23652311.006    23652317.317
  20493104.684   -27143622.46749 -20894497.45248  20493104.299    20493107.469
  23565164.509    13134732.29149  10238595.07545  23565164.146    23565167.636
  23080661.004     7630094.80249   5949508.15346  23080660.271    23080665.888
 03  3 25  3  3 30.0000000  0  8G25G31G11G23G 3G14G18G15
  22683216.707   -12871814.34049 -10008694.82746  22683216.506    22683221.113
  23136022.833    -9434747.12449  -7118681.54046  23136022.335    23136027.846
  23153644.421   -12712737.76849  -9892743.78146  23153644.145    23153648.302
  24653824.440    20533315.05649  16000539.93145  24653824.083    24653829.231
  23667995.000    -6189137.73349  -4807996.15746  23667994.798    23668001.116
  20500082.050   -27106955.97449 -20865926.14248  20500081.659    20500084.858
  23578552.974    13205089.10049  10293418.55045  23578552.608    23578556.176
  23100184.740     7732693.15649   6029454.92746  23100184.026    23100189.678
 03  3 25  3  4  0.0000000  0  8G25G31G11G23G 3G14G18G15
  22666059.170   -12961977.58449 -10078951.87246  22666058.994    22666063.658
  23147357.081    -9375185.35449  -7072269.80146  23147356.558    23147362.135
  23136857.208   -12800955.38149  -9961484.71846  23136856.898    23136860.975
  24665965.683    20597117.34149  16050255.99945  24665965.268    24665970.560
  23683700.503    -6106604.59949  -4743684.63246  23683700.346    23683706.683
  20507133.640   -27069899.59649 -20837051.03348  20507133.257    20507136.448
  23591959.596    13275541.54549  10348316.53545  23591959.237    23591962.825
  23119754.481     7835533.33049   6109590.12546  23119753.778    23119759.505
 03  3 25  3  4 30.0000000  0  8G25G31G11G23G 3G14G18G15
  22648942.786   -13051923.83049 -10149039.82346  22648942.703    22648947.439
  23158757.173    -9315277.19949  -7025588.13346  23158756.746    23158762.331
  23120115.266   -12888934.19449 -10030039.56846  23120114.998    23120119.125
  24678117.273    20660974.42049  16100014.73845  24678116.785    24678122.126
  23699426.875    -6023962.16649  -4679287.93145  23699426.718    23699433.048
  20514258.746   -27032456.92949 -20807874.91548  20514258.344    20514261.538
  23605384.076    13346087.63849  10403287.50445  23605383.603    23605387.332
  23139369.659     7938611.41049   6189910.71346  23139368.948    23139374.651
 03  3 25  3  5  0.0000000  0  8G25G31G11G23G 3G14G18G15
  22631869.211   -13141646.24849 -10218953.36146  22631869.063    22631873.815
  23170223.572    -9255021.26249  -6978635.48246  23170223.078    23170228.577
  23103419.995   -12976667.62049 -10098403.20346  23103419.746    23103423.963
  24690280.314    20724891.02149  16149819.84545  24690279.785    24690284.806
  23715174.338    -5941209.01749  -4614804.97745  23715174.106    23715180.446
  20521457.781   -26994625.73449 -20778396.05448  20521457.391    20521460.547
  23618827.103    13416731.67449  10458334.79745  23618826.647    23618830.380
  23159030.674     8041929.99849   6270418.69046  23159029.937    23159035.517
 03  3 25  3  5 30.0000000  0  8G25G31G11G23G 3G14G18G15
  22614837.767   -13231147.16649 -10288694.29446  22614837.554    22614842.289
  23181754.557    -9194425.63049  -6931418.12746  23181754.095    23181759.557
  23086770.942   -13064158.32949 -10166577.70546  23086770.741    23086774.976
  24702453.670    20788861.98149  16199667.34045  24702453.258    24702457.985
  23730941.057    -5858353.48849  -4550242.23245  23730940.922    23730947.289
  20528729.387   -26956413.14749 -20748619.99948  20528728.987    20528732.153
  23632287.788    13487468.41249  10513454.31545  23632287.418    23632291.159
  23178735.917     8145481.84849   6351108.44946  23178735.205    23178740.765
 03  3 25  3  6  0.0000000  0  8G25G31G11G23G 3G14G18G15
  22597849.807   -13320419.11449 -10358256.82146  22597849.664    22597854.325
  23193350.493    -9133488.41649  -6883934.60946  23193350.078    23193355.542
  23070169.446   -13151399.53849 -10234557.80346  23070169.244    23070173.489
  24714638.173    20852892.54049  16249561.27645  24714637.792    24714642.712
  23746727.697    -5775393.91249  -4485598.43145  23746727.652    23746733.969
  20536074.021   -26917816.67549 -20718544.81648  20536073.652    20536076.811
  23645767.105    13558302.25549  10568649.50545  23645766.726    23645770.406
  23198485.928     8249269.56749   6431982.00546  23198485.283    23198490.889
 03  3 25  3  6 30.0000000  0  8G25G31G11G23G 3G14G18G15
  22580905.214   -13409463.39649 -10427641.93746  22580905.075    22580909.735
  23205010.307    -9072216.25949  -6836190.10046  23205009.836    23205015.299
  23053615.127   -13238392.88649 -10302344.76046  23053614.895    23053619.185
  24726833.427    20916979.21049  16299498.93845  24726832.990    24726838.028
  23762532.991    -5692336.90449  -4420878.66845  23762532.861    23762539.207
  20543490.636   -26878842.18849 -20688175.07848  20543490.228    20543493.385
  23659264.220    13629229.77349  10623917.67445  23659263.822    23659267.492
  23218279.825     8353287.43649   6513034.88646  23218279.210    23218284.782
 03  3 25  3  7  0.0000000  0  8G25G31G11G23G 3G14G18G15
  22564004.951   -13498274.71649 -10496845.53546  22564004.805    22564009.449
  23216733.726    -9010609.42249  -6788184.79246  23216733.290    23216738.701
  23037108.915   -13325133.16049 -10369934.52646  23037108.702    23037112.973
  24739040.014    20981124.81149  16349482.49945  24739039.599    24739044.499
  23778356.786    -5609182.85249  -4356083.30945  23778356.516    23778362.895
  20550979.330   -26839488.85049 -20657510.13648  20550978.923    20550982.071
  23672779.602    13700253.55449  10679260.88945  23672779.166    23672782.911
  23238117.826     8457536.20949   6594267.70046  23238117.176    23238122.626
 03  3 25  3  7 30.0000000  0  8G25G31G11G23G 3G14G18G15
  22547149.411   -13586850.91349 -10565865.90646  22547149.283    22547153.894
  23228520.112    -8948671.43349  -6739921.44546  23228519.711    23228525.148
  23020651.256   -13411618.47249 -10437325.61846  23020651.025    23020655.205
  24751257.722    21045328.98149  16399511.70445  24751257.311    24751262.264
  23794198.269    -5525935.48049  -4291215.22245  23794197.990    23794204.365
  20558539.666   -26799759.18449 -20626551.94448  20558539.249    20558542.360
  23686313.099    13771372.87549  10734678.54345  23686312.737    23686316.509
  23257999.218     8562013.43849   6675678.52746  23257998.593    23258003.977
 03  3 25  3  8  0.0000000  0  8G25G31G11G23G 3G14G18G15
  22530339.253   -13675189.06649 -10634700.78746  22530339.071    22530343.622
  23240369.099    -8886404.78349  -6691401.99646  23240368.668    23240374.114
  23004242.620   -13497846.36149 -10504516.12746  23004242.395    23004246.435
  24763486.659    21109592.49749  16449587.15045  24763486.196    24763491.266
  23810057.004    -5442597.33449  -4226276.41745  23810056.701    23810063.046
  20566171.207   -26759655.03649 -20595301.95248  20566170.796    20566173.918
  23699865.005    13842588.07749  10790170.87145  23699864.655    23699868.277
  23277923.571     8666717.29549   6757265.95546  23277922.989    23277928.379
 03  3 25  3  8 30.0000000  0  8G25G31G11G23G 3G14G18G15
  22513574.639   -13763287.24649 -10703348.67646  22513574.487    22513579.056
  23252279.845    -8823813.13349  -6642629.29446  23252279.452    23252284.999
  22987883.256   -13583815.49649 -10571505.01846  22987883.020    22987886.917
  24775726.742    21173914.81049  16499708.41545  24775726.251    24775731.419
  23825932.205    -5359172.23249  -4161269.85145  23825931.941    23825938.284
  20573873.430   -26719179.26949 -20563762.38648  20573873.034    20573876.148
  23713434.928    13913898.36749  10845737.31845  23713434.571    23713438.159
  23297890.601     8771644.94549   6839027.75946  23297889.976    23297895.423
 03  3 25  3  9  0.0000000  0  8G25G31G11G23G 3G14G18G15
  22496856.125   -13851142.99849 -10771807.66346  22496856.041    22496860.620
  23264251.917    -8760899.55549  -6593605.75046  23264251.534    23264257.120
  22971573.610   -13669523.37949 -10638290.34446  22971573.330    22971577.164
  24787978.104    21238296.18749  16549875.69245  24787977.590    24787982.797
  23841823.370    -5275663.26549  -4096197.94745  23841823.139    23841829.579
  20581646.074   -26678333.79549 -20531934.73748  20581645.683    20581648.750
  23727022.853    13985303.69949  10901377.80945  23727022.504    23727026.208
  23317899.933     8876794.28649   6920962.29846  23317899.294    23317904.663
 03  3 25  3  9 30.0000000  0  8G25G31G11G23G 3G14G18G15
  22480184.634   -13938752.28649 -10840074.59846  22480184.552    22480189.073
  23276285.004    -8697665.70949  -6544332.62946  23276284.563    23276290.110
  22955314.346   -13754966.64749 -10704869.46646  22955314.046    22955317.867
  24800240.968    21302737.94049  16600090.03245  24800240.501    24800245.836
  23857730.171    -5192071.86249  -4031061.81045  23857729.947    23857736.491
  20589488.865   -26637119.59249 -20499819.76748  20589488.454    20589491.564
  23740629.147    14056805.15449  10957093.22345  23740628.765    23740632.481
  23337951.319     8982164.66349   7003069.08246  23337950.622    23337956.028
 03  3 25  3 10  0.0000000  0  7G25G31G11G 3G14G18G15
  22463560.588   -14026111.99649 -10908147.05546  22463560.521    22463565.019
  23288378.352    -8634114.39449  -6494812.14246  23288377.942    23288383.569
  22939105.768   -13840143.06849 -10771240.67146  22939105.478    22939109.319
  23873652.212    -5108401.18149  -3965863.90245  23873652.025    23873658.500
  20597401.449   -26595538.59149 -20467418.97948  20597401.056    20597404.115
  23754253.819    14128402.89649  11012883.64945  23754253.403    23754257.017
  23358044.278     9087754.35049   7085346.76646  23358043.613    23358049.100
 03  3 25  3 10 30.0000000  0  7G25G31G11G 3G14G18G15
  22446983.929   -14113222.50349 -10976025.32446  22446983.917    22446988.403
  23300531.065    -8570251.21249  -6445048.63346  23300530.678    23300536.375
  22922947.891   -13925052.73049 -10837404.00946  22922947.644    22922951.500
  23889588.407    -5024656.66549  -3900608.46645  23889588.122    23889594.565
  20605382.969   -26553595.40949 -20434735.96848  20605382.560    20605385.598
  23767896.185    14200094.15049  11068746.94645  23767895.798    23767899.400
  23378178.146     9193558.68849   7167791.70246  23378177.494    23378183.026
 03  3 25  3 11  0.0000000  0  7G25G31G11G 3G14G18G15
  22430455.982   -14200077.58249 -11043704.56047  22430455.929    22430460.409
  23312743.408    -8506075.53549  -6395041.63446  23312742.954    23312748.587
  22906841.959   -14009689.61649 -10903354.78646  22906841.713    22906845.663
  23905538.741    -4940837.68249  -3835295.00245  23905538.400    23905544.820
  20613433.659   -26511288.62749 -20401769.63648  20613433.277    20613436.318
  23781557.079    14271882.73949  11124686.09745  23781556.591    23781560.327
  23398353.244     9299579.00249   7250404.92946  23398352.537    23398357.991
 03  3 25  3 11 30.0000000  0  7G25G31G11G 3G14G18G15
  22413976.909   -14286675.46049 -11111183.38147  22413976.807    22413981.316
  23325014.449    -8441591.20549  -6344794.12146  23325013.930    23325019.572
  22890788.251   -14094052.18049 -10969091.80346  22890787.998    22890792.020
  23921502.425    -4856948.10949  -3769926.51845  23921502.059    23921508.484
  20621553.015   -26468621.01349 -20368522.13448  20621552.626    20621555.684
  23795236.307    14343767.48949  11180700.17945  23795235.861    23795239.674
  23418568.814     9405812.44949   7333184.24845  23418568.143    23418573.565
 03  3 25  3 12  0.0000000  0  7G25G31G11G 3G14G18G15
  22397547.186   -14373013.67849 -11178459.87347  22397547.151    22397551.692
  23337343.474    -8376801.46049  -6294308.61546  23337343.013    23337348.621
  22874787.055   -14178138.61749 -11034613.66046  22874786.824    22874790.899
  23937478.818    -4772991.61649  -3704505.89645  23937478.508    23937485.023
  20629740.646   -26425594.83849 -20334995.23248  20629740.248    20629743.272
  23808933.785    14415748.16949  11236789.01045  23808933.379    23808937.121
  23438824.445     9512256.71049   7416127.82645  23438823.721    23438829.266
 03  3 25  3 12 30.0000000  0  7G25G31G11G 3G14G18G15
  22381167.207   -14459091.29649 -11245533.30047  22381167.140    22381171.671
  23349729.746    -8311710.68149  -6243588.54146  23349729.299    23349734.975
  22858838.510   -14261948.35149 -11099919.90546  22858838.325    22858842.329
  23953467.250    -4688972.15949  -3639036.21045  23953466.880    23953473.431
  20637995.770   -26382213.84549 -20301191.85348  20637995.353    20637998.417
  23822649.320    14487823.48349  11292951.58145  23822648.844    23822652.700
  23459119.621     9618908.48949   7499233.09945  23459118.840    23459124.385
 03  3 25  3 13  0.0000000  0  7G25G31G11G 3G14G18G15
  22364837.598   -14544904.16649 -11312400.42947  22364837.445    22364841.979
  23362173.132    -8246320.39449  -6192635.08546  23362172.625    23362178.367
  22842943.496   -14345477.20349 -11165007.28646  22842943.269    22842947.204
  23969467.307    -4604891.15849  -3573518.57945  23969467.003    23969473.451
  20646318.277   -26338478.63849 -20267112.46448  20646317.901    20646320.950
  23836382.874    14559994.70649  11349188.87045  23836382.516    23836386.310
  23479454.143     9725766.98149   7582499.45045  23479453.353    23479458.805
 03  3 25  3 13 30.0000000  0  7G25G31G11G 3G14G18G15
  22348559.068   -14630447.95149 -11379057.88447  22348558.955    22348563.482
  23374673.303    -8180631.90049  -6141449.25246  23374672.810    23374678.511
  22827102.644   -14428721.32249 -11229872.78546  22827102.376    22827106.290
  23985478.772    -4520750.29349  -3507954.28745  23985478.509    23985484.861
  20654708.181   -26294389.44449 -20232757.23548  20654707.773    20654710.825
  23850135.142    14632263.48149  11405502.20045  23850134.826    23850138.565
  23499827.825     9832832.04049   7665926.76845  23499827.108    23499832.507
 03  3 25  3 14  0.0000000  0  7G25G31G11G 3G14G18G15
  22332331.488   -14715724.06049 -11445506.76647  22332331.399    22332335.907
  23387228.776    -8114651.96949  -6090036.34046  23387228.349    23387234.108
  22811315.601   -14511682.24349 -11294517.61046  22811315.345    22811319.245
  24001500.502    -4436555.88149  -3442348.27345  24001500.237    24001506.534
  20663164.255   -26249952.16149 -20198130.77548  20663163.859    20663166.929
  23863905.474    14704626.19649  11461888.71645  23863905.072    23863908.773
  23520239.806     9940097.79749   7749510.45745  23520239.087    23520244.451
 03  3 25  3 14 30.0000000  0  7G25G31G11G 3G14G18G15
  22316156.435   -14800724.90849 -11511741.14647  22316156.277    22316160.789
  23399840.032    -8048379.03549  -6038395.10346  23399839.658    23399845.424
  22795583.833   -14594353.12849 -11358936.43146  22795583.595    22795587.457
  24017532.781    -4352306.23749  -3376699.21745  24017532.468    24017538.739
  20671687.148   -26205164.10849 -20163230.98248  20671686.739    20671689.811
  23877694.418    14777087.17349  11518351.78745  23877693.946    23877697.553
  23540690.464    10047566.56149   7833252.34745  23540689.729    23540695.123
 03  3 25  3 15  0.0000000  0  7G25G31G11G 3G14G18G15
  22300033.464   -14885451.62049 -11577761.92847  22300033.278    22300037.801
  23412506.012    -7981819.52449  -5986530.57146  23412505.539    23412511.294
  22779906.997   -14676735.17449 -11423130.19446  22779906.759    22779910.608
  24033574.248    -4268008.12649  -3311012.40445  24033573.933    24033580.103
  20680275.710   -26160031.05449 -20128062.35848  20680275.283    20680278.385
  23891501.398    14849643.08249  11574888.84545  23891500.838    23891504.343
  23561178.643    10155232.94549   7917148.22145  23561178.016    23561183.435
 03  3 25  3 15 30.0000000  0  7G25G31G11G 3G14G18G15
  22283963.250   -14969900.70149 -11643566.37247  22283963.093    22283967.633
  23425226.017    -7914975.71449  -5934444.50246  23425225.534    23425231.257
  22764285.791   -14758825.08749 -11487096.30346  22764285.553    22764289.402
  24049624.478    -4183663.70549  -3245289.48345  24049624.141    24049630.263
  20688929.582   -26114554.36449 -20092625.97048  20688929.162    20688932.270
  23905326.380    14922294.32649  11631500.19345  23905325.898    23905329.409
  23581704.064    10263095.58349   8001197.02945  23581703.417    23581709.059
 03  3 25  3 16  0.0000000  0  7G25G31G11G 3G14G18G15
  22267946.579   -15054068.62549 -11709151.72747  22267946.471    22267950.927
  23437999.531    -7847849.83549  -5882138.63246  23437999.161    23438004.818
  22748720.767   -14840619.70849 -11550832.32646  22748720.588    22748724.397
  24065683.171    -4099275.21049  -3179532.23745  24065682.775    24065688.882
  20697648.665   -26068735.34049 -20056922.82048  20697648.246    20697651.318
  23919169.695    14995041.80549  11688186.52745  23919169.163    23919172.794
  23602266.694    10371153.17749   8085397.73945  23602266.081    23602271.753
 03  3 25  3 16 30.0000000  0  7G25G31G11G 3G14G18G15
  22251984.153   -15137951.83849 -11774515.23247  22251984.002    22251988.434
  23450826.562    -7780443.30649  -5829614.09246  23450826.210    23450831.907
  22733212.697   -14922115.43049 -11614335.43946  22733212.495    22733216.287
  24081749.934    -4014843.90149  -3113741.61745  24081749.532    24081755.674
  20706432.811   -26022574.30949 -20020953.17848  20706432.375    20706435.471
  23933031.749    15067887.28149  11744949.22545  23933031.316    23933034.869
  23622866.495    10479405.34849   8169750.06445  23622865.830    23622871.415
 03  3 25  3 17  0.0000000  0  7G25G31G11G 3G14G18G15
  22236075.674   -15221550.88549 -11839657.31447  22236075.565    22236080.008
  23463705.844    -7712762.48549  -5776875.80346  23463705.455    23463711.087
  22717761.239   -15003313.11149 -11677606.30646  22717761.041    22717764.842
  24097823.604    -3930375.90949  -3047922.43145  24097823.204    24097829.419
  20715280.932   -25976076.86749 -19984721.39748  20715280.500    20715283.620
  23946911.853    15140827.37149  11801785.63245  23946911.488    23946914.914
  23643502.328    10587846.65149   8254249.77045  23643501.665    23643507.112
 03  3 25  3 17 30.0000000  0  7G25G31G11G 3G14G18G15
  22220222.088   -15304861.60049 -11904574.71647  22220222.031    22220226.461
  23476637.028    -7644808.82449  -5723924.91346  23476636.623    23476642.324
  22702367.200   -15084208.94649 -11740641.96846  22702367.009    22702370.807
  24113903.985    -3845872.49749  -2982075.63445  24113903.643    24113909.917
  20724193.037   -25929243.57449 -19948227.90648  20724192.610    20724195.677
  23960810.208    15213863.34049  11858696.75445  23960809.827    23960813.264
  23664174.011    10696476.33849   8338896.26945  23664173.313    23664178.707
 03  3 25  3 18  0.0000000  0  7G25G31G11G 3G14G18G15
  22204424.362   -15387879.02749 -11969263.59047  22204424.297    22204428.702
  23489619.946    -7576583.29049  -5670762.17646  23489619.555    23489625.253
  22687031.398   -15164798.61049 -11803439.06746  22687031.225    22687035.011
  24129990.806    -3761334.77249  -2916202.09545  24129990.605    24129996.919
  20733169.028   -25882074.38549 -19911472.69048  20733168.586    20733171.661
  23974727.177    15286997.26849  11915684.19345  23974726.732    23974730.214
  23684881.433    10805294.44249   8423689.58145  23684880.748    23684886.145
 03  3 25  3 18 30.0000000  0  7G25G31G11G 3G14G18G15
  22188682.309   -15470604.03049 -12033724.60147  22188682.235    22188686.606
  23502653.419    -7508091.71749  -5617392.13546  23502653.052    23502658.725
  22671753.824   -15245082.76549 -11865998.09846  22671753.632    22671757.334
  24146083.211    -3676768.25649  -2850306.10745  24146083.064    24146089.469
  20742207.979   -25834574.10049 -19874459.47248  20742207.569    20742210.648
  23988662.276    15360226.48949  11972745.90645  23988661.845    23988665.377
  23705623.646    10914296.22449   8508626.02345  23705622.919    23705628.562
 03  3 25  3 19  0.0000000  0  7G25G31G11G 3G14G18G15
  22172996.789   -15553031.59249 -12097953.83947  22172996.704    22173001.063
  23515737.393    -7439335.15149  -5563815.61546  23515736.964    23515742.675
  22656535.258   -15325056.75949 -11928315.45046  22656535.047    22656538.680
  24162181.127    -3592173.74849  -2784388.34745  24162180.920    24162187.249
  20751309.951   -25786742.94549 -19837188.43048  20751309.537    20751312.587
  24002615.868    15433553.18749  12029883.57545  24002615.445    24002619.030
  23726400.914    11023481.72249   8593705.61645  23726400.274    23726405.811
 03  3 25  3 19 30.0000000  0  7G25G31G11G 3G14G18G15
  22157368.181   -15635160.28949 -12161950.18747  22157368.093    22157372.433
  23528871.106    -7370317.63449  -5510035.74446  23528870.642    23528876.363
  22641375.921   -15404719.65649 -11990390.38846  22641375.682    22641379.312
  24178283.580    -3507555.51449  -2718452.08545  24178283.262    24178289.567
  20760474.276   -25738584.03449 -19799661.99548  20760473.853    20760476.909
  24016587.629    15506975.73949  12087095.92745  24016587.213    24016590.935
  23747212.595    11132847.50649   8678925.70345  23747211.967    23747217.479
 03  3 25  3 20  0.0000000  0  7G25G31G11G 3G14G18G15
  22141796.893   -15716987.64149 -12225711.73747  22141796.823    22141801.179
  23542053.644    -7301042.53749  -5456055.16946  23542053.226    23542058.978
  22626276.152   -15484069.22849 -12052221.17746  22626275.925    22626279.516
  24194390.013    -3422916.42849  -2652499.56245  24194389.622    24194395.876
  20769700.490   -25690099.62449 -19761881.93348  20769700.086    20769703.152
  24030577.861    15580494.18049  12144382.97945  24030577.397    24030581.025
  23768058.014    11242391.32149   8764284.50945  23768057.407    23768062.925
 03  3 25  3 20 30.0000000  0  7G25G31G11G 3G14G18G15
  22126283.622   -15798510.46849 -12289235.98447  22126283.573    22126287.897
  23555284.849    -7231512.06249  -5401875.58946  23555284.436    23555290.163
  22611236.593   -15563102.55149 -12113805.54746  22611236.367    22611239.903
  24210499.930    -3338258.69549  -2586532.53345  24210499.520    24210505.774
  20778988.422   -25641291.11149 -19723849.32048  20778988.026    20778991.104
  24044586.542    15654109.28449  12201745.36245  24044585.950    24044589.457
  23788936.981    11352111.84449   8849781.01345  23788936.453    23788942.111
 03  3 25  3 21  0.0000000  0  7G25G31G11G 3G14G18G15
  22110828.772   -15879726.70949 -12352521.33147  22110828.652    22110832.894
  23568564.011    -7161729.49149  -5347499.57646  23568563.583    23568569.283
  22596257.601   -15641817.30249 -12175141.66746  22596257.377    22596260.974
  24226612.721    -3253585.50749  -2520553.45745  24226612.305    24226618.553
  20788337.640   -25592160.66749 -19685565.85548  20788337.234    20788340.309
  24058613.282    15727820.81549  12259182.89745  24058612.809    24058616.378
  23809849.315    11462006.95549   8935413.55145  23809848.704    23809854.460
 03  3 25  3 21 30.0000000  0  7G25G31G11G 3G14G18G15
  22095432.912   -15960632.05449 -12415564.42247  22095432.820    22095437.081
  23581891.018    -7091695.96549  -5292928.01946  23581890.607    23581896.220
  22581340.005   -15720209.51049 -12236226.45646  22581339.744    22581343.410
  24242728.325    -3168897.94049  -2454563.15645  24242727.868    24242734.125
  20797748.021   -25542708.68549 -19647031.84048  20797747.599    20797750.700
  24072658.814    15801630.59149  12316696.98545  24072658.355    24072661.951
  23830795.131    11572076.22549   9021181.78445  23830794.374    23830799.988
 03  3 25  3 22  0.0000000  0  7G25G31G11G 3G14G18G15
  22080096.208   -16041226.23649 -12478365.05847  22080096.207    22080100.511
  23595264.621    -7021417.23649  -5238165.38746  23595264.158    23595269.860
  22566483.703   -15798279.46649 -12297060.13946  22566483.468    22566487.151
  24258845.554    -3084201.18549  -2388565.70645  24258845.191    24258851.293
  20807218.725   -25492939.80649 -19608250.88448  20807218.312    20807221.390
  24086722.502    15875535.66649  12374285.32345  24086722.109    24086725.771
  23851772.962    11682314.83749   9107081.97845  23851772.151    23851777.702
 03  3 25  3 22 30.0000000  0  7G25G31G11G 3G14G18G15
  22064819.714   -16121505.12749 -12540920.00447  22064819.683    22064823.958
  23608684.739    -6950894.46949  -5183212.59846  23608684.207    23608689.992
  22551689.508   -15876023.17649 -12357639.61246  22551689.241    22551692.907
  24274964.345    -2999496.40149  -2322562.00345  24274964.002    24274970.195
  20816749.685   -25442854.37849 -19569223.27048  20816749.254    20816752.295
  24100804.697    15949538.09049  12431949.51945  24100804.290    24100807.919
  23872782.747    11792722.45649   9193113.88445  23872781.927    23872787.524
 03  3 25  3 23  0.0000000  0  7G25G31G11G 3G14G18G15
  22049603.559   -16201467.04849 -12603227.96447  22049603.427    22049607.648
  23622150.488    -6880131.57549  -5128072.69346  23622149.996    23622155.804
  22536957.656   -15953439.12349 -12417963.67446  22536957.419    22536961.020
  24291083.910    -2914787.21149  -2256554.86145  24291083.603    24291089.801
  20826340.344   -25392455.06749 -19529951.07148  20826339.905    20826342.979
  24114905.270    16023637.05949  12489688.95745  24114904.858    24114908.404
  23893824.044    11903296.40049   9279275.39845  23893823.330    23893828.969
 03  3 25  3 23 30.0000000  0  7G25G31G11G 3G14G18G15
  22034448.524   -16281107.20249 -12665285.19547  22034448.379    22034452.570
  23635661.708    -6809129.32849  -5072746.28346  23635661.243    23635667.055
  22522289.231   -16030522.73749 -12478028.78646  22522288.974    22522292.494
  24307204.143    -2830074.13249  -2190544.68745  24307203.924    24307210.185
  20835990.726   -25341741.94249 -19490434.34748  20835990.324    20835993.374
  24129024.819    16097834.88649  12547505.42045  24129024.334    24129027.787
  23914897.154    12014036.62549   9365566.46645  23914896.492    23914902.065
 03  3 25  3 24  0.0000000  0  7G25G31G11G 3G14G18G15
  22019353.944   -16360429.57649 -12727094.81047  22019353.769    22019357.974
  23649216.678    -6737897.14949  -5017240.70846  23649216.228    23649222.090
  22507683.230   -16107277.86949 -12537837.93146  22507682.936    22507686.449
  24323323.287    -2745366.54749  -2124538.80145  24323323.044    24323329.493
  20845699.260   -25290723.24049 -19450679.50148  20845698.833    20845701.891
  24143161.817    16172125.25049  12605393.97345  24143161.337    24143164.795
  23936000.417    12124934.88449   9451980.69545  23935999.782    23936005.326
 03  3 25  3 24 30.0000000  0  7G25G31G11G 3G14G18G15
  22004321.745   -16439424.10149 -12788648.95547  22004321.575    22004325.807
  23662816.350    -6666430.55549  -4961552.47346  23662815.893    23662821.733
  22493141.405   -16183695.00749 -12597383.71046  22493141.143    22493144.724
  24339442.430    -2660659.66249  -2058533.44945  24339442.215    24339448.565
  20855466.903   -25239393.59049 -19410682.36548  20855466.511    20855469.564
  24157317.679    16246515.53049  12663360.41145  24157317.217    24157320.842
  23957134.682    12235996.23049   9538521.99145  23957134.091    23957139.576
 03  3 25  3 25  0.0000000  0  7G25G31G11G 3G14G18G15
  21989351.753   -16518091.47349 -12849948.16847  21989351.619    21989355.878
  23676459.427    -6594735.63049  -4905686.30646  23676459.018    23676464.772
  22478663.817   -16259774.84449 -12656666.65446  22478663.565    22478667.176
  24355560.442    -2575959.46749  -1992533.32945  24355560.126    24355566.490
  20865292.801   -25187758.31149 -19370447.06948  20865292.399    20865295.454
  24171492.030    16321002.67349  12721402.31245  24171491.595    24171495.372
  23978299.081    12347215.58249   9625186.40845  23978298.380    23978304.060
 03  3 25  3 25 30.0000000  0  7G25G31G11G 3G14G18G15
  21974444.341   -16596430.21149 -12910991.30947  21974444.239    21974448.480
  23690145.214    -6522816.61249  -4849645.53246  23690144.784    23690150.518
  22464250.810   -16335515.99149 -12715685.69546  22464250.543    22464254.075
  24371676.363    -2491269.80249  -1926541.39045  24371676.079    24371682.330
  20875176.220   -25135820.44949 -19329976.00448  20875175.836    20875178.902
  24185684.700    16395585.32349  12779518.63745  24185684.319    24185688.066
  23999493.014    12458589.79249   9711971.48345  23999492.316    23999497.797
 03  3 25  3 26  0.0000000  0  7G25G31G11G 3G14G18G15
  21959600.407   -16674435.81849 -12971774.87047  21959600.265    21959604.497
  23703873.422    -6450674.38349  -4793430.83246  23703873.000    23703878.707
  22449902.969   -16410914.21649 -12774437.52746  22449902.686    22449906.115
  24387790.130    -2406591.49749  -1860558.31845  24387789.925    24387796.192
  20885117.303   -25083579.88549 -19289269.06348  20885116.875    20885119.928
  24199895.955    16470265.86549  12837711.21545  24199895.621    24199899.330
  24020716.387    12570118.77049   9798877.15445  24020715.685    24020720.984
 03  3 25  3 26 30.0000000  0  7G25G31G11G 3G14G18G15
  21944819.972   -16752107.08849 -13032297.90747  21944819.827    21944824.092
  23717643.273    -6378313.53949  -4737045.77146  23717642.828    23717648.519
  22435620.462   -16485968.83949 -12832921.61246  22435620.233    22435623.644
  24403901.076    -2321928.56149  -1794587.22045  24403900.681    24403907.067
  20895115.263   -25031040.20649 -19248329.04548  20895114.843    20895117.894
  24214125.510    16545042.56349  12895978.75945  24214125.200    24214128.824
  24041968.444    12681798.92249   9885900.63645  24041967.772    24041973.117
 03  3 25  3 27  0.0000000  0  7G25G31G11G 3G14G18G15
  21930103.951   -16829439.80649 -13092557.13547  21930103.885    21930108.150
  23731454.498    -6305734.96149  -4680491.05346  23731454.076    23731459.770
  22421404.246   -16560675.16449 -12891134.29646  22421404.025    22421407.508
  24420008.861    -2237281.77949  -1728628.70345  24420008.500    24420014.885
  20905170.101   -24978201.53749 -19207156.04748  20905169.702    20905172.702
  24228373.839    16619917.74549  12954322.99545  24228373.466    24228377.160
  24063249.192    12793630.19649   9973041.86845  24063248.480    24063254.048
 03  3 25  3 27 30.0000000  0  7G25G31G11G 3G14G18G15
  21915452.602   -16906433.30349 -13152552.03147  21915452.498    21915456.735
  23745306.246    -6232943.78149  -4623770.68646  23745305.856    23745311.478
  22407254.348   -16635033.28049 -12949075.64447  22407254.141    22407257.635
  24436112.501    -2152656.03949  -1662686.58945  24436112.231    24436118.724
  20915281.087   -24925067.95749 -19165753.25548  20915280.663    20915283.695
  24242640.407    16694889.10249  13012742.18045  24242639.999    24242643.850
  24084557.937    12905608.52849  10060297.68945  24084557.228    24084562.896
 03  3 25  3 28  0.0000000  0  7G25G31G11G 3G14G18G15
  21900866.434   -16983083.88849 -13212279.72747  21900866.316    21900870.582
  23759198.049    -6159941.93449  -4566886.14646  23759197.650    23759203.243
  22393171.438   -16709039.68349 -13006742.93747  22393171.200    22393174.697
  24452211.895    -2068052.95149  -1596762.12645  24452211.676    24452218.158
  20925448.001   -24871640.38049 -19124121.36848  20925447.584    20925450.602
  24256925.547    16769958.06449  13071237.43645  24256925.181    24256928.966
  24105894.482    13017732.98249  10147667.37945  24105893.837    24105899.499
 03  3 25  3 28 30.0000000  0  7G25G31G11G 3G14G18G15
  21886345.656   -17059390.71249 -13271739.55947  21886345.568    21886349.886
  23773129.117    -6086733.83449  -4509840.88446  23773128.696    23773134.319
  22379155.603   -16782693.33149 -13064135.34647  22379155.343    22379158.830
  24468306.264    -1983476.61749  -1530858.50745  24468306.064    24468312.477
  20935670.305   -24817921.98049 -19082262.86448  20935669.877    20935672.848
  24271229.037    16845123.16649  13129807.58945  24271228.499    24271232.419
  24127258.288    13129999.99849  10235148.14145  24127257.617    24127263.111
 03  3 25  3 29  0.0000000  0  7G25G31G11G 3G14G18G15
  21871891.185   -17135349.51649 -13330928.20347  21871891.085    21871895.375
  23787099.201    -6013320.61749  -4452635.80546  23787098.784    23787104.485
  22365207.680   -16855990.31349 -13121249.84247  22365207.419    22365210.843
  24484395.312    -1898927.89249  -1464976.40445  24484395.166    24484401.442
  20945947.790   -24763913.19249 -19040178.08948  20945947.362    20945950.346
  24285551.079    16920386.09349  13188453.98145  24285550.593    24285554.475
  24148649.067    13242409.27049  10322739.76845  24148648.448    24148653.797
 03  3 25  3 29 30.0000000  0  7G25G31G11G 3G14G18G15
  21857503.342   -17210958.18549 -13389844.01347  21857503.215    21857507.486
  23801107.760    -5939705.77849  -4395273.60346  23801107.266    23801112.868
  22351327.948   -16928928.48749 -13178084.74447  22351327.678    22351331.122
  24500478.533    -1814410.01049  -1399118.35845  24500478.342    24500484.587
  20956280.125   -24709616.35649 -18997868.86148  20956279.719    20956282.724
  24299891.846    16995746.62349  13247176.39845  24299891.295    24299895.011
  24170066.480    13354958.32549  10410440.30645  24170065.842    24170071.198
